GEFSMA_prec_meanprecacc_006.txt.gz
Total_Precipitation_Accumulation
0.16 0.15 0.17 0.15 0.08 0.15 0.27 0.23 0.13 0.05 0.03 0.03 0.03 0.02 0.02 0.04 0.04 0.02 0.01 0.11 0.11 0.11 0.13 0.14 0.17 0.15 0.15 0.14 0.09 0.07 0.06 0.06 0.07 0.06 0.10 0.15 0.15 0.10 0.07 0.05 0.04 0.01 0.01
0.24 0.24 0.26 0.20 0.20 0.25 0.31 0.20 0.09 0.04 0.03 0.01 0.01 0.02 0.04 0.06 0.06 0.04 0.02 0.06 0.10 0.07 0.08 0.10 0.14 0.13 0.17 0.21 0.17 0.12 0.08 0.06 0.05 0.03 0.02 0.05 0.12 0.10 0.09 0.15 0.25 0.08 0.01
0.22 0.28 0.28 0.25 0.30 0.30 0.26 0.17 0.09 0.04 0.02 0.01 0.00 0.00 0.01 0.02 0.01 0.01 0.02 0.02 0.03 0.07 0.09 0.11 0.11 0.09 0.11 0.21 0.24 0.17 0.10 0.07 0.04 0.02 0.01 0.03 0.05 0.06 0.06 0.07 0.13 0.06 0.03
0.11 0.15 0.17 0.18 0.18 0.19 0.20 0.13 0.07 0.04 0.02 0.01 0.01 0.00 0.00 0.01 0.01 0.01 0.01 0.01 0.00 0.04 0.16 0.18 0.16 0.13 0.12 0.19 0.26 0.19 0.09 0.05 0.02 0.01 0.02 0.03 0.05 0.05 0.04 0.04 0.03 0.02 0.01
0.02 0.06 0.08 0.09 0.09 0.11 0.12 0.08 0.05 0.04 0.02 0.02 0.02 0.01 0.01 0.02 0.03 0.02 0.02 0.02 0.01 0.01 0.04 0.09 0.15 0.15 0.14 0.14 0.21 0.25 0.16 0.06 0.02 0.01 0.03 0.06 0.07 0.06 0.05 0.04 0.03 0.01 0.00
0.00 0.01 0.02 0.02 0.01 0.01 0.03 0.04 0.06 0.06 0.04 0.03 0.02 0.02 0.02 0.01 0.02 0.05 0.06 0.03 0.02 0.03 0.03 0.03 0.09 0.13 0.13 0.11 0.12 0.13 0.14 0.12 0.06 0.01 0.01 0.01 0.02 0.01 0.00 0.01 0.01 0.01 0.01
0.00 0.00 0.00 0.00 0.00 0.00 0.00 0.00 0.01 0.02 0.02 0.03 0.03 0.02 0.02 0.02 0.03 0.06 0.06 0.02 0.03 0.10 0.13 0.08 0.08 0.18 0.23 0.16 0.08 0.06 0.08 0.11 0.08 0.04 0.02 0.02 0.01 0.00 0.00 0.00 0.00 0.01 0.01
0.00 0.00 0.00 0.00 0.00 0.00 0.00 0.00 0.00 0.00 0.00 0.00 0.01 0.01 0.00 0.00 0.01 0.03 0.05 0.05 0.06 0.13 0.15 0.12 0.13 0.19 0.18 0.17 0.16 0.08 0.06 0.05 0.05 0.05 0.04 0.03 0.02 0.01 0.00 0.00 0.00 0.00 0.00
0.00 0.00 0.00 0.00 0.00 0.00 0.00 0.00 0.00 0.00 0.00 0.00 0.00 0.00 0.01 0.00 0.00 0.02 0.06 0.08 0.09 0.12 0.09 0.10 0.11 0.12 0.16 0.14 0.12 0.08 0.06 0.04 0.04 0.05 0.05 0.04 0.03 0.02 0.01 0.01 0.01 0.01 0.01
0.00 0.00 0.00 0.00 0.00 0.00 0.00 0.00 0.00 0.01 0.01 0.01 0.00 0.01 0.01 0.01 0.02 0.02 0.05 0.11 0.13 0.12 0.11 0.09 0.07 0.10 0.12 0.11 0.12 0.12 0.09 0.05 0.05 0.05 0.06 0.06 0.04 0.02 0.02 0.05 0.09 0.12 0.07
0.00 0.00 0.00 0.00 0.00 0.00 0.00 0.00 0.00 0.01 0.02 0.02 0.03 0.03 0.03 0.04 0.06 0.07 0.04 0.07 0.12 0.08 0.05 0.04 0.02 0.04 0.05 0.08 0.11 0.13 0.07 0.07 0.08 0.08 0.07 0.06 0.05 0.02 0.02 0.07 0.15 0.23 0.23
0.00 0.00 0.00 0.00 0.00 0.00 0.00 0.00 0.01 0.02 0.03 0.04 0.05 0.06 0.05 0.04 0.04 0.09 0.08 0.08 0.07 0.03 0.04 0.05 0.05 0.05 0.05 0.11 0.14 0.10 0.09 0.08 0.06 0.05 0.04 0.03 0.03 0.03 0.03 0.07 0.12 0.17 0.21
0.00 0.00 0.00 0.00 0.00 0.00 0.00 0.00 0.01 0.02 0.03 0.04 0.05 0.04 0.04 0.04 0.05 0.07 0.06 0.06 0.06 0.06 0.10 0.10 0.10 0.14 0.16 0.28 0.17 0.13 0.10 0.07 0.04 0.02 0.01 0.01 0.01 0.03 0.05 0.07 0.09 0.14 0.20
0.00 0.00 0.00 0.00 0.00 0.00 0.00 0.00 0.01 0.02 0.02 0.03 0.03 0.07 0.11 0.08 0.08 0.06 0.05 0.06 0.08 0.12 0.16 0.15 0.15 0.21 0.32 0.32 0.22 0.09 0.04 0.01 0.00 0.00 0.00 0.00 0.00 0.01 0.03 0.06 0.09 0.13 0.16
0.03 0.01 0.01 0.00 0.00 0.00 0.00 0.01 0.01 0.01 0.01 0.02 0.03 0.08 0.14 0.13 0.13 0.12 0.11 0.13 0.18 0.16 0.21 0.29 0.30 0.28 0.27 0.28 0.16 0.08 0.01 0.00 0.00 0.00 0.00 0.00 0.00 0.00 0.00 0.01 0.03 0.07 0.13
0.11 0.08 0.05 0.02 0.01 0.00 0.00 0.00 0.00 0.01 0.03 0.04 0.07 0.09 0.14 0.18 0.17 0.18 0.20 0.21 0.27 0.25 0.27 0.33 0.36 0.27 0.22 0.17 0.07 0.04 0.01 0.00 0.00 0.00 0.00 0.00 0.00 0.00 0.00 0.00 0.00 0.01 0.03
0.17 0.15 0.12 0.09 0.05 0.03 0.02 0.01 0.01 0.02 0.03 0.03 0.04 0.07 0.12 0.18 0.21 0.22 0.25 0.27 0.28 0.30 0.28 0.25 0.27 0.18 0.14 0.08 0.04 0.02 0.01 0.01 0.01 0.01 0.01 0.00 0.00 0.00 0.00 0.00 0.00 0.00 0.00
0.19 0.18 0.16 0.13 0.09 0.06 0.05 0.02 0.01 0.01 0.02 0.02 0.02 0.05 0.07 0.10 0.13 0.13 0.14 0.20 0.27 0.33 0.30 0.16 0.13 0.12 0.10 0.06 0.03 0.03 0.03 0.02 0.01 0.02 0.02 0.01 0.00 0.00 0.00 0.00 0.00 0.00 0.00
0.13 0.16 0.16 0.14 0.11 0.09 0.07 0.04 0.02 0.01 0.02 0.01 0.03 0.08 0.09 0.11 0.11 0.04 0.02 0.05 0.15 0.28 0.31 0.19 0.11 0.10 0.10 0.06 0.04 0.04 0.04 0.03 0.03 0.02 0.02 0.01 0.01 0.01 0.00 0.00 0.00 0.00 0.00
0.06 0.10 0.13 0.14 0.13 0.11 0.09 0.06 0.04 0.02 0.02 0.02 0.04 0.05 0.06 0.08 0.09 0.05 0.01 0.02 0.07 0.15 0.19 0.18 0.19 0.23 0.19 0.11 0.06 0.04 0.04 0.04 0.02 0.01 0.01 0.00 0.00 0.00 0.00 0.00 0.00 0.00 0.00
0.04 0.08 0.13 0.13 0.12 0.11 0.08 0.07 0.06 0.03 0.02 0.02 0.03 0.04 0.02 0.02 0.02 0.01 0.00 0.01 0.06 0.11 0.18 0.21 0.33 0.55 0.48 0.31 0.15 0.07 0.04 0.03 0.01 0.01 0.01 0.01 0.00 0.00 0.00 0.00 0.00 0.00 0.00
0.02 0.05 0.09 0.12 0.12 0.10 0.09 0.06 0.04 0.04 0.03 0.02 0.03 0.03 0.03 0.01 0.00 0.00 0.00 0.01 0.02 0.06 0.14 0.25 0.38 0.50 0.52 0.44 0.26 0.12 0.04 0.02 0.02 0.03 0.02 0.01 0.01 0.00 0.00 0.00 0.00 0.00 0.00
0.01 0.02 0.05 0.10 0.11 0.13 0.11 0.06 0.04 0.03 0.03 0.03 0.03 0.04 0.03 0.02 0.00 0.00 0.00 0.00 0.01 0.02 0.05 0.11 0.25 0.38 0.41 0.35 0.21 0.08 0.03 0.03 0.02 0.01 0.01 0.01 0.00 0.00 0.00 0.00 0.00 0.00 0.00
0.01 0.01 0.02 0.06 0.10 0.14 0.16 0.12 0.07 0.04 0.03 0.03 0.02 0.01 0.02 0.02 0.01 0.00 0.00 0.00 0.00 0.01 0.03 0.06 0.12 0.18 0.19 0.15 0.09 0.05 0.04 0.03 0.02 0.01 0.01 0.02 0.01 0.00 0.00 0.00 0.00 0.00 0.00
0.02 0.01 0.01 0.03 0.07 0.13 0.17 0.15 0.12 0.07 0.05 0.04 0.02 0.01 0.01 0.01 0.00 0.00 0.00 0.00 0.00 0.01 0.02 0.02 0.03 0.03 0.02 0.02 0.02 0.02 0.01 0.01 0.01 0.01 0.01 0.01 0.01 0.01 0.01 0.01 0.00 0.00 0.00
0.02 0.01 0.01 0.02 0.04 0.13 0.18 0.17 0.15 0.10 0.08 0.07 0.07 0.04 0.01 0.00 0.00 0.00 0.01 0.00 0.00 0.00 0.00 0.00 0.00 0.00 0.00 0.00 0.00 0.00 0.01 0.01 0.00 0.00 0.00 0.00 0.01 0.03 0.04 0.01 0.00 0.00 0.00

GEFSMA_prec_meanprecacc_012.txt.gz
Total_Precipitation_Accumulation
0.32 0.33 0.30 0.23 0.15 0.24 0.36 0.31 0.22 0.18 0.20 0.24 0.29 0.36 0.36 0.27 0.22 0.19 0.21 0.35 0.32 0.28 0.31 0.31 0.31 0.24 0.21 0.17 0.12 0.08 0.07 0.07 0.08 0.06 0.10 0.15 0.18 0.13 0.09 0.06 0.05 0.02 0.01
0.39 0.38 0.38 0.31 0.30 0.35 0.38 0.26 0.18 0.19 0.20 0.23 0.19 0.18 0.20 0.22 0.21 0.15 0.12 0.18 0.27 0.24 0.25 0.30 0.33 0.30 0.30 0.31 0.24 0.16 0.10 0.07 0.06 0.04 0.02 0.05 0.13 0.13 0.14 0.18 0.27 0.09 0.02
0.31 0.36 0.36 0.33 0.37 0.34 0.29 0.21 0.15 0.14 0.14 0.13 0.08 0.05 0.04 0.06 0.06 0.06 0.05 0.05 0.11 0.21 0.23 0.27 0.29 0.27 0.28 0.35 0.35 0.23 0.13 0.08 0.04 0.02 0.01 0.03 0.05 0.06 0.09 0.12 0.17 0.08 0.04
0.13 0.17 0.19 0.22 0.21 0.21 0.21 0.15 0.10 0.07 0.06 0.05 0.03 0.02 0.01 0.02 0.04 0.03 0.03 0.02 0.03 0.09 0.25 0.34 0.35 0.30 0.29 0.36 0.40 0.29 0.15 0.08 0.04 0.02 0.03 0.04 0.06 0.05 0.05 0.06 0.06 0.03 0.02
0.02 0.06 0.08 0.10 0.10 0.12 0.13 0.09 0.06 0.05 0.03 0.03 0.02 0.02 0.02 0.02 0.03 0.03 0.03 0.04 0.04 0.05 0.08 0.16 0.27 0.28 0.32 0.36 0.46 0.47 0.32 0.15 0.06 0.03 0.05 0.08 0.08 0.06 0.07 0.08 0.07 0.02 0.01
0.00 0.01 0.02 0.02 0.02 0.02 0.03 0.05 0.06 0.06 0.04 0.04 0.03 0.02 0.03 0.02 0.02 0.06 0.06 0.03 0.03 0.04 0.06 0.06 0.13 0.19 0.27 0.33 0.40 0.41 0.37 0.29 0.17 0.08 0.06 0.05 0.04 0.03 0.01 0.01 0.02 0.02 0.01
0.00 0.00 0.00 0.00 0.00 0.00 0.00 0.00 0.01 0.02 0.02 0.03 0.04 0.02 0.02 0.02 0.03 0.06 0.06 0.02 0.04 0.11 0.15 0.11 0.12 0.23 0.29 0.28 0.25 0.26 0.30 0.31 0.25 0.17 0.12 0.08 0.07 0.04 0.02 0.01 0.01 0.01 0.01
0.00 0.00 0.00 0.00 0.00 0.00 0.00 0.00 0.00 0.00 0.00 0.00 0.01 0.01 0.00 0.00 0.01 0.03 0.06 0.07 0.08 0.15 0.19 0.18 0.20 0.24 0.24 0.25 0.25 0.20 0.23 0.24 0.26 0.25 0.20 0.15 0.12 0.09 0.06 0.03 0.02 0.01 0.01
0.00 0.00 0.00 0.00 0.00 0.00 0.00 0.00 0.00 0.01 0.00 0.00 0.00 0.01 0.01 0.00 0.00 0.02 0.06 0.09 0.11 0.14 0.14 0.17 0.18 0.18 0.22 0.21 0.20 0.18 0.20 0.19 0.24 0.31 0.31 0.26 0.21 0.19 0.17 0.11 0.08 0.05 0.03
0.00 0.00 0.00 0.00 0.00 0.00 0.00 0.00 0.00 0.01 0.01 0.01 0.01 0.01 0.02 0.03 0.04 0.03 0.05 0.11 0.14 0.13 0.12 0.12 0.11 0.14 0.19 0.20 0.22 0.21 0.19 0.17 0.24 0.35 0.38 0.37 0.32 0.24 0.21 0.20 0.23 0.22 0.13
0.02 0.01 0.00 0.00 0.00 0.00 0.00 0.00 0.00 0.01 0.02 0.02 0.03 0.03 0.03 0.04 0.08 0.09 0.05 0.07 0.13 0.08 0.06 0.05 0.04 0.07 0.11 0.17 0.24 0.27 0.21 0.24 0.28 0.34 0.36 0.36 0.36 0.31 0.24 0.21 0.29 0.36 0.34
0.06 0.03 0.01 0.01 0.01 0.00 0.00 0.00 0.01 0.02 0.03 0.04 0.06 0.06 0.05 0.04 0.05 0.10 0.10 0.09 0.08 0.03 0.04 0.07 0.08 0.11 0.15 0.26 0.30 0.26 0.29 0.31 0.31 0.33 0.35 0.33 0.29 0.25 0.20 0.19 0.23 0.28 0.33
0.08 0.06 0.04 0.03 0.02 0.01 0.00 0.00 0.01 0.02 0.03 0.04 0.05 0.04 0.04 0.04 0.05 0.08 0.08 0.07 0.06 0.07 0.10 0.12 0.16 0.23 0.31 0.46 0.37 0.34 0.33 0.33 0.31 0.32 0.32 0.28 0.23 0.17 0.13 0.12 0.14 0.19 0.25
0.19 0.14 0.10 0.07 0.04 0.02 0.01 0.01 0.01 0.02 0.02 0.03 0.03 0.07 0.11 0.08 0.09 0.07 0.06 0.07 0.09 0.13 0.17 0.17 0.23 0.35 0.50 0.57 0.53 0.37 0.21 0.15 0.11 0.12 0.13 0.12 0.09 0.07 0.07 0.08 0.10 0.14 0.17
0.24 0.20 0.15 0.10 0.07 0.04 0.03 0.02 0.01 0.01 0.01 0.02 0.03 0.08 0.14 0.14 0.13 0.13 0.13 0.14 0.21 0.17 0.21 0.30 0.37 0.45 0.45 0.48 0.39 0.29 0.11 0.06 0.04 0.03 0.03 0.03 0.03 0.02 0.01 0.01 0.03 0.08 0.13
0.20 0.18 0.14 0.10 0.07 0.05 0.04 0.03 0.02 0.02 0.03 0.04 0.07 0.09 0.14 0.18 0.17 0.19 0.21 0.24 0.31 0.28 0.28 0.35 0.42 0.44 0.36 0.26 0.18 0.18 0.10 0.05 0.03 0.02 0.01 0.01 0.01 0.00 0.00 0.00 0.00 0.01 0.03
0.19 0.17 0.15 0.12 0.08 0.06 0.06 0.05 0.04 0.04 0.04 0.03 0.04 0.07 0.12 0.18 0.21 0.22 0.26 0.29 0.31 0.35 0.31 0.30 0.35 0.31 0.26 0.18 0.12 0.10 0.06 0.03 0.02 0.01 0.01 0.00 0.00 0.00 0.00 0.00 0.00 0.00 0.00
0.19 0.19 0.17 0.14 0.10 0.07 0.07 0.05 0.04 0.04 0.05 0.04 0.03 0.06 0.08 0.10 0.14 0.13 0.15 0.21 0.28 0.38 0.39 0.24 0.21 0.20 0.20 0.17 0.14 0.11 0.07 0.03 0.02 0.03 0.02 0.01 0.00 0.00 0.00 0.00 0.00 0.00 0.00
0.13 0.16 0.16 0.14 0.11 0.10 0.08 0.06 0.05 0.05 0.05 0.05 0.05 0.09 0.10 0.11 0.11 0.05 0.02 0.05 0.15 0.30 0.37 0.28 0.20 0.19 0.18 0.14 0.13 0.11 0.07 0.05 0.03 0.03 0.02 0.02 0.01 0.01 0.00 0.00 0.00 0.00 0.00
0.06 0.10 0.13 0.14 0.13 0.11 0.09 0.08 0.07 0.06 0.05 0.05 0.07 0.08 0.07 0.08 0.09 0.05 0.01 0.02 0.08 0.17 0.23 0.24 0.28 0.34 0.29 0.17 0.13 0.11 0.08 0.05 0.03 0.02 0.01 0.01 0.00 0.00 0.00 0.00 0.00 0.00 0.00
0.04 0.08 0.13 0.14 0.13 0.11 0.08 0.09 0.09 0.07 0.06 0.06 0.08 0.08 0.05 0.03 0.02 0.01 0.00 0.01 0.06 0.12 0.21 0.27 0.42 0.66 0.60 0.39 0.21 0.12 0.09 0.06 0.04 0.02 0.02 0.01 0.00 0.00 0.00 0.00 0.00 0.00 0.00
0.04 0.06 0.10 0.13 0.12 0.10 0.09 0.07 0.07 0.08 0.09 0.09 0.10 0.10 0.07 0.03 0.00 0.00 0.00 0.01 0.02 0.07 0.17 0.29 0.45 0.60 0.62 0.52 0.34 0.20 0.10 0.06 0.06 0.05 0.03 0.02 0.01 0.00 0.00 0.00 0.00 0.00 0.00
0.04 0.05 0.06 0.11 0.12 0.13 0.12 0.07 0.06 0.08 0.09 0.11 0.13 0.13 0.10 0.05 0.01 0.00 0.00 0.00 0.01 0.03 0.07 0.15 0.31 0.47 0.52 0.47 0.33 0.20 0.12 0.08 0.06 0.05 0.04 0.02 0.00 0.00 0.00 0.00 0.00 0.00 0.00
0.03 0.04 0.04 0.08 0.11 0.15 0.16 0.12 0.09 0.08 0.11 0.12 0.13 0.13 0.11 0.06 0.02 0.00 0.00 0.00 0.00 0.01 0.04 0.08 0.16 0.27 0.31 0.28 0.22 0.17 0.14 0.11 0.09 0.07 0.03 0.02 0.01 0.00 0.00 0.00 0.00 0.00 0.00
0.03 0.02 0.02 0.04 0.08 0.14 0.17 0.15 0.13 0.10 0.11 0.14 0.15 0.16 0.13 0.07 0.02 0.00 0.00 0.00 0.01 0.01 0.03 0.05 0.08 0.11 0.12 0.10 0.09 0.10 0.11 0.09 0.08 0.07 0.03 0.01 0.01 0.01 0.01 0.01 0.00 0.00 0.00
0.04 0.02 0.02 0.03 0.05 0.14 0.19 0.18 0.16 0.12 0.13 0.16 0.21 0.22 0.19 0.10 0.03 0.01 0.01 0.00 0.00 0.01 0.01 0.01 0.02 0.03 0.03 0.03 0.03 0.04 0.04 0.04 0.03 0.03 0.02 0.01 0.01 0.03 0.04 0.01 0.00 0.00 0.00

GEFSMA_prec_meanprecacc_018.txt.gz
Total_Precipitation_Accumulation
0.56 0.60 0.52 0.39 0.28 0.41 0.56 0.56 0.47 0.42 0.45 0.53 0.56 0.63 0.65 0.44 0.32 0.26 0.25 0.41 0.46 0.44 0.48 0.50 0.48 0.44 0.42 0.35 0.27 0.23 0.20 0.20 0.18 0.13 0.12 0.17 0.21 0.16 0.11 0.07 0.06 0.02 0.01
0.68 0.63 0.57 0.45 0.41 0.47 0.51 0.44 0.36 0.38 0.40 0.41 0.35 0.33 0.35 0.33 0.31 0.21 0.15 0.20 0.31 0.32 0.36 0.44 0.50 0.49 0.53 0.51 0.42 0.33 0.27 0.23 0.19 0.15 0.09 0.08 0.14 0.16 0.17 0.20 0.28 0.09 0.02
0.55 0.55 0.48 0.42 0.45 0.41 0.37 0.32 0.26 0.22 0.21 0.19 0.12 0.09 0.09 0.10 0.10 0.08 0.07 0.06 0.12 0.22 0.27 0.33 0.39 0.42 0.46 0.55 0.54 0.41 0.30 0.24 0.19 0.15 0.11 0.09 0.07 0.07 0.11 0.15 0.19 0.09 0.04
0.28 0.28 0.25 0.25 0.23 0.22 0.23 0.18 0.14 0.10 0.09 0.07 0.05 0.03 0.03 0.03 0.04 0.04 0.04 0.03 0.04 0.10 0.26 0.35 0.39 0.38 0.42 0.51 0.56 0.45 0.30 0.23 0.17 0.14 0.13 0.10 0.09 0.06 0.05 0.08 0.08 0.06 0.03
0.14 0.14 0.13 0.12 0.11 0.12 0.13 0.09 0.06 0.05 0.03 0.03 0.02 0.02 0.02 0.02 0.03 0.03 0.03 0.04 0.04 0.05 0.09 0.16 0.28 0.32 0.38 0.46 0.58 0.64 0.48 0.30 0.19 0.17 0.18 0.18 0.14 0.09 0.07 0.09 0.08 0.05 0.05
0.09 0.06 0.04 0.03 0.02 0.02 0.03 0.05 0.06 0.06 0.04 0.04 0.03 0.02 0.03 0.02 0.02 0.06 0.06 0.03 0.03 0.04 0.06 0.07 0.14 0.20 0.29 0.39 0.49 0.55 0.53 0.44 0.31 0.23 0.23 0.22 0.18 0.09 0.03 0.02 0.03 0.04 0.05
0.06 0.04 0.01 0.00 0.00 0.00 0.00 0.00 0.01 0.02 0.02 0.03 0.04 0.02 0.02 0.02 0.03 0.06 0.06 0.02 0.04 0.11 0.15 0.11 0.12 0.23 0.29 0.30 0.29 0.33 0.41 0.47 0.42 0.35 0.31 0.30 0.28 0.18 0.06 0.02 0.01 0.02 0.04
0.05 0.04 0.01 0.00 0.00 0.00 0.00 0.00 0.00 0.00 0.00 0.00 0.01 0.01 0.00 0.00 0.01 0.03 0.06 0.07 0.08 0.15 0.19 0.18 0.20 0.24 0.24 0.25 0.26 0.23 0.30 0.34 0.39 0.41 0.38 0.34 0.34 0.28 0.19 0.09 0.04 0.03 0.03
0.04 0.03 0.02 0.01 0.00 0.00 0.00 0.00 0.00 0.01 0.00 0.00 0.00 0.01 0.01 0.00 0.00 0.02 0.06 0.09 0.11 0.14 0.14 0.17 0.18 0.18 0.22 0.21 0.20 0.19 0.23 0.24 0.32 0.45 0.49 0.44 0.39 0.39 0.37 0.30 0.19 0.11 0.08
0.06 0.04 0.03 0.02 0.01 0.00 0.00 0.00 0.00 0.01 0.01 0.01 0.01 0.01 0.02 0.03 0.04 0.03 0.05 0.11 0.14 0.13 0.12 0.12 0.11 0.14 0.19 0.20 0.22 0.22 0.19 0.20 0.29 0.46 0.53 0.52 0.49 0.46 0.48 0.51 0.56 0.49 0.33
0.12 0.08 0.06 0.06 0.05 0.02 0.01 0.00 0.01 0.01 0.02 0.02 0.03 0.03 0.03 0.04 0.08 0.10 0.05 0.07 0.13 0.08 0.06 0.05 0.04 0.07 0.11 0.17 0.24 0.27 0.22 0.26 0.32 0.41 0.46 0.49 0.51 0.53 0.56 0.59 0.73 0.82 0.79
0.24 0.20 0.17 0.17 0.18 0.12 0.06 0.03 0.02 0.02 0.03 0.04 0.06 0.06 0.05 0.04 0.05 0.10 0.10 0.09 0.08 0.03 0.04 0.07 0.08 0.11 0.15 0.26 0.30 0.26 0.30 0.34 0.35 0.37 0.40 0.41 0.42 0.45 0.54 0.63 0.71 0.80 0.87
0.26 0.26 0.24 0.26 0.27 0.24 0.18 0.10 0.05 0.03 0.03 0.04 0.05 0.04 0.04 0.04 0.05 0.08 0.08 0.07 0.06 0.07 0.10 0.12 0.16 0.23 0.31 0.46 0.38 0.35 0.34 0.35 0.35 0.37 0.37 0.36 0.36 0.37 0.39 0.48 0.57 0.65 0.74
0.29 0.26 0.23 0.23 0.23 0.24 0.22 0.17 0.10 0.06 0.04 0.04 0.03 0.07 0.11 0.08 0.09 0.07 0.06 0.07 0.09 0.13 0.17 0.17 0.23 0.35 0.50 0.57 0.54 0.38 0.23 0.17 0.14 0.15 0.16 0.19 0.21 0.22 0.26 0.30 0.36 0.43 0.49
0.26 0.24 0.21 0.19 0.18 0.20 0.21 0.19 0.14 0.09 0.05 0.03 0.03 0.08 0.14 0.14 0.13 0.13 0.13 0.15 0.21 0.17 0.21 0.30 0.37 0.45 0.45 0.48 0.40 0.30 0.12 0.08 0.08 0.07 0.06 0.08 0.09 0.10 0.12 0.14 0.15 0.20 0.27
0.21 0.19 0.16 0.13 0.12 0.13 0.14 0.15 0.14 0.13 0.10 0.08 0.08 0.10 0.15 0.18 0.17 0.19 0.21 0.24 0.31 0.29 0.28 0.35 0.43 0.45 0.36 0.26 0.19 0.19 0.12 0.08 0.06 0.05 0.04 0.03 0.03 0.04 0.03 0.04 0.04 0.04 0.07
0.19 0.17 0.15 0.12 0.10 0.10 0.12 0.13 0.14 0.15 0.14 0.12 0.09 0.09 0.13 0.19 0.21 0.22 0.26 0.29 0.31 0.36 0.32 0.30 0.36 0.32 0.27 0.18 0.13 0.11 0.07 0.05 0.04 0.04 0.03 0.02 0.01 0.02 0.02 0.01 0.01 0.01 0.01
0.19 0.19 0.17 0.14 0.10 0.08 0.09 0.09 0.11 0.14 0.18 0.17 0.15 0.14 0.12 0.13 0.15 0.14 0.15 0.21 0.28 0.38 0.39 0.25 0.21 0.22 0.21 0.18 0.15 0.12 0.09 0.05 0.04 0.06 0.05 0.03 0.01 0.01 0.01 0.01 0.01 0.01 0.01
0.13 0.16 0.16 0.14 0.11 0.10 0.08 0.06 0.07 0.09 0.13 0.15 0.17 0.21 0.19 0.17 0.14 0.06 0.03 0.06 0.15 0.30 0.38 0.28 0.21 0.22 0.21 0.18 0.15 0.12 0.10 0.07 0.04 0.04 0.04 0.03 0.02 0.01 0.00 0.00 0.00 0.00 0.00
0.06 0.10 0.13 0.14 0.13 0.11 0.09 0.08 0.07 0.07 0.07 0.09 0.14 0.17 0.16 0.16 0.15 0.09 0.03 0.02 0.08 0.17 0.23 0.25 0.29 0.38 0.34 0.23 0.15 0.13 0.11 0.08 0.05 0.03 0.02 0.01 0.00 0.00 0.00 0.00 0.00 0.00 0.00
0.04 0.08 0.13 0.14 0.13 0.11 0.09 0.09 0.09 0.07 0.07 0.07 0.09 0.12 0.10 0.10 0.09 0.07 0.04 0.04 0.07 0.12 0.21 0.28 0.44 0.70 0.66 0.46 0.26 0.14 0.11 0.09 0.06 0.03 0.02 0.01 0.00 0.00 0.00 0.00 0.00 0.00 0.00
0.04 0.06 0.10 0.13 0.12 0.11 0.09 0.07 0.07 0.08 0.09 0.09 0.11 0.11 0.09 0.07 0.07 0.06 0.05 0.04 0.04 0.07 0.17 0.30 0.47 0.63 0.66 0.55 0.36 0.21 0.11 0.07 0.08 0.07 0.04 0.02 0.01 0.00 0.00 0.00 0.00 0.00 0.00
0.05 0.06 0.07 0.11 0.12 0.13 0.12 0.07 0.06 0.08 0.09 0.11 0.13 0.14 0.11 0.07 0.06 0.06 0.05 0.04 0.03 0.03 0.07 0.15 0.32 0.49 0.55 0.50 0.35 0.23 0.14 0.10 0.08 0.06 0.04 0.02 0.00 0.00 0.00 0.00 0.00 0.00 0.00
0.07 0.06 0.06 0.08 0.11 0.15 0.17 0.13 0.09 0.08 0.11 0.12 0.13 0.13 0.12 0.09 0.06 0.04 0.04 0.03 0.02 0.02 0.04 0.08 0.17 0.28 0.33 0.31 0.26 0.22 0.19 0.16 0.12 0.09 0.04 0.03 0.01 0.00 0.00 0.00 0.00 0.00 0.00
0.09 0.06 0.05 0.05 0.09 0.14 0.17 0.16 0.14 0.10 0.11 0.14 0.15 0.16 0.15 0.11 0.08 0.06 0.03 0.02 0.02 0.02 0.04 0.06 0.10 0.15 0.18 0.19 0.17 0.18 0.19 0.15 0.14 0.11 0.04 0.02 0.01 0.01 0.01 0.01 0.00 0.00 0.00
0.11 0.08 0.05 0.04 0.06 0.14 0.19 0.18 0.17 0.13 0.13 0.16 0.21 0.23 0.22 0.17 0.12 0.08 0.05 0.03 0.02 0.01 0.01 0.02 0.05 0.09 0.11 0.13 0.14 0.11 0.10 0.09 0.07 0.07 0.04 0.02 0.01 0.03 0.04 0.01 0.00 0.00 0.00

GEFSMA_prec_meanprecacc_024.txt.gz
Total_Precipitation_Accumulation
0.73 0.78 0.66 0.52 0.38 0.51 0.67 0.67 0.58 0.54 0.56 0.65 0.72 0.77 0.76 0.52 0.35 0.28 0.27 0.42 0.50 0.51 0.56 0.59 0.60 0.57 0.58 0.53 0.48 0.46 0.41 0.39 0.35 0.29 0.25 0.23 0.25 0.22 0.18 0.10 0.06 0.02 0.01
0.88 0.83 0.74 0.62 0.57 0.67 0.79 0.70 0.60 0.62 0.62 0.61 0.49 0.44 0.45 0.43 0.38 0.26 0.18 0.24 0.35 0.36 0.41 0.50 0.57 0.59 0.66 0.67 0.60 0.54 0.48 0.43 0.35 0.28 0.23 0.19 0.20 0.20 0.25 0.29 0.34 0.11 0.02
0.78 0.81 0.73 0.64 0.67 0.68 0.67 0.61 0.56 0.54 0.47 0.40 0.29 0.23 0.21 0.20 0.18 0.15 0.10 0.09 0.15 0.24 0.28 0.35 0.43 0.46 0.52 0.64 0.66 0.55 0.45 0.38 0.31 0.24 0.20 0.18 0.15 0.11 0.14 0.23 0.30 0.15 0.06
0.60 0.61 0.53 0.49 0.47 0.48 0.45 0.40 0.37 0.37 0.37 0.37 0.32 0.25 0.22 0.19 0.14 0.10 0.08 0.06 0.07 0.11 0.26 0.36 0.40 0.39 0.44 0.54 0.63 0.56 0.41 0.32 0.25 0.21 0.19 0.16 0.15 0.11 0.08 0.10 0.14 0.14 0.09
0.50 0.51 0.44 0.37 0.31 0.29 0.27 0.22 0.21 0.22 0.22 0.24 0.23 0.22 0.20 0.19 0.14 0.10 0.08 0.07 0.07 0.07 0.10 0.18 0.29 0.32 0.38 0.47 0.62 0.72 0.60 0.40 0.29 0.26 0.28 0.28 0.21 0.14 0.10 0.11 0.09 0.10 0.11
0.45 0.40 0.33 0.26 0.19 0.16 0.13 0.13 0.14 0.15 0.13 0.13 0.10 0.09 0.10 0.08 0.07 0.09 0.07 0.04 0.04 0.05 0.06 0.07 0.14 0.20 0.29 0.39 0.51 0.61 0.64 0.56 0.42 0.34 0.35 0.35 0.30 0.19 0.08 0.04 0.04 0.05 0.09
0.41 0.34 0.25 0.19 0.14 0.10 0.06 0.05 0.05 0.06 0.06 0.07 0.07 0.05 0.04 0.03 0.04 0.06 0.06 0.03 0.04 0.11 0.15 0.12 0.13 0.23 0.29 0.30 0.30 0.35 0.46 0.55 0.53 0.45 0.41 0.40 0.40 0.28 0.14 0.07 0.03 0.03 0.05
0.32 0.29 0.23 0.17 0.13 0.09 0.05 0.03 0.03 0.02 0.02 0.02 0.02 0.02 0.01 0.01 0.01 0.03 0.06 0.07 0.08 0.15 0.19 0.18 0.20 0.25 0.24 0.26 0.26 0.23 0.31 0.37 0.46 0.49 0.45 0.40 0.40 0.35 0.25 0.15 0.09 0.05 0.05
0.20 0.20 0.19 0.17 0.12 0.08 0.06 0.04 0.02 0.02 0.01 0.01 0.00 0.01 0.01 0.00 0.00 0.02 0.06 0.09 0.11 0.14 0.14 0.17 0.18 0.18 0.23 0.22 0.21 0.19 0.24 0.24 0.35 0.51 0.56 0.50 0.43 0.42 0.40 0.34 0.25 0.15 0.10
0.14 0.13 0.14 0.14 0.12 0.10 0.08 0.05 0.03 0.03 0.02 0.01 0.01 0.01 0.02 0.03 0.04 0.03 0.05 0.11 0.14 0.13 0.12 0.12 0.11 0.14 0.19 0.20 0.22 0.22 0.19 0.20 0.30 0.49 0.59 0.58 0.52 0.48 0.50 0.54 0.61 0.56 0.39
0.19 0.17 0.15 0.15 0.12 0.12 0.11 0.08 0.06 0.05 0.04 0.03 0.03 0.03 0.03 0.04 0.08 0.10 0.05 0.07 0.13 0.08 0.06 0.05 0.04 0.07 0.11 0.17 0.25 0.27 0.22 0.26 0.32 0.41 0.48 0.54 0.56 0.57 0.59 0.63 0.78 0.90 0.88
0.28 0.27 0.26 0.28 0.29 0.22 0.14 0.10 0.08 0.07 0.06 0.06 0.06 0.06 0.05 0.04 0.05 0.10 0.10 0.09 0.08 0.03 0.04 0.07 0.08 0.11 0.15 0.27 0.31 0.27 0.30 0.34 0.35 0.37 0.41 0.43 0.45 0.49 0.58 0.68 0.78 0.89 0.96
0.27 0.29 0.29 0.33 0.36 0.35 0.29 0.21 0.13 0.09 0.08 0.07 0.06 0.05 0.04 0.04 0.05 0.08 0.08 0.07 0.07 0.07 0.10 0.12 0.16 0.23 0.31 0.47 0.38 0.35 0.35 0.35 0.35 0.37 0.38 0.36 0.37 0.39 0.43 0.52 0.64 0.75 0.87
0.29 0.27 0.25 0.25 0.27 0.30 0.31 0.27 0.21 0.16 0.12 0.10 0.07 0.09 0.11 0.09 0.09 0.07 0.06 0.08 0.09 0.13 0.17 0.17 0.23 0.36 0.51 0.58 0.54 0.38 0.23 0.18 0.15 0.15 0.17 0.20 0.22 0.25 0.30 0.34 0.41 0.52 0.62
0.26 0.24 0.22 0.19 0.19 0.22 0.25 0.26 0.24 0.23 0.19 0.14 0.12 0.14 0.16 0.15 0.13 0.13 0.13 0.15 0.22 0.17 0.21 0.30 0.38 0.46 0.46 0.49 0.40 0.31 0.12 0.09 0.10 0.08 0.07 0.08 0.11 0.14 0.17 0.19 0.22 0.29 0.38
0.21 0.19 0.16 0.13 0.12 0.13 0.15 0.19 0.22 0.25 0.29 0.30 0.27 0.23 0.23 0.22 0.20 0.20 0.22 0.24 0.32 0.29 0.29 0.35 0.43 0.46 0.37 0.26 0.19 0.19 0.12 0.09 0.07 0.06 0.05 0.05 0.06 0.07 0.07 0.09 0.10 0.11 0.14
0.19 0.18 0.15 0.13 0.10 0.10 0.12 0.14 0.18 0.24 0.30 0.38 0.44 0.41 0.33 0.32 0.30 0.27 0.29 0.30 0.32 0.36 0.33 0.30 0.37 0.34 0.28 0.19 0.13 0.11 0.08 0.06 0.04 0.05 0.04 0.03 0.04 0.05 0.05 0.06 0.08 0.07 0.06
0.20 0.19 0.17 0.14 0.10 0.08 0.09 0.10 0.12 0.17 0.25 0.35 0.50 0.64 0.60 0.48 0.36 0.27 0.24 0.24 0.30 0.39 0.40 0.26 0.23 0.24 0.23 0.20 0.16 0.13 0.09 0.05 0.04 0.07 0.07 0.06 0.05 0.05 0.05 0.04 0.05 0.05 0.06
0.14 0.16 0.16 0.15 0.12 0.10 0.09 0.07 0.07 0.09 0.14 0.20 0.32 0.54 0.72 0.79 0.63 0.37 0.22 0.18 0.22 0.33 0.39 0.30 0.24 0.25 0.23 0.19 0.16 0.13 0.10 0.07 0.05 0.06 0.07 0.06 0.05 0.05 0.04 0.03 0.03 0.02 0.02
0.07 0.11 0.15 0.15 0.14 0.12 0.10 0.08 0.08 0.07 0.08 0.11 0.19 0.28 0.42 0.61 0.72 0.66 0.43 0.26 0.23 0.26 0.28 0.28 0.32 0.41 0.37 0.24 0.17 0.14 0.12 0.09 0.06 0.03 0.04 0.03 0.02 0.02 0.01 0.01 0.01 0.01 0.01
0.06 0.10 0.15 0.16 0.15 0.13 0.09 0.09 0.10 0.08 0.08 0.08 0.11 0.16 0.19 0.28 0.41 0.53 0.55 0.47 0.36 0.28 0.30 0.32 0.47 0.73 0.68 0.48 0.27 0.15 0.11 0.10 0.07 0.04 0.03 0.02 0.01 0.01 0.01 0.01 0.01 0.01 0.01
0.08 0.11 0.15 0.18 0.17 0.12 0.10 0.08 0.08 0.10 0.11 0.12 0.13 0.14 0.13 0.14 0.19 0.29 0.39 0.44 0.44 0.36 0.32 0.37 0.51 0.66 0.68 0.56 0.37 0.21 0.12 0.08 0.09 0.08 0.04 0.03 0.01 0.01 0.00 0.00 0.00 0.00 0.00
0.11 0.12 0.14 0.20 0.23 0.22 0.17 0.09 0.07 0.10 0.13 0.15 0.17 0.18 0.14 0.09 0.10 0.16 0.23 0.30 0.33 0.31 0.29 0.30 0.42 0.55 0.60 0.52 0.37 0.23 0.15 0.11 0.08 0.07 0.05 0.03 0.01 0.00 0.00 0.00 0.00 0.00 0.00
0.14 0.14 0.15 0.19 0.26 0.27 0.25 0.17 0.11 0.11 0.15 0.16 0.18 0.18 0.17 0.12 0.08 0.08 0.13 0.18 0.22 0.23 0.22 0.20 0.27 0.40 0.44 0.38 0.29 0.24 0.20 0.17 0.14 0.10 0.04 0.03 0.01 0.00 0.00 0.00 0.00 0.00 0.00
0.17 0.15 0.14 0.17 0.23 0.28 0.27 0.21 0.16 0.15 0.16 0.18 0.19 0.20 0.19 0.16 0.11 0.06 0.06 0.10 0.15 0.18 0.20 0.18 0.18 0.25 0.29 0.26 0.22 0.20 0.21 0.17 0.17 0.14 0.05 0.02 0.01 0.01 0.01 0.01 0.00 0.00 0.00
0.21 0.17 0.14 0.15 0.18 0.28 0.31 0.23 0.20 0.17 0.17 0.20 0.26 0.27 0.24 0.19 0.15 0.09 0.06 0.06 0.08 0.12 0.15 0.15 0.13 0.14 0.16 0.17 0.17 0.14 0.13 0.11 0.11 0.10 0.05 0.02 0.02 0.03 0.04 0.01 0.00 0.00 0.00

GEFSMA_prec_meanprecacc_030.txt.gz
Total_Precipitation_Accumulation
0.98 1.05 0.90 0.73 0.54 0.68 0.88 0.84 0.70 0.70 0.73 0.81 0.85 0.89 0.86 0.60 0.40 0.33 0.38 0.57 0.57 0.54 0.57 0.60 0.61 0.58 0.60 0.55 0.52 0.50 0.49 0.50 0.48 0.43 0.36 0.30 0.28 0.24 0.20 0.11 0.07 0.03 0.01
1.12 1.12 1.03 0.90 0.81 0.88 1.00 0.94 0.81 0.88 0.87 0.84 0.63 0.56 0.58 0.58 0.50 0.34 0.30 0.42 0.48 0.41 0.44 0.52 0.59 0.60 0.68 0.69 0.62 0.57 0.53 0.51 0.44 0.36 0.34 0.31 0.26 0.23 0.27 0.31 0.36 0.11 0.02
0.97 1.05 1.02 0.97 0.99 1.01 1.00 0.90 0.83 0.89 0.77 0.62 0.49 0.43 0.43 0.42 0.40 0.36 0.27 0.29 0.39 0.38 0.34 0.39 0.45 0.48 0.55 0.68 0.70 0.59 0.48 0.42 0.35 0.28 0.24 0.25 0.23 0.16 0.17 0.26 0.33 0.17 0.07
0.76 0.83 0.79 0.82 0.83 0.86 0.85 0.77 0.69 0.70 0.69 0.66 0.59 0.47 0.50 0.48 0.44 0.44 0.39 0.34 0.34 0.34 0.47 0.48 0.46 0.42 0.47 0.59 0.68 0.61 0.46 0.36 0.28 0.24 0.21 0.18 0.18 0.15 0.12 0.14 0.17 0.16 0.10
0.68 0.74 0.72 0.70 0.67 0.67 0.66 0.60 0.59 0.59 0.58 0.57 0.50 0.46 0.45 0.44 0.40 0.38 0.44 0.36 0.37 0.33 0.39 0.41 0.39 0.37 0.42 0.49 0.66 0.80 0.68 0.46 0.32 0.28 0.32 0.31 0.24 0.17 0.15 0.17 0.13 0.12 0.12
0.60 0.59 0.56 0.52 0.48 0.46 0.45 0.46 0.51 0.53 0.48 0.46 0.34 0.32 0.33 0.28 0.28 0.31 0.29 0.23 0.26 0.27 0.30 0.31 0.31 0.25 0.32 0.41 0.55 0.67 0.72 0.64 0.47 0.37 0.39 0.41 0.36 0.24 0.13 0.11 0.10 0.10 0.10
0.51 0.46 0.40 0.39 0.35 0.32 0.32 0.32 0.35 0.38 0.35 0.34 0.32 0.26 0.21 0.18 0.18 0.20 0.17 0.14 0.16 0.25 0.29 0.27 0.24 0.31 0.33 0.32 0.31 0.37 0.50 0.61 0.58 0.48 0.44 0.45 0.46 0.34 0.18 0.12 0.09 0.09 0.08
0.40 0.38 0.36 0.35 0.33 0.30 0.26 0.27 0.28 0.26 0.24 0.24 0.23 0.18 0.13 0.12 0.12 0.09 0.13 0.13 0.13 0.23 0.28 0.25 0.23 0.28 0.26 0.27 0.27 0.24 0.32 0.41 0.51 0.53 0.49 0.43 0.44 0.39 0.29 0.20 0.14 0.11 0.09
0.26 0.29 0.32 0.35 0.34 0.30 0.27 0.26 0.24 0.21 0.18 0.16 0.16 0.13 0.09 0.06 0.06 0.07 0.10 0.13 0.13 0.17 0.17 0.19 0.20 0.19 0.23 0.22 0.21 0.20 0.24 0.25 0.38 0.55 0.59 0.52 0.45 0.44 0.43 0.38 0.29 0.20 0.14
0.16 0.18 0.23 0.29 0.29 0.30 0.29 0.22 0.21 0.24 0.21 0.14 0.13 0.12 0.08 0.08 0.10 0.08 0.10 0.13 0.16 0.15 0.13 0.12 0.12 0.15 0.19 0.20 0.23 0.22 0.20 0.21 0.31 0.51 0.62 0.60 0.54 0.49 0.53 0.57 0.65 0.61 0.42
0.20 0.17 0.17 0.22 0.26 0.32 0.36 0.32 0.29 0.26 0.23 0.17 0.14 0.16 0.13 0.08 0.11 0.13 0.10 0.11 0.15 0.09 0.06 0.05 0.04 0.07 0.11 0.17 0.25 0.28 0.22 0.26 0.33 0.42 0.50 0.56 0.58 0.59 0.60 0.65 0.83 0.98 0.97
0.28 0.27 0.27 0.29 0.33 0.32 0.33 0.34 0.36 0.33 0.29 0.25 0.17 0.17 0.22 0.13 0.07 0.11 0.11 0.12 0.12 0.04 0.04 0.07 0.08 0.11 0.15 0.27 0.31 0.27 0.30 0.34 0.35 0.38 0.41 0.43 0.47 0.52 0.60 0.71 0.83 0.97 1.09
0.27 0.29 0.29 0.33 0.37 0.36 0.34 0.32 0.32 0.36 0.40 0.37 0.26 0.17 0.16 0.17 0.12 0.09 0.08 0.07 0.08 0.08 0.11 0.13 0.16 0.24 0.31 0.48 0.40 0.35 0.35 0.35 0.35 0.37 0.38 0.36 0.37 0.40 0.44 0.54 0.68 0.82 0.98
0.29 0.27 0.25 0.25 0.27 0.31 0.32 0.29 0.26 0.27 0.32 0.39 0.38 0.35 0.30 0.19 0.17 0.11 0.08 0.09 0.11 0.15 0.19 0.18 0.24 0.36 0.51 0.59 0.55 0.38 0.24 0.18 0.15 0.15 0.17 0.20 0.22 0.25 0.30 0.35 0.43 0.55 0.66
0.26 0.24 0.22 0.20 0.19 0.22 0.26 0.27 0.25 0.26 0.26 0.27 0.33 0.43 0.43 0.32 0.24 0.19 0.17 0.17 0.25 0.22 0.26 0.36 0.41 0.48 0.46 0.49 0.40 0.32 0.13 0.09 0.10 0.08 0.07 0.08 0.11 0.14 0.18 0.20 0.23 0.30 0.39
0.21 0.19 0.16 0.13 0.13 0.13 0.16 0.20 0.23 0.27 0.31 0.34 0.36 0.41 0.49 0.50 0.43 0.36 0.32 0.30 0.36 0.34 0.36 0.43 0.50 0.48 0.38 0.26 0.19 0.20 0.12 0.09 0.07 0.06 0.05 0.05 0.06 0.07 0.07 0.10 0.11 0.12 0.15
0.20 0.18 0.16 0.13 0.11 0.11 0.13 0.16 0.19 0.25 0.31 0.40 0.49 0.50 0.48 0.58 0.62 0.56 0.52 0.46 0.44 0.45 0.42 0.41 0.48 0.42 0.31 0.19 0.14 0.12 0.08 0.06 0.04 0.05 0.04 0.03 0.04 0.05 0.05 0.06 0.08 0.08 0.08
0.20 0.20 0.18 0.16 0.11 0.09 0.10 0.12 0.14 0.18 0.26 0.36 0.52 0.68 0.69 0.64 0.61 0.57 0.54 0.53 0.53 0.57 0.54 0.43 0.41 0.37 0.31 0.25 0.19 0.14 0.09 0.05 0.04 0.08 0.08 0.06 0.05 0.05 0.05 0.04 0.05 0.06 0.07
0.15 0.18 0.18 0.17 0.15 0.13 0.11 0.10 0.10 0.12 0.17 0.22 0.34 0.57 0.76 0.89 0.82 0.62 0.51 0.47 0.51 0.59 0.60 0.51 0.44 0.43 0.37 0.28 0.20 0.14 0.11 0.07 0.05 0.06 0.07 0.06 0.06 0.05 0.04 0.03 0.03 0.03 0.03
0.08 0.13 0.17 0.19 0.17 0.16 0.14 0.12 0.12 0.12 0.13 0.14 0.21 0.31 0.44 0.65 0.82 0.86 0.73 0.58 0.54 0.57 0.57 0.53 0.56 0.63 0.55 0.37 0.21 0.15 0.13 0.09 0.06 0.03 0.04 0.03 0.03 0.02 0.02 0.02 0.02 0.02 0.02
0.07 0.13 0.19 0.21 0.20 0.18 0.12 0.13 0.16 0.13 0.14 0.14 0.15 0.19 0.22 0.30 0.44 0.61 0.73 0.77 0.72 0.63 0.62 0.61 0.74 0.98 0.88 0.61 0.33 0.17 0.13 0.10 0.07 0.04 0.03 0.02 0.01 0.01 0.01 0.01 0.01 0.01 0.01
0.12 0.15 0.19 0.23 0.23 0.17 0.12 0.11 0.13 0.16 0.19 0.21 0.21 0.20 0.17 0.17 0.21 0.32 0.45 0.59 0.73 0.74 0.71 0.70 0.81 0.96 0.93 0.73 0.48 0.27 0.13 0.08 0.10 0.08 0.05 0.03 0.02 0.01 0.01 0.00 0.01 0.01 0.01
0.16 0.18 0.19 0.27 0.31 0.30 0.21 0.13 0.09 0.15 0.20 0.25 0.28 0.28 0.19 0.11 0.14 0.18 0.25 0.35 0.44 0.56 0.66 0.71 0.78 0.89 0.94 0.80 0.56 0.32 0.18 0.13 0.08 0.07 0.05 0.04 0.01 0.01 0.00 0.00 0.01 0.01 0.00
0.21 0.21 0.22 0.27 0.36 0.36 0.30 0.21 0.14 0.16 0.22 0.26 0.29 0.29 0.25 0.19 0.16 0.16 0.19 0.22 0.27 0.32 0.40 0.51 0.62 0.75 0.83 0.80 0.62 0.45 0.33 0.22 0.14 0.10 0.05 0.04 0.02 0.01 0.00 0.00 0.01 0.00 0.00
0.24 0.23 0.22 0.26 0.34 0.40 0.35 0.24 0.20 0.22 0.25 0.27 0.28 0.29 0.29 0.25 0.18 0.12 0.16 0.18 0.21 0.25 0.29 0.36 0.46 0.58 0.66 0.69 0.66 0.51 0.37 0.21 0.17 0.14 0.05 0.02 0.02 0.02 0.02 0.01 0.00 0.00 0.00
0.29 0.25 0.22 0.24 0.30 0.41 0.41 0.27 0.23 0.25 0.29 0.32 0.40 0.41 0.35 0.31 0.24 0.13 0.13 0.15 0.16 0.19 0.22 0.24 0.29 0.38 0.45 0.49 0.53 0.44 0.29 0.16 0.11 0.10 0.05 0.02 0.02 0.03 0.04 0.02 0.00 0.00 0.00

GEFSMA_prec_meanprecacc_036.txt.gz
Total_Precipitation_Accumulation
1.01 1.08 0.94 0.79 0.63 0.81 1.06 1.07 0.95 0.95 0.94 0.99 0.99 1.00 0.95 0.65 0.45 0.38 0.45 0.67 0.68 0.68 0.74 0.75 0.71 0.64 0.63 0.57 0.53 0.52 0.50 0.52 0.49 0.44 0.37 0.30 0.28 0.24 0.20 0.11 0.07 0.03 0.02
1.13 1.13 1.05 0.94 0.88 1.00 1.16 1.18 1.12 1.25 1.24 1.17 0.91 0.76 0.75 0.74 0.64 0.48 0.47 0.59 0.65 0.57 0.61 0.71 0.73 0.70 0.74 0.72 0.64 0.58 0.54 0.53 0.46 0.37 0.35 0.32 0.27 0.23 0.27 0.31 0.36 0.11 0.02
0.98 1.06 1.03 0.98 1.02 1.08 1.11 1.09 1.09 1.23 1.16 1.02 0.83 0.71 0.67 0.64 0.64 0.56 0.46 0.48 0.57 0.59 0.52 0.56 0.60 0.61 0.63 0.74 0.73 0.61 0.50 0.43 0.37 0.30 0.25 0.26 0.23 0.17 0.17 0.26 0.33 0.17 0.07
0.77 0.83 0.80 0.82 0.87 0.93 0.93 0.89 0.90 0.98 1.01 1.06 1.01 0.83 0.81 0.75 0.70 0.71 0.67 0.58 0.57 0.55 0.66 0.68 0.64 0.56 0.59 0.68 0.74 0.66 0.49 0.37 0.30 0.25 0.23 0.19 0.19 0.16 0.13 0.15 0.17 0.17 0.11
0.69 0.74 0.72 0.70 0.69 0.72 0.73 0.70 0.75 0.82 0.86 0.90 0.87 0.84 0.78 0.72 0.65 0.64 0.76 0.65 0.62 0.63 0.68 0.66 0.64 0.56 0.56 0.62 0.77 0.89 0.76 0.51 0.35 0.30 0.33 0.33 0.26 0.19 0.17 0.19 0.15 0.13 0.13
0.61 0.59 0.57 0.53 0.50 0.51 0.54 0.57 0.64 0.72 0.74 0.77 0.72 0.70 0.66 0.56 0.52 0.52 0.49 0.47 0.49 0.50 0.58 0.64 0.58 0.45 0.49 0.56 0.68 0.80 0.84 0.75 0.54 0.40 0.41 0.42 0.38 0.26 0.14 0.12 0.13 0.13 0.12
0.52 0.47 0.41 0.39 0.35 0.34 0.36 0.38 0.46 0.53 0.56 0.62 0.68 0.62 0.53 0.45 0.41 0.40 0.35 0.30 0.32 0.42 0.51 0.61 0.60 0.53 0.43 0.40 0.39 0.45 0.59 0.72 0.68 0.54 0.47 0.46 0.47 0.35 0.19 0.13 0.11 0.11 0.10
0.40 0.39 0.37 0.36 0.34 0.33 0.31 0.34 0.39 0.42 0.45 0.51 0.54 0.48 0.40 0.36 0.30 0.23 0.26 0.25 0.24 0.37 0.47 0.49 0.51 0.50 0.40 0.34 0.30 0.28 0.38 0.48 0.59 0.61 0.54 0.46 0.46 0.40 0.29 0.20 0.14 0.11 0.10
0.26 0.29 0.33 0.36 0.35 0.31 0.29 0.30 0.32 0.32 0.32 0.35 0.41 0.41 0.33 0.25 0.21 0.20 0.22 0.22 0.22 0.27 0.32 0.43 0.43 0.34 0.35 0.30 0.26 0.22 0.28 0.30 0.44 0.63 0.66 0.57 0.48 0.46 0.44 0.38 0.29 0.20 0.15
0.16 0.18 0.24 0.29 0.30 0.31 0.30 0.24 0.24 0.29 0.29 0.26 0.27 0.30 0.25 0.23 0.24 0.23 0.22 0.23 0.26 0.25 0.24 0.29 0.33 0.32 0.29 0.27 0.26 0.24 0.21 0.22 0.35 0.57 0.70 0.67 0.58 0.51 0.54 0.58 0.67 0.62 0.43
0.20 0.17 0.17 0.22 0.27 0.33 0.38 0.34 0.31 0.29 0.27 0.23 0.23 0.29 0.27 0.20 0.21 0.24 0.23 0.22 0.24 0.17 0.14 0.15 0.16 0.20 0.20 0.22 0.28 0.29 0.23 0.28 0.35 0.46 0.55 0.61 0.62 0.61 0.63 0.69 0.89 1.06 1.03
0.28 0.27 0.27 0.30 0.33 0.33 0.34 0.36 0.39 0.37 0.35 0.31 0.24 0.26 0.38 0.33 0.20 0.22 0.22 0.24 0.22 0.10 0.09 0.13 0.15 0.16 0.20 0.29 0.32 0.27 0.31 0.35 0.36 0.39 0.43 0.46 0.50 0.54 0.62 0.73 0.88 1.06 1.20
0.27 0.29 0.29 0.33 0.37 0.37 0.34 0.32 0.33 0.38 0.44 0.43 0.33 0.25 0.28 0.39 0.33 0.24 0.22 0.19 0.19 0.16 0.17 0.18 0.21 0.27 0.33 0.49 0.40 0.36 0.36 0.36 0.36 0.37 0.38 0.37 0.39 0.42 0.46 0.56 0.70 0.87 1.06
0.29 0.27 0.25 0.25 0.27 0.31 0.32 0.29 0.26 0.27 0.33 0.42 0.44 0.44 0.40 0.33 0.40 0.32 0.24 0.23 0.24 0.27 0.31 0.27 0.31 0.41 0.53 0.60 0.56 0.39 0.25 0.19 0.15 0.16 0.17 0.20 0.22 0.25 0.31 0.36 0.44 0.56 0.69
0.26 0.24 0.22 0.20 0.19 0.22 0.26 0.27 0.25 0.26 0.26 0.28 0.36 0.48 0.50 0.40 0.37 0.36 0.33 0.34 0.42 0.37 0.40 0.48 0.53 0.56 0.51 0.52 0.42 0.33 0.14 0.10 0.10 0.08 0.07 0.09 0.11 0.14 0.18 0.20 0.23 0.30 0.40
0.21 0.19 0.16 0.13 0.13 0.14 0.16 0.20 0.23 0.27 0.32 0.35 0.36 0.42 0.53 0.57 0.50 0.47 0.46 0.47 0.55 0.51 0.49 0.54 0.60 0.60 0.48 0.31 0.21 0.21 0.13 0.10 0.08 0.06 0.05 0.05 0.06 0.07 0.08 0.10 0.11 0.13 0.16
0.20 0.19 0.16 0.14 0.11 0.11 0.13 0.16 0.20 0.25 0.32 0.41 0.49 0.50 0.49 0.60 0.68 0.64 0.62 0.61 0.62 0.63 0.58 0.54 0.63 0.60 0.46 0.27 0.17 0.14 0.09 0.06 0.05 0.05 0.04 0.03 0.04 0.05 0.05 0.06 0.08 0.08 0.08
0.20 0.20 0.18 0.16 0.11 0.09 0.10 0.12 0.14 0.19 0.27 0.37 0.53 0.68 0.70 0.65 0.63 0.62 0.62 0.63 0.66 0.74 0.71 0.60 0.60 0.59 0.50 0.37 0.26 0.17 0.10 0.06 0.04 0.08 0.08 0.06 0.05 0.05 0.05 0.04 0.05 0.06 0.07
0.15 0.18 0.18 0.17 0.15 0.13 0.11 0.10 0.11 0.13 0.18 0.23 0.36 0.59 0.77 0.90 0.82 0.64 0.55 0.54 0.61 0.74 0.79 0.71 0.68 0.72 0.66 0.49 0.29 0.17 0.12 0.08 0.05 0.06 0.07 0.07 0.06 0.05 0.04 0.04 0.03 0.03 0.03
0.08 0.13 0.17 0.19 0.18 0.16 0.14 0.12 0.12 0.13 0.13 0.16 0.23 0.33 0.46 0.66 0.82 0.87 0.74 0.61 0.61 0.68 0.74 0.75 0.83 0.98 0.91 0.68 0.37 0.21 0.15 0.10 0.06 0.04 0.04 0.04 0.04 0.03 0.03 0.02 0.02 0.02 0.02
0.07 0.13 0.19 0.21 0.20 0.18 0.12 0.13 0.16 0.14 0.15 0.15 0.18 0.22 0.25 0.33 0.46 0.62 0.74 0.79 0.75 0.69 0.74 0.79 0.99 1.33 1.26 0.92 0.48 0.25 0.18 0.13 0.08 0.05 0.03 0.03 0.02 0.01 0.02 0.02 0.02 0.02 0.02
0.12 0.15 0.19 0.23 0.23 0.17 0.12 0.11 0.13 0.16 0.20 0.24 0.24 0.22 0.20 0.20 0.24 0.34 0.46 0.60 0.74 0.77 0.77 0.82 0.99 1.25 1.28 1.05 0.72 0.41 0.21 0.13 0.12 0.09 0.05 0.04 0.02 0.02 0.01 0.01 0.02 0.02 0.01
0.17 0.18 0.19 0.27 0.31 0.30 0.21 0.13 0.10 0.15 0.21 0.26 0.30 0.31 0.21 0.13 0.17 0.21 0.28 0.36 0.45 0.57 0.70 0.78 0.91 1.08 1.27 1.22 0.91 0.50 0.28 0.19 0.12 0.08 0.06 0.05 0.03 0.01 0.01 0.02 0.03 0.02 0.01
0.21 0.21 0.22 0.27 0.36 0.36 0.30 0.21 0.14 0.16 0.23 0.26 0.30 0.31 0.28 0.21 0.20 0.21 0.24 0.25 0.28 0.33 0.41 0.54 0.68 0.89 1.09 1.23 1.15 0.81 0.53 0.34 0.20 0.13 0.05 0.04 0.03 0.02 0.01 0.01 0.03 0.03 0.01
0.24 0.23 0.23 0.26 0.35 0.40 0.35 0.25 0.21 0.22 0.26 0.28 0.30 0.32 0.33 0.28 0.21 0.18 0.23 0.23 0.24 0.26 0.30 0.37 0.49 0.67 0.86 1.04 1.17 1.06 0.69 0.36 0.26 0.20 0.07 0.03 0.02 0.02 0.03 0.02 0.02 0.03 0.02
0.29 0.26 0.22 0.25 0.30 0.42 0.41 0.28 0.24 0.25 0.30 0.33 0.42 0.44 0.41 0.37 0.30 0.19 0.20 0.22 0.21 0.21 0.24 0.26 0.31 0.43 0.58 0.74 0.93 0.91 0.72 0.40 0.22 0.17 0.08 0.03 0.02 0.03 0.05 0.02 0.01 0.01 0.01

GEFSMA_prec_meanprecacc_042.txt.gz
Total_Precipitation_Accumulation
1.08 1.14 0.98 0.83 0.66 0.85 1.09 1.10 1.01 1.04 1.06 1.13 1.13 1.12 1.04 0.70 0.47 0.40 0.46 0.68 0.70 0.71 0.81 0.86 0.86 0.80 0.78 0.70 0.62 0.57 0.53 0.53 0.50 0.44 0.37 0.30 0.28 0.24 0.20 0.11 0.07 0.03 0.02
1.17 1.17 1.09 0.96 0.91 1.03 1.19 1.20 1.14 1.29 1.31 1.26 1.01 0.86 0.83 0.81 0.67 0.50 0.49 0.61 0.68 0.62 0.68 0.81 0.87 0.86 0.90 0.88 0.77 0.68 0.60 0.57 0.48 0.38 0.35 0.32 0.27 0.24 0.28 0.31 0.36 0.11 0.02
1.00 1.08 1.05 1.00 1.03 1.09 1.11 1.09 1.09 1.24 1.19 1.06 0.88 0.79 0.77 0.74 0.71 0.61 0.50 0.51 0.61 0.64 0.61 0.65 0.72 0.74 0.79 0.91 0.88 0.73 0.59 0.50 0.43 0.33 0.27 0.27 0.24 0.17 0.18 0.26 0.33 0.17 0.07
0.78 0.84 0.80 0.83 0.87 0.93 0.93 0.89 0.91 0.98 1.02 1.08 1.04 0.90 0.91 0.88 0.80 0.79 0.74 0.64 0.62 0.60 0.74 0.79 0.77 0.69 0.76 0.88 0.92 0.81 0.61 0.46 0.37 0.31 0.26 0.22 0.22 0.17 0.14 0.16 0.18 0.17 0.11
0.69 0.74 0.72 0.70 0.69 0.72 0.73 0.70 0.75 0.82 0.86 0.92 0.90 0.89 0.87 0.83 0.75 0.74 0.84 0.72 0.69 0.70 0.76 0.78 0.81 0.73 0.78 0.87 1.02 1.13 0.95 0.62 0.42 0.36 0.38 0.37 0.30 0.22 0.19 0.21 0.18 0.15 0.13
0.61 0.59 0.57 0.53 0.50 0.51 0.54 0.57 0.64 0.72 0.74 0.80 0.76 0.76 0.75 0.67 0.63 0.62 0.58 0.55 0.58 0.57 0.65 0.73 0.71 0.60 0.70 0.82 0.97 1.08 1.08 0.92 0.66 0.48 0.47 0.48 0.44 0.31 0.19 0.18 0.19 0.18 0.15
0.52 0.47 0.41 0.39 0.35 0.34 0.36 0.39 0.46 0.53 0.57 0.64 0.71 0.69 0.62 0.58 0.55 0.52 0.46 0.41 0.41 0.50 0.59 0.69 0.70 0.64 0.54 0.57 0.60 0.68 0.83 0.95 0.85 0.64 0.54 0.52 0.53 0.41 0.23 0.18 0.17 0.19 0.17
0.40 0.39 0.37 0.36 0.34 0.33 0.31 0.34 0.39 0.43 0.45 0.52 0.58 0.56 0.50 0.47 0.43 0.36 0.40 0.38 0.36 0.47 0.56 0.56 0.58 0.60 0.49 0.45 0.42 0.43 0.57 0.70 0.81 0.78 0.65 0.53 0.52 0.47 0.36 0.26 0.20 0.19 0.18
0.26 0.29 0.33 0.36 0.35 0.31 0.29 0.30 0.32 0.32 0.33 0.37 0.45 0.49 0.42 0.36 0.32 0.29 0.30 0.31 0.33 0.38 0.42 0.51 0.49 0.41 0.43 0.39 0.36 0.34 0.45 0.49 0.66 0.87 0.86 0.69 0.55 0.52 0.50 0.44 0.34 0.24 0.21
0.16 0.18 0.24 0.29 0.30 0.31 0.30 0.24 0.24 0.29 0.29 0.26 0.30 0.36 0.32 0.31 0.35 0.34 0.31 0.31 0.34 0.34 0.33 0.37 0.40 0.38 0.36 0.34 0.32 0.30 0.29 0.35 0.52 0.79 0.92 0.86 0.71 0.57 0.58 0.63 0.74 0.69 0.48
0.20 0.17 0.17 0.22 0.27 0.33 0.38 0.34 0.31 0.29 0.28 0.24 0.24 0.32 0.32 0.25 0.29 0.34 0.34 0.31 0.31 0.23 0.21 0.23 0.23 0.27 0.27 0.30 0.34 0.34 0.28 0.36 0.46 0.60 0.72 0.79 0.77 0.70 0.67 0.74 0.98 1.16 1.10
0.28 0.27 0.27 0.30 0.33 0.33 0.34 0.36 0.39 0.37 0.35 0.31 0.24 0.27 0.40 0.36 0.25 0.28 0.29 0.30 0.28 0.15 0.15 0.19 0.21 0.22 0.27 0.36 0.38 0.32 0.37 0.43 0.45 0.47 0.51 0.56 0.61 0.64 0.69 0.80 0.97 1.17 1.31
0.27 0.29 0.29 0.33 0.37 0.37 0.34 0.32 0.33 0.38 0.44 0.43 0.33 0.26 0.29 0.40 0.35 0.27 0.26 0.24 0.23 0.20 0.22 0.23 0.26 0.32 0.40 0.55 0.47 0.42 0.42 0.46 0.45 0.44 0.44 0.41 0.44 0.47 0.51 0.61 0.77 0.96 1.16
0.29 0.27 0.25 0.25 0.27 0.31 0.32 0.29 0.26 0.27 0.33 0.42 0.45 0.45 0.40 0.33 0.41 0.35 0.28 0.30 0.32 0.34 0.37 0.32 0.36 0.45 0.58 0.65 0.62 0.47 0.33 0.28 0.23 0.23 0.23 0.24 0.25 0.28 0.33 0.38 0.47 0.60 0.73
0.26 0.24 0.22 0.20 0.19 0.22 0.26 0.27 0.25 0.26 0.26 0.28 0.36 0.49 0.50 0.41 0.38 0.38 0.36 0.40 0.52 0.48 0.48 0.55 0.61 0.63 0.57 0.58 0.49 0.39 0.21 0.18 0.17 0.14 0.12 0.12 0.14 0.16 0.19 0.21 0.24 0.31 0.41
0.21 0.19 0.16 0.13 0.13 0.14 0.16 0.20 0.23 0.27 0.32 0.35 0.36 0.42 0.53 0.57 0.51 0.47 0.47 0.51 0.62 0.61 0.60 0.64 0.72 0.72 0.57 0.40 0.30 0.29 0.20 0.18 0.15 0.12 0.08 0.08 0.09 0.09 0.09 0.10 0.11 0.13 0.16
0.20 0.19 0.16 0.14 0.11 0.11 0.13 0.16 0.20 0.25 0.32 0.41 0.49 0.50 0.49 0.61 0.69 0.64 0.63 0.62 0.66 0.70 0.67 0.65 0.76 0.77 0.61 0.39 0.29 0.24 0.18 0.15 0.11 0.11 0.08 0.06 0.06 0.06 0.06 0.07 0.09 0.08 0.09
0.20 0.20 0.18 0.16 0.11 0.09 0.10 0.12 0.14 0.19 0.27 0.37 0.53 0.68 0.70 0.65 0.63 0.62 0.62 0.63 0.68 0.78 0.78 0.69 0.73 0.79 0.70 0.55 0.41 0.30 0.21 0.14 0.11 0.13 0.12 0.08 0.06 0.05 0.05 0.05 0.05 0.06 0.07
0.15 0.18 0.18 0.17 0.15 0.13 0.11 0.10 0.11 0.13 0.18 0.23 0.36 0.59 0.77 0.90 0.82 0.64 0.55 0.54 0.62 0.76 0.84 0.79 0.78 0.88 0.88 0.72 0.50 0.34 0.23 0.16 0.12 0.12 0.11 0.09 0.07 0.06 0.05 0.04 0.04 0.03 0.03
0.08 0.13 0.17 0.19 0.18 0.16 0.14 0.12 0.12 0.13 0.13 0.16 0.23 0.33 0.46 0.66 0.82 0.87 0.74 0.61 0.61 0.69 0.77 0.81 0.92 1.13 1.13 0.94 0.61 0.39 0.29 0.18 0.12 0.08 0.09 0.07 0.06 0.04 0.03 0.03 0.02 0.02 0.02
0.07 0.13 0.19 0.21 0.20 0.18 0.12 0.13 0.16 0.14 0.15 0.15 0.18 0.22 0.25 0.33 0.46 0.62 0.74 0.79 0.75 0.70 0.75 0.83 1.06 1.46 1.47 1.16 0.71 0.44 0.33 0.22 0.13 0.08 0.06 0.05 0.03 0.02 0.02 0.03 0.03 0.03 0.02
0.12 0.15 0.19 0.23 0.23 0.17 0.12 0.11 0.13 0.16 0.20 0.24 0.24 0.22 0.20 0.20 0.24 0.34 0.47 0.60 0.74 0.77 0.78 0.83 1.04 1.34 1.46 1.30 0.97 0.67 0.40 0.23 0.17 0.12 0.07 0.06 0.04 0.02 0.01 0.01 0.03 0.03 0.02
0.17 0.18 0.19 0.27 0.31 0.30 0.21 0.13 0.10 0.15 0.21 0.26 0.30 0.31 0.21 0.14 0.17 0.21 0.28 0.37 0.46 0.57 0.70 0.78 0.93 1.14 1.41 1.48 1.21 0.78 0.49 0.35 0.20 0.12 0.07 0.06 0.04 0.02 0.02 0.03 0.04 0.03 0.02
0.21 0.21 0.22 0.27 0.36 0.36 0.30 0.21 0.14 0.16 0.23 0.26 0.30 0.31 0.28 0.22 0.20 0.22 0.24 0.25 0.28 0.33 0.41 0.54 0.69 0.92 1.19 1.47 1.52 1.19 0.86 0.59 0.36 0.19 0.07 0.05 0.04 0.03 0.03 0.03 0.06 0.05 0.03
0.24 0.23 0.23 0.26 0.35 0.40 0.35 0.25 0.21 0.22 0.26 0.28 0.30 0.32 0.33 0.28 0.21 0.19 0.23 0.24 0.24 0.26 0.30 0.37 0.49 0.69 0.93 1.22 1.51 1.55 1.15 0.68 0.46 0.29 0.10 0.03 0.03 0.03 0.04 0.04 0.05 0.07 0.06
0.29 0.26 0.22 0.25 0.30 0.42 0.41 0.28 0.24 0.26 0.30 0.34 0.42 0.45 0.41 0.37 0.30 0.19 0.21 0.23 0.21 0.22 0.25 0.26 0.31 0.44 0.61 0.85 1.16 1.31 1.22 0.79 0.44 0.29 0.13 0.04 0.03 0.04 0.06 0.04 0.02 0.02 0.03

GEFSMA_prec_meanprecacc_048.txt.gz
Total_Precipitation_Accumulation
1.24 1.30 1.13 0.98 0.78 0.97 1.21 1.22 1.11 1.13 1.16 1.24 1.23 1.22 1.14 0.78 0.54 0.47 0.51 0.72 0.72 0.73 0.83 0.92 0.95 0.90 0.89 0.80 0.70 0.62 0.56 0.55 0.52 0.46 0.39 0.32 0.29 0.25 0.21 0.12 0.07 0.03 0.02
1.25 1.27 1.18 1.06 1.00 1.12 1.27 1.27 1.21 1.35 1.38 1.33 1.06 0.92 0.91 0.89 0.74 0.56 0.54 0.67 0.71 0.63 0.69 0.84 0.93 0.94 1.02 0.99 0.86 0.76 0.66 0.59 0.50 0.40 0.37 0.34 0.28 0.24 0.28 0.31 0.36 0.11 0.02
1.02 1.12 1.10 1.06 1.09 1.13 1.16 1.13 1.13 1.27 1.21 1.08 0.91 0.82 0.82 0.80 0.77 0.68 0.57 0.58 0.65 0.66 0.62 0.67 0.75 0.79 0.86 1.02 1.01 0.84 0.68 0.56 0.46 0.35 0.28 0.28 0.25 0.18 0.18 0.27 0.33 0.17 0.07
0.79 0.85 0.82 0.85 0.89 0.95 0.95 0.91 0.92 0.99 1.03 1.08 1.05 0.91 0.93 0.91 0.84 0.85 0.82 0.71 0.68 0.63 0.77 0.82 0.79 0.72 0.80 0.95 1.03 0.94 0.73 0.55 0.44 0.35 0.29 0.24 0.23 0.19 0.15 0.17 0.18 0.17 0.11
0.70 0.75 0.73 0.71 0.69 0.72 0.74 0.70 0.76 0.83 0.87 0.93 0.90 0.90 0.88 0.84 0.77 0.78 0.89 0.77 0.74 0.74 0.80 0.81 0.84 0.76 0.81 0.92 1.10 1.26 1.09 0.75 0.51 0.44 0.45 0.41 0.33 0.24 0.21 0.22 0.19 0.15 0.13
0.61 0.59 0.57 0.53 0.50 0.51 0.54 0.57 0.65 0.73 0.75 0.81 0.77 0.77 0.75 0.67 0.64 0.64 0.62 0.61 0.64 0.62 0.69 0.77 0.76 0.63 0.73 0.87 1.04 1.20 1.24 1.11 0.80 0.57 0.55 0.54 0.49 0.33 0.20 0.18 0.20 0.18 0.16
0.52 0.47 0.41 0.40 0.36 0.35 0.37 0.39 0.46 0.54 0.58 0.65 0.73 0.70 0.63 0.59 0.57 0.54 0.50 0.46 0.47 0.57 0.65 0.75 0.76 0.70 0.58 0.60 0.64 0.75 0.96 1.15 1.05 0.79 0.63 0.58 0.60 0.46 0.26 0.19 0.19 0.20 0.18
0.40 0.39 0.37 0.36 0.35 0.33 0.32 0.34 0.39 0.43 0.46 0.53 0.59 0.58 0.52 0.49 0.48 0.41 0.45 0.43 0.42 0.55 0.64 0.64 0.66 0.67 0.56 0.52 0.45 0.47 0.65 0.82 1.00 0.99 0.82 0.64 0.59 0.53 0.40 0.29 0.23 0.21 0.20
0.26 0.29 0.33 0.36 0.35 0.31 0.29 0.31 0.32 0.33 0.33 0.37 0.47 0.52 0.46 0.40 0.35 0.34 0.37 0.38 0.41 0.49 0.53 0.62 0.58 0.50 0.52 0.47 0.43 0.40 0.54 0.60 0.81 1.06 1.07 0.89 0.70 0.60 0.55 0.49 0.39 0.27 0.22
0.16 0.18 0.24 0.29 0.30 0.31 0.30 0.24 0.25 0.30 0.30 0.26 0.31 0.39 0.36 0.36 0.40 0.37 0.35 0.38 0.43 0.42 0.42 0.48 0.51 0.49 0.47 0.45 0.42 0.37 0.36 0.45 0.65 0.96 1.13 1.10 0.95 0.75 0.68 0.69 0.82 0.74 0.50
0.20 0.17 0.17 0.22 0.27 0.33 0.38 0.34 0.32 0.30 0.28 0.25 0.25 0.32 0.33 0.28 0.33 0.39 0.37 0.37 0.39 0.32 0.28 0.30 0.32 0.37 0.38 0.41 0.45 0.43 0.35 0.43 0.55 0.72 0.88 0.99 0.99 0.92 0.84 0.85 1.08 1.26 1.16
0.28 0.27 0.27 0.30 0.33 0.33 0.34 0.36 0.39 0.38 0.36 0.32 0.25 0.28 0.41 0.38 0.27 0.32 0.33 0.37 0.37 0.25 0.25 0.28 0.29 0.31 0.37 0.46 0.46 0.40 0.44 0.50 0.53 0.55 0.62 0.69 0.77 0.83 0.88 0.96 1.10 1.29 1.41
0.27 0.29 0.29 0.33 0.37 0.37 0.34 0.32 0.33 0.38 0.44 0.44 0.34 0.27 0.30 0.41 0.36 0.30 0.30 0.29 0.32 0.32 0.35 0.36 0.38 0.42 0.50 0.68 0.58 0.51 0.50 0.53 0.52 0.52 0.51 0.51 0.54 0.60 0.65 0.77 0.93 1.11 1.30
0.29 0.27 0.25 0.25 0.28 0.31 0.32 0.29 0.26 0.27 0.34 0.43 0.45 0.45 0.41 0.34 0.42 0.36 0.30 0.32 0.37 0.42 0.49 0.48 0.54 0.60 0.70 0.78 0.76 0.61 0.44 0.37 0.32 0.32 0.31 0.32 0.33 0.36 0.43 0.48 0.56 0.70 0.83
0.26 0.24 0.22 0.20 0.19 0.22 0.26 0.27 0.25 0.26 0.26 0.28 0.36 0.49 0.51 0.41 0.38 0.39 0.38 0.42 0.56 0.53 0.56 0.67 0.79 0.81 0.70 0.70 0.62 0.53 0.35 0.31 0.29 0.25 0.23 0.23 0.24 0.24 0.26 0.28 0.30 0.37 0.45
0.21 0.19 0.16 0.14 0.13 0.14 0.16 0.21 0.24 0.27 0.32 0.35 0.36 0.42 0.53 0.58 0.51 0.48 0.48 0.53 0.65 0.65 0.65 0.71 0.83 0.83 0.66 0.49 0.42 0.42 0.35 0.34 0.30 0.24 0.19 0.19 0.20 0.20 0.18 0.18 0.17 0.17 0.20
0.20 0.19 0.16 0.14 0.11 0.11 0.13 0.17 0.20 0.26 0.32 0.41 0.50 0.50 0.49 0.61 0.69 0.64 0.63 0.63 0.68 0.73 0.72 0.69 0.82 0.84 0.70 0.49 0.39 0.37 0.33 0.33 0.28 0.25 0.20 0.17 0.18 0.18 0.17 0.16 0.15 0.13 0.12
0.21 0.20 0.19 0.16 0.11 0.09 0.11 0.13 0.15 0.19 0.28 0.38 0.53 0.69 0.70 0.65 0.63 0.63 0.62 0.64 0.69 0.80 0.80 0.72 0.77 0.85 0.79 0.66 0.52 0.42 0.33 0.29 0.29 0.29 0.26 0.21 0.18 0.18 0.16 0.15 0.14 0.12 0.11
0.15 0.18 0.18 0.17 0.15 0.13 0.12 0.10 0.11 0.13 0.18 0.24 0.37 0.59 0.77 0.91 0.83 0.65 0.56 0.54 0.62 0.77 0.86 0.81 0.82 0.94 0.96 0.84 0.65 0.48 0.37 0.30 0.27 0.29 0.28 0.25 0.22 0.19 0.17 0.15 0.13 0.10 0.07
0.08 0.13 0.18 0.19 0.18 0.16 0.14 0.12 0.13 0.13 0.14 0.17 0.24 0.34 0.47 0.67 0.83 0.87 0.75 0.62 0.61 0.69 0.78 0.82 0.95 1.17 1.19 1.04 0.75 0.56 0.47 0.37 0.29 0.24 0.24 0.23 0.21 0.18 0.16 0.13 0.11 0.09 0.08
0.07 0.13 0.19 0.21 0.20 0.18 0.13 0.13 0.16 0.14 0.16 0.16 0.19 0.23 0.25 0.33 0.46 0.62 0.75 0.79 0.76 0.70 0.76 0.84 1.08 1.50 1.52 1.25 0.83 0.60 0.52 0.47 0.37 0.27 0.23 0.20 0.18 0.15 0.13 0.12 0.11 0.09 0.07
0.12 0.15 0.19 0.23 0.23 0.17 0.12 0.11 0.13 0.16 0.21 0.24 0.25 0.24 0.21 0.20 0.25 0.34 0.47 0.60 0.75 0.78 0.79 0.84 1.05 1.36 1.52 1.38 1.10 0.85 0.62 0.46 0.39 0.30 0.25 0.25 0.19 0.17 0.13 0.09 0.09 0.08 0.06
0.17 0.18 0.20 0.27 0.31 0.30 0.21 0.13 0.10 0.15 0.21 0.26 0.31 0.33 0.22 0.14 0.17 0.21 0.28 0.37 0.46 0.57 0.70 0.79 0.94 1.16 1.44 1.55 1.34 0.96 0.74 0.61 0.43 0.31 0.24 0.27 0.25 0.20 0.15 0.13 0.12 0.08 0.06
0.21 0.21 0.22 0.27 0.36 0.37 0.30 0.21 0.14 0.16 0.23 0.26 0.31 0.33 0.30 0.23 0.21 0.22 0.25 0.26 0.29 0.33 0.42 0.54 0.69 0.93 1.22 1.52 1.62 1.36 1.11 0.93 0.70 0.50 0.30 0.26 0.27 0.25 0.19 0.15 0.16 0.11 0.07
0.25 0.23 0.23 0.26 0.35 0.40 0.35 0.25 0.21 0.22 0.26 0.29 0.31 0.34 0.34 0.30 0.22 0.19 0.24 0.25 0.25 0.27 0.31 0.37 0.49 0.69 0.95 1.24 1.56 1.66 1.36 0.98 0.82 0.61 0.36 0.24 0.21 0.23 0.25 0.18 0.15 0.15 0.10
0.30 0.26 0.22 0.25 0.31 0.42 0.42 0.28 0.24 0.26 0.30 0.34 0.43 0.46 0.42 0.37 0.31 0.19 0.21 0.24 0.23 0.23 0.26 0.27 0.32 0.44 0.62 0.87 1.19 1.37 1.36 1.03 0.76 0.62 0.37 0.22 0.20 0.20 0.23 0.19 0.11 0.09 0.08

GEFSMA_prec_meanprecacc_054.txt.gz
Total_Precipitation_Accumulation
1.37 1.45 1.29 1.13 0.96 1.19 1.42 1.44 1.31 1.36 1.35 1.42 1.40 1.37 1.27 0.91 0.61 0.52 0.61 0.84 0.77 0.76 0.85 0.93 0.97 0.94 0.93 0.83 0.72 0.64 0.58 0.58 0.54 0.48 0.41 0.33 0.31 0.26 0.22 0.12 0.07 0.03 0.02
1.30 1.34 1.27 1.17 1.11 1.26 1.41 1.41 1.35 1.50 1.54 1.49 1.22 1.12 1.06 1.02 0.86 0.70 0.69 0.83 0.80 0.67 0.71 0.86 0.95 0.97 1.06 1.04 0.91 0.80 0.68 0.61 0.51 0.42 0.38 0.35 0.30 0.25 0.29 0.32 0.36 0.12 0.02
1.03 1.14 1.14 1.12 1.16 1.21 1.24 1.21 1.20 1.34 1.28 1.16 0.99 0.94 0.93 0.90 0.87 0.80 0.68 0.69 0.76 0.74 0.65 0.69 0.77 0.81 0.89 1.06 1.06 0.89 0.72 0.59 0.47 0.36 0.29 0.29 0.26 0.19 0.19 0.27 0.33 0.17 0.07
0.79 0.86 0.84 0.88 0.93 0.99 0.99 0.95 0.97 1.04 1.09 1.15 1.12 0.96 0.98 0.97 0.90 0.94 0.91 0.78 0.76 0.69 0.83 0.86 0.82 0.75 0.82 0.97 1.06 0.98 0.78 0.59 0.46 0.36 0.29 0.24 0.23 0.19 0.16 0.17 0.19 0.17 0.11
0.70 0.76 0.74 0.73 0.71 0.73 0.76 0.72 0.78 0.87 0.91 0.97 0.94 0.93 0.90 0.87 0.80 0.80 0.92 0.80 0.78 0.78 0.84 0.87 0.88 0.79 0.84 0.93 1.11 1.28 1.13 0.79 0.55 0.46 0.46 0.42 0.33 0.24 0.21 0.22 0.19 0.15 0.13
0.61 0.59 0.57 0.54 0.50 0.51 0.55 0.58 0.67 0.75 0.77 0.83 0.77 0.78 0.76 0.68 0.65 0.66 0.63 0.63 0.67 0.65 0.73 0.83 0.86 0.68 0.76 0.89 1.05 1.22 1.27 1.13 0.83 0.61 0.58 0.56 0.50 0.34 0.20 0.19 0.20 0.19 0.16
0.52 0.47 0.41 0.40 0.37 0.36 0.38 0.40 0.47 0.55 0.59 0.66 0.74 0.71 0.64 0.59 0.58 0.56 0.53 0.50 0.50 0.61 0.69 0.80 0.83 0.77 0.63 0.64 0.66 0.77 0.99 1.17 1.09 0.83 0.67 0.61 0.61 0.47 0.26 0.19 0.19 0.21 0.18
0.40 0.39 0.37 0.36 0.35 0.34 0.33 0.36 0.41 0.44 0.47 0.54 0.60 0.58 0.52 0.50 0.52 0.45 0.50 0.49 0.48 0.62 0.71 0.69 0.73 0.76 0.62 0.61 0.49 0.48 0.67 0.85 1.03 1.02 0.85 0.67 0.61 0.54 0.40 0.29 0.23 0.21 0.20
0.26 0.29 0.33 0.36 0.35 0.31 0.30 0.32 0.34 0.35 0.35 0.38 0.47 0.52 0.47 0.42 0.38 0.38 0.43 0.46 0.50 0.58 0.61 0.69 0.64 0.58 0.60 0.58 0.53 0.46 0.57 0.63 0.85 1.11 1.11 0.93 0.73 0.62 0.56 0.49 0.39 0.27 0.22
0.16 0.18 0.24 0.29 0.30 0.31 0.31 0.25 0.25 0.31 0.31 0.28 0.31 0.39 0.37 0.38 0.42 0.40 0.39 0.45 0.52 0.51 0.50 0.53 0.54 0.55 0.56 0.56 0.53 0.47 0.42 0.50 0.72 1.04 1.20 1.17 1.00 0.79 0.71 0.71 0.83 0.75 0.50
0.20 0.17 0.17 0.22 0.27 0.33 0.38 0.34 0.32 0.30 0.29 0.26 0.26 0.33 0.34 0.30 0.35 0.41 0.39 0.40 0.44 0.38 0.36 0.37 0.37 0.43 0.45 0.50 0.55 0.53 0.44 0.50 0.62 0.82 0.99 1.10 1.08 0.99 0.90 0.90 1.14 1.29 1.18
0.28 0.27 0.27 0.30 0.33 0.33 0.34 0.36 0.39 0.38 0.36 0.33 0.26 0.29 0.42 0.39 0.29 0.34 0.35 0.38 0.39 0.28 0.30 0.34 0.36 0.39 0.45 0.54 0.55 0.49 0.55 0.61 0.61 0.63 0.71 0.80 0.89 0.92 0.96 1.03 1.17 1.35 1.45
0.27 0.29 0.29 0.33 0.37 0.37 0.34 0.32 0.33 0.38 0.45 0.45 0.35 0.27 0.30 0.42 0.37 0.31 0.31 0.30 0.33 0.33 0.36 0.39 0.42 0.49 0.58 0.78 0.68 0.60 0.60 0.63 0.62 0.61 0.59 0.59 0.64 0.69 0.74 0.84 1.00 1.18 1.37
0.29 0.27 0.25 0.25 0.28 0.31 0.32 0.30 0.26 0.27 0.34 0.43 0.45 0.46 0.41 0.35 0.42 0.37 0.31 0.33 0.38 0.43 0.50 0.51 0.59 0.67 0.79 0.88 0.87 0.69 0.52 0.44 0.39 0.40 0.39 0.39 0.41 0.45 0.52 0.57 0.64 0.77 0.90
0.26 0.24 0.22 0.20 0.20 0.23 0.26 0.27 0.26 0.27 0.27 0.28 0.36 0.49 0.51 0.41 0.38 0.39 0.38 0.42 0.56 0.54 0.56 0.68 0.84 0.89 0.83 0.83 0.75 0.62 0.44 0.39 0.35 0.31 0.30 0.30 0.30 0.31 0.34 0.36 0.38 0.44 0.51
0.21 0.20 0.17 0.14 0.14 0.15 0.17 0.22 0.25 0.28 0.33 0.36 0.37 0.43 0.54 0.58 0.51 0.48 0.48 0.53 0.65 0.66 0.66 0.72 0.85 0.88 0.76 0.61 0.56 0.57 0.48 0.44 0.37 0.30 0.26 0.26 0.27 0.27 0.25 0.25 0.24 0.24 0.25
0.20 0.19 0.17 0.15 0.12 0.12 0.15 0.18 0.21 0.27 0.33 0.42 0.51 0.51 0.50 0.61 0.69 0.65 0.63 0.63 0.68 0.74 0.73 0.69 0.83 0.86 0.75 0.57 0.49 0.51 0.52 0.53 0.42 0.35 0.29 0.25 0.25 0.26 0.25 0.24 0.23 0.20 0.18
0.21 0.21 0.20 0.17 0.12 0.10 0.12 0.14 0.16 0.20 0.29 0.39 0.54 0.71 0.71 0.66 0.65 0.64 0.63 0.64 0.70 0.81 0.82 0.73 0.78 0.86 0.82 0.71 0.60 0.51 0.45 0.46 0.49 0.48 0.39 0.32 0.28 0.27 0.26 0.24 0.23 0.20 0.18
0.16 0.19 0.19 0.18 0.16 0.14 0.13 0.11 0.12 0.15 0.19 0.25 0.38 0.61 0.79 0.93 0.85 0.67 0.58 0.56 0.63 0.78 0.87 0.83 0.83 0.95 0.98 0.88 0.71 0.56 0.45 0.43 0.41 0.44 0.44 0.38 0.32 0.29 0.27 0.25 0.23 0.21 0.16
0.09 0.14 0.18 0.20 0.18 0.16 0.14 0.13 0.14 0.15 0.16 0.19 0.26 0.36 0.49 0.69 0.86 0.91 0.77 0.64 0.64 0.71 0.79 0.84 0.96 1.18 1.21 1.08 0.83 0.66 0.58 0.48 0.43 0.37 0.35 0.33 0.31 0.28 0.26 0.24 0.22 0.20 0.18
0.08 0.13 0.19 0.21 0.20 0.18 0.13 0.14 0.17 0.15 0.17 0.17 0.20 0.25 0.28 0.36 0.48 0.64 0.76 0.81 0.78 0.72 0.78 0.86 1.09 1.51 1.54 1.28 0.92 0.73 0.67 0.64 0.54 0.44 0.37 0.29 0.26 0.23 0.21 0.23 0.24 0.22 0.19
0.12 0.15 0.19 0.24 0.24 0.17 0.12 0.11 0.13 0.17 0.21 0.25 0.26 0.26 0.23 0.22 0.25 0.35 0.47 0.60 0.75 0.79 0.79 0.86 1.06 1.38 1.54 1.43 1.17 0.97 0.76 0.63 0.57 0.52 0.44 0.40 0.34 0.30 0.24 0.19 0.20 0.22 0.21
0.17 0.18 0.20 0.27 0.31 0.31 0.21 0.13 0.10 0.15 0.21 0.26 0.32 0.35 0.24 0.15 0.19 0.24 0.31 0.38 0.46 0.57 0.70 0.79 0.94 1.16 1.45 1.58 1.40 1.05 0.88 0.78 0.64 0.57 0.52 0.49 0.44 0.38 0.32 0.27 0.27 0.21 0.22
0.21 0.22 0.22 0.27 0.37 0.37 0.30 0.21 0.14 0.16 0.23 0.27 0.32 0.35 0.33 0.27 0.25 0.27 0.30 0.30 0.32 0.36 0.43 0.55 0.70 0.94 1.23 1.54 1.66 1.42 1.21 1.07 0.89 0.77 0.61 0.55 0.52 0.44 0.36 0.32 0.34 0.28 0.22
0.25 0.24 0.23 0.27 0.36 0.42 0.35 0.25 0.21 0.23 0.26 0.29 0.32 0.36 0.39 0.36 0.27 0.20 0.25 0.26 0.27 0.29 0.32 0.37 0.50 0.69 0.95 1.25 1.57 1.68 1.40 1.07 0.94 0.79 0.64 0.52 0.46 0.46 0.45 0.36 0.35 0.37 0.30
0.30 0.26 0.22 0.26 0.32 0.44 0.42 0.28 0.24 0.26 0.30 0.34 0.45 0.49 0.44 0.39 0.32 0.20 0.22 0.26 0.25 0.25 0.29 0.30 0.34 0.45 0.62 0.87 1.19 1.37 1.38 1.08 0.86 0.76 0.55 0.44 0.41 0.40 0.43 0.39 0.30 0.29 0.29

GEFSMA_prec_meanprecacc_060.txt.gz
Total_Precipitation_Accumulation
1.37 1.46 1.30 1.14 0.99 1.22 1.46 1.48 1.35 1.42 1.41 1.50 1.48 1.44 1.34 0.96 0.71 0.67 0.80 1.13 1.08 0.99 1.01 1.05 1.04 0.98 0.96 0.85 0.74 0.65 0.59 0.58 0.54 0.48 0.41 0.34 0.32 0.26 0.22 0.12 0.07 0.03 0.02
1.31 1.35 1.28 1.17 1.12 1.27 1.44 1.44 1.38 1.53 1.57 1.53 1.26 1.15 1.10 1.07 0.94 0.79 0.83 1.05 1.08 0.89 0.89 1.01 1.07 1.06 1.12 1.08 0.94 0.82 0.69 0.61 0.51 0.42 0.38 0.35 0.30 0.25 0.29 0.32 0.36 0.12 0.02
1.04 1.14 1.14 1.12 1.17 1.22 1.25 1.22 1.21 1.36 1.30 1.18 1.01 0.95 0.95 0.93 0.91 0.87 0.80 0.83 0.94 0.91 0.81 0.84 0.91 0.93 1.00 1.13 1.11 0.94 0.75 0.60 0.48 0.36 0.29 0.29 0.26 0.19 0.19 0.27 0.34 0.17 0.07
0.79 0.86 0.84 0.88 0.94 0.99 1.00 0.95 0.97 1.05 1.10 1.16 1.13 0.98 1.01 1.00 0.92 0.98 1.01 0.88 0.84 0.78 0.95 1.01 0.97 0.89 0.95 1.08 1.13 1.05 0.83 0.62 0.48 0.37 0.29 0.24 0.23 0.19 0.16 0.17 0.19 0.17 0.11
0.70 0.76 0.74 0.73 0.71 0.73 0.76 0.72 0.78 0.87 0.92 0.97 0.94 0.93 0.90 0.88 0.82 0.82 0.95 0.83 0.81 0.82 0.91 0.97 1.03 0.95 1.00 1.08 1.25 1.39 1.22 0.85 0.59 0.48 0.47 0.42 0.33 0.24 0.21 0.22 0.19 0.15 0.13
0.61 0.59 0.57 0.54 0.50 0.51 0.55 0.58 0.67 0.75 0.77 0.83 0.77 0.78 0.76 0.68 0.66 0.67 0.64 0.65 0.69 0.67 0.76 0.88 0.93 0.78 0.91 1.05 1.22 1.39 1.40 1.24 0.91 0.65 0.61 0.57 0.50 0.34 0.20 0.19 0.20 0.19 0.16
0.52 0.47 0.41 0.40 0.37 0.36 0.38 0.40 0.47 0.55 0.59 0.66 0.74 0.71 0.64 0.59 0.58 0.57 0.54 0.51 0.52 0.63 0.73 0.85 0.89 0.83 0.71 0.76 0.78 0.92 1.17 1.35 1.23 0.93 0.73 0.65 0.63 0.47 0.26 0.19 0.19 0.21 0.18
0.40 0.39 0.37 0.36 0.35 0.34 0.33 0.36 0.41 0.44 0.47 0.54 0.60 0.58 0.52 0.50 0.52 0.45 0.51 0.51 0.50 0.65 0.74 0.73 0.78 0.82 0.67 0.67 0.54 0.59 0.85 1.05 1.23 1.18 0.97 0.75 0.67 0.56 0.41 0.30 0.23 0.21 0.20
0.26 0.29 0.33 0.36 0.35 0.31 0.30 0.32 0.34 0.35 0.35 0.38 0.47 0.53 0.47 0.42 0.38 0.39 0.43 0.47 0.53 0.60 0.62 0.71 0.67 0.63 0.66 0.63 0.58 0.54 0.72 0.80 1.06 1.32 1.28 1.05 0.82 0.68 0.59 0.50 0.39 0.27 0.22
0.16 0.18 0.24 0.29 0.30 0.31 0.31 0.25 0.26 0.31 0.31 0.28 0.31 0.39 0.37 0.38 0.42 0.40 0.39 0.45 0.53 0.51 0.51 0.54 0.56 0.57 0.59 0.60 0.58 0.53 0.50 0.61 0.88 1.23 1.40 1.34 1.13 0.88 0.77 0.75 0.85 0.75 0.50
0.20 0.17 0.17 0.22 0.27 0.33 0.38 0.34 0.32 0.30 0.29 0.26 0.26 0.33 0.34 0.30 0.35 0.41 0.39 0.40 0.44 0.38 0.36 0.37 0.38 0.44 0.47 0.53 0.58 0.57 0.49 0.56 0.71 0.95 1.15 1.27 1.25 1.13 1.00 0.99 1.22 1.35 1.19
0.28 0.27 0.27 0.30 0.33 0.33 0.34 0.36 0.39 0.38 0.36 0.33 0.26 0.29 0.42 0.39 0.29 0.34 0.35 0.38 0.39 0.28 0.30 0.34 0.36 0.39 0.46 0.56 0.57 0.51 0.58 0.66 0.67 0.70 0.81 0.92 1.03 1.07 1.10 1.15 1.28 1.46 1.52
0.27 0.29 0.29 0.33 0.37 0.37 0.34 0.32 0.33 0.38 0.45 0.45 0.35 0.27 0.30 0.42 0.37 0.31 0.31 0.30 0.33 0.33 0.36 0.39 0.43 0.50 0.59 0.79 0.70 0.62 0.62 0.67 0.66 0.65 0.64 0.66 0.72 0.80 0.86 0.97 1.12 1.29 1.45
0.29 0.27 0.25 0.25 0.28 0.31 0.32 0.30 0.26 0.27 0.34 0.43 0.45 0.46 0.41 0.35 0.42 0.37 0.31 0.33 0.38 0.43 0.50 0.51 0.60 0.69 0.81 0.90 0.90 0.73 0.55 0.48 0.42 0.43 0.43 0.44 0.47 0.52 0.60 0.67 0.76 0.89 1.00
0.26 0.24 0.22 0.20 0.20 0.23 0.26 0.27 0.26 0.27 0.27 0.28 0.36 0.49 0.51 0.41 0.38 0.39 0.38 0.43 0.56 0.54 0.56 0.68 0.84 0.90 0.84 0.85 0.77 0.65 0.48 0.43 0.38 0.34 0.33 0.33 0.34 0.36 0.40 0.42 0.45 0.52 0.60
0.21 0.20 0.17 0.14 0.14 0.15 0.17 0.22 0.25 0.28 0.33 0.36 0.37 0.43 0.54 0.58 0.51 0.48 0.48 0.53 0.66 0.66 0.66 0.72 0.85 0.88 0.77 0.62 0.57 0.58 0.49 0.47 0.41 0.33 0.28 0.28 0.30 0.30 0.29 0.30 0.29 0.29 0.32
0.20 0.20 0.17 0.15 0.12 0.12 0.15 0.18 0.21 0.27 0.33 0.42 0.51 0.51 0.50 0.62 0.69 0.65 0.63 0.64 0.68 0.74 0.73 0.69 0.83 0.87 0.76 0.57 0.49 0.51 0.52 0.53 0.44 0.38 0.31 0.27 0.27 0.28 0.27 0.28 0.28 0.26 0.23
0.21 0.21 0.20 0.17 0.12 0.10 0.12 0.14 0.16 0.21 0.29 0.39 0.55 0.71 0.71 0.66 0.65 0.64 0.63 0.64 0.70 0.81 0.82 0.73 0.78 0.86 0.82 0.71 0.60 0.52 0.45 0.46 0.49 0.49 0.41 0.34 0.30 0.29 0.28 0.27 0.26 0.25 0.24
0.16 0.19 0.19 0.18 0.16 0.14 0.13 0.11 0.12 0.15 0.19 0.25 0.38 0.61 0.80 0.93 0.85 0.67 0.58 0.56 0.64 0.78 0.87 0.83 0.83 0.95 0.98 0.88 0.72 0.56 0.46 0.43 0.42 0.45 0.46 0.41 0.35 0.31 0.29 0.27 0.26 0.24 0.21
0.09 0.14 0.18 0.20 0.18 0.16 0.14 0.13 0.14 0.15 0.16 0.19 0.26 0.36 0.49 0.69 0.86 0.91 0.78 0.65 0.64 0.71 0.79 0.84 0.96 1.18 1.21 1.09 0.83 0.66 0.58 0.49 0.44 0.38 0.37 0.37 0.35 0.32 0.29 0.28 0.25 0.23 0.22
0.08 0.13 0.19 0.21 0.20 0.18 0.13 0.14 0.17 0.15 0.17 0.18 0.20 0.25 0.28 0.36 0.49 0.64 0.76 0.81 0.78 0.73 0.78 0.86 1.09 1.51 1.54 1.29 0.92 0.73 0.67 0.64 0.54 0.46 0.39 0.32 0.29 0.27 0.25 0.27 0.28 0.26 0.23
0.12 0.15 0.19 0.24 0.24 0.17 0.12 0.11 0.13 0.17 0.21 0.25 0.26 0.26 0.23 0.22 0.25 0.35 0.47 0.61 0.75 0.79 0.79 0.86 1.06 1.38 1.54 1.43 1.17 0.97 0.76 0.63 0.58 0.54 0.47 0.44 0.39 0.34 0.29 0.25 0.26 0.26 0.25
0.17 0.18 0.20 0.27 0.31 0.31 0.21 0.13 0.10 0.15 0.21 0.26 0.32 0.35 0.24 0.15 0.20 0.25 0.31 0.38 0.47 0.57 0.70 0.79 0.94 1.16 1.45 1.58 1.40 1.05 0.88 0.79 0.64 0.58 0.55 0.54 0.51 0.45 0.39 0.34 0.35 0.29 0.28
0.21 0.22 0.22 0.27 0.37 0.37 0.30 0.21 0.14 0.16 0.23 0.27 0.32 0.35 0.33 0.27 0.26 0.27 0.30 0.30 0.32 0.36 0.43 0.55 0.70 0.94 1.23 1.54 1.66 1.42 1.21 1.07 0.89 0.78 0.63 0.58 0.59 0.52 0.45 0.40 0.42 0.37 0.30
0.25 0.24 0.23 0.27 0.36 0.42 0.35 0.25 0.21 0.23 0.26 0.29 0.32 0.36 0.39 0.36 0.27 0.20 0.25 0.26 0.27 0.30 0.32 0.38 0.50 0.69 0.95 1.25 1.57 1.68 1.40 1.07 0.94 0.80 0.66 0.57 0.54 0.58 0.57 0.46 0.44 0.46 0.38
0.30 0.26 0.22 0.26 0.32 0.44 0.42 0.28 0.24 0.26 0.30 0.34 0.45 0.49 0.44 0.39 0.32 0.20 0.22 0.26 0.25 0.25 0.29 0.30 0.34 0.45 0.62 0.87 1.19 1.37 1.38 1.08 0.86 0.76 0.56 0.48 0.48 0.50 0.55 0.50 0.39 0.37 0.37

GEFSMA_prec_meanprecacc_066.txt.gz
Total_Precipitation_Accumulation
1.38 1.46 1.30 1.15 1.00 1.23 1.48 1.50 1.37 1.44 1.44 1.53 1.51 1.47 1.39 1.02 0.77 0.73 0.83 1.18 1.17 1.08 1.13 1.20 1.16 1.08 1.04 0.93 0.80 0.69 0.60 0.59 0.56 0.50 0.42 0.35 0.32 0.26 0.22 0.12 0.07 0.03 0.02
1.31 1.35 1.28 1.17 1.12 1.28 1.44 1.45 1.40 1.55 1.59 1.55 1.28 1.18 1.15 1.12 0.98 0.82 0.86 1.08 1.17 1.02 1.02 1.15 1.22 1.22 1.26 1.18 1.01 0.88 0.73 0.64 0.53 0.43 0.40 0.37 0.31 0.26 0.29 0.32 0.36 0.12 0.02
1.04 1.14 1.14 1.12 1.17 1.22 1.25 1.22 1.22 1.37 1.32 1.19 1.03 0.98 0.99 0.97 0.94 0.91 0.83 0.86 0.98 1.03 0.94 0.99 1.06 1.09 1.17 1.26 1.21 1.03 0.82 0.66 0.52 0.38 0.30 0.30 0.27 0.20 0.19 0.27 0.34 0.17 0.07
0.79 0.86 0.84 0.88 0.94 0.99 1.00 0.95 0.97 1.05 1.10 1.16 1.14 0.99 1.03 1.02 0.95 1.01 1.03 0.90 0.87 0.84 1.05 1.16 1.12 1.05 1.13 1.25 1.28 1.19 0.95 0.71 0.55 0.42 0.32 0.26 0.25 0.20 0.16 0.18 0.19 0.17 0.11
0.70 0.76 0.74 0.73 0.71 0.73 0.76 0.72 0.78 0.87 0.92 0.97 0.94 0.94 0.91 0.89 0.82 0.83 0.96 0.84 0.82 0.85 0.97 1.07 1.19 1.12 1.19 1.30 1.46 1.59 1.38 0.97 0.68 0.57 0.53 0.46 0.35 0.26 0.22 0.23 0.19 0.15 0.13
0.61 0.59 0.57 0.54 0.50 0.51 0.55 0.58 0.67 0.75 0.77 0.83 0.77 0.78 0.76 0.68 0.66 0.67 0.65 0.66 0.70 0.68 0.79 0.94 1.02 0.89 1.06 1.23 1.43 1.61 1.61 1.42 1.06 0.76 0.70 0.64 0.55 0.37 0.22 0.20 0.21 0.19 0.16
0.52 0.47 0.41 0.40 0.37 0.36 0.38 0.40 0.47 0.55 0.59 0.66 0.74 0.71 0.64 0.59 0.58 0.57 0.54 0.51 0.52 0.64 0.75 0.87 0.92 0.87 0.77 0.85 0.89 1.07 1.36 1.59 1.45 1.11 0.86 0.74 0.70 0.52 0.30 0.21 0.20 0.22 0.19
0.40 0.39 0.37 0.36 0.35 0.34 0.33 0.36 0.41 0.44 0.47 0.54 0.60 0.58 0.52 0.50 0.52 0.45 0.51 0.51 0.50 0.66 0.75 0.75 0.80 0.84 0.70 0.71 0.58 0.67 0.97 1.23 1.47 1.44 1.18 0.90 0.78 0.64 0.47 0.34 0.25 0.22 0.21
0.26 0.29 0.33 0.36 0.35 0.31 0.30 0.32 0.34 0.35 0.35 0.38 0.47 0.53 0.47 0.42 0.38 0.39 0.43 0.47 0.53 0.61 0.63 0.72 0.68 0.64 0.67 0.64 0.60 0.57 0.80 0.90 1.21 1.53 1.52 1.25 0.98 0.79 0.67 0.56 0.43 0.30 0.24
0.16 0.18 0.24 0.29 0.30 0.31 0.31 0.25 0.26 0.31 0.31 0.28 0.31 0.39 0.37 0.38 0.42 0.40 0.39 0.45 0.53 0.51 0.51 0.54 0.56 0.57 0.60 0.61 0.58 0.54 0.53 0.65 0.96 1.35 1.55 1.52 1.30 1.02 0.88 0.83 0.92 0.80 0.53
0.20 0.17 0.17 0.22 0.27 0.33 0.38 0.34 0.32 0.30 0.29 0.26 0.26 0.33 0.34 0.30 0.35 0.41 0.39 0.40 0.44 0.38 0.36 0.37 0.38 0.44 0.48 0.53 0.59 0.57 0.50 0.58 0.73 0.99 1.22 1.37 1.37 1.26 1.13 1.11 1.34 1.45 1.26
0.28 0.27 0.27 0.30 0.33 0.33 0.34 0.36 0.39 0.38 0.36 0.33 0.26 0.29 0.42 0.39 0.29 0.34 0.35 0.38 0.39 0.28 0.30 0.34 0.36 0.39 0.46 0.56 0.57 0.52 0.60 0.67 0.68 0.72 0.84 0.97 1.10 1.17 1.21 1.28 1.42 1.60 1.65
0.27 0.29 0.29 0.33 0.37 0.37 0.34 0.32 0.33 0.38 0.45 0.45 0.35 0.27 0.30 0.42 0.37 0.31 0.31 0.30 0.33 0.33 0.36 0.39 0.43 0.50 0.59 0.79 0.70 0.63 0.62 0.67 0.67 0.67 0.66 0.68 0.75 0.84 0.93 1.07 1.25 1.45 1.61
0.29 0.27 0.25 0.25 0.28 0.31 0.32 0.30 0.26 0.27 0.34 0.43 0.45 0.46 0.41 0.35 0.42 0.37 0.31 0.33 0.38 0.43 0.50 0.51 0.60 0.69 0.81 0.90 0.90 0.73 0.55 0.48 0.43 0.44 0.44 0.45 0.48 0.54 0.64 0.73 0.84 1.00 1.13
0.26 0.24 0.22 0.20 0.20 0.23 0.26 0.27 0.26 0.27 0.27 0.28 0.36 0.49 0.51 0.41 0.38 0.39 0.38 0.43 0.56 0.54 0.56 0.68 0.84 0.90 0.84 0.85 0.77 0.65 0.48 0.43 0.38 0.34 0.33 0.34 0.35 0.38 0.42 0.46 0.50 0.59 0.69
0.21 0.20 0.17 0.14 0.14 0.15 0.17 0.22 0.25 0.28 0.33 0.36 0.37 0.43 0.54 0.58 0.51 0.48 0.48 0.53 0.66 0.66 0.66 0.72 0.85 0.88 0.77 0.62 0.57 0.58 0.49 0.47 0.42 0.34 0.28 0.29 0.31 0.31 0.31 0.33 0.33 0.34 0.37
0.20 0.20 0.17 0.15 0.12 0.12 0.15 0.18 0.21 0.27 0.33 0.42 0.51 0.51 0.50 0.62 0.69 0.65 0.63 0.64 0.68 0.74 0.73 0.69 0.83 0.87 0.76 0.57 0.49 0.51 0.52 0.53 0.44 0.39 0.32 0.28 0.28 0.29 0.29 0.30 0.31 0.30 0.28
0.21 0.21 0.20 0.17 0.12 0.10 0.12 0.14 0.16 0.21 0.29 0.39 0.55 0.71 0.71 0.66 0.65 0.64 0.63 0.64 0.70 0.81 0.82 0.73 0.78 0.86 0.82 0.71 0.60 0.52 0.45 0.46 0.49 0.49 0.42 0.36 0.32 0.31 0.29 0.29 0.29 0.29 0.29
0.16 0.19 0.19 0.18 0.16 0.14 0.13 0.11 0.12 0.15 0.19 0.25 0.38 0.61 0.80 0.93 0.85 0.67 0.58 0.56 0.64 0.78 0.87 0.83 0.83 0.95 0.98 0.88 0.72 0.56 0.46 0.43 0.42 0.45 0.46 0.41 0.36 0.34 0.32 0.29 0.28 0.27 0.24
0.09 0.14 0.18 0.20 0.18 0.16 0.14 0.13 0.14 0.15 0.16 0.19 0.26 0.36 0.49 0.69 0.86 0.91 0.78 0.65 0.64 0.71 0.79 0.84 0.96 1.18 1.21 1.09 0.83 0.66 0.58 0.49 0.44 0.38 0.37 0.37 0.36 0.33 0.31 0.31 0.28 0.25 0.23
0.08 0.13 0.19 0.21 0.20 0.18 0.13 0.14 0.17 0.15 0.17 0.18 0.20 0.25 0.28 0.36 0.49 0.64 0.76 0.81 0.78 0.73 0.78 0.86 1.09 1.51 1.54 1.29 0.92 0.73 0.67 0.64 0.54 0.46 0.39 0.32 0.29 0.27 0.26 0.28 0.31 0.29 0.25
0.12 0.15 0.19 0.24 0.24 0.17 0.12 0.11 0.13 0.17 0.21 0.25 0.26 0.26 0.23 0.22 0.25 0.35 0.47 0.61 0.75 0.79 0.80 0.86 1.06 1.38 1.54 1.43 1.17 0.97 0.76 0.63 0.58 0.54 0.47 0.44 0.39 0.34 0.29 0.25 0.27 0.28 0.28
0.17 0.18 0.20 0.27 0.31 0.31 0.21 0.13 0.10 0.15 0.21 0.26 0.32 0.35 0.24 0.15 0.20 0.25 0.31 0.38 0.47 0.57 0.70 0.79 0.94 1.16 1.45 1.58 1.40 1.05 0.88 0.79 0.64 0.58 0.55 0.54 0.51 0.45 0.39 0.34 0.36 0.30 0.29
0.22 0.22 0.22 0.28 0.37 0.37 0.30 0.21 0.14 0.17 0.23 0.27 0.32 0.35 0.33 0.27 0.26 0.27 0.30 0.30 0.32 0.36 0.43 0.55 0.70 0.94 1.23 1.54 1.66 1.42 1.21 1.07 0.89 0.78 0.63 0.58 0.59 0.52 0.45 0.40 0.43 0.37 0.31
0.26 0.25 0.24 0.28 0.36 0.42 0.36 0.25 0.21 0.23 0.26 0.29 0.32 0.36 0.39 0.36 0.27 0.20 0.25 0.26 0.27 0.30 0.32 0.38 0.50 0.69 0.95 1.25 1.57 1.68 1.40 1.07 0.94 0.80 0.66 0.57 0.54 0.58 0.57 0.46 0.44 0.47 0.39
0.32 0.28 0.24 0.27 0.33 0.44 0.43 0.29 0.25 0.27 0.31 0.35 0.45 0.49 0.44 0.39 0.32 0.20 0.22 0.26 0.25 0.25 0.29 0.30 0.34 0.45 0.62 0.87 1.19 1.37 1.38 1.08 0.86 0.76 0.56 0.48 0.48 0.50 0.55 0.50 0.40 0.38 0.39

GEFSMA_prec_meanprecacc_072.txt.gz
Total_Precipitation_Accumulation
1.41 1.49 1.33 1.18 1.04 1.30 1.56 1.59 1.44 1.52 1.50 1.59 1.56 1.51 1.44 1.06 0.81 0.77 0.87 1.23 1.25 1.18 1.25 1.34 1.29 1.18 1.14 1.01 0.89 0.78 0.66 0.62 0.58 0.52 0.44 0.36 0.32 0.27 0.22 0.12 0.07 0.03 0.02
1.32 1.36 1.29 1.19 1.14 1.31 1.48 1.51 1.45 1.61 1.65 1.61 1.33 1.23 1.19 1.15 1.03 0.86 0.92 1.16 1.25 1.10 1.13 1.31 1.38 1.35 1.39 1.29 1.11 0.98 0.82 0.70 0.58 0.46 0.42 0.39 0.33 0.27 0.29 0.32 0.36 0.12 0.02
1.04 1.15 1.15 1.13 1.17 1.22 1.26 1.24 1.24 1.41 1.35 1.23 1.08 1.02 1.02 1.00 0.99 0.95 0.87 0.91 1.04 1.08 1.02 1.12 1.21 1.23 1.33 1.39 1.33 1.14 0.94 0.76 0.60 0.43 0.34 0.34 0.31 0.22 0.20 0.28 0.34 0.17 0.07
0.79 0.87 0.84 0.88 0.94 0.99 1.00 0.96 0.98 1.07 1.12 1.19 1.17 1.02 1.07 1.07 0.99 1.04 1.06 0.93 0.93 0.92 1.15 1.26 1.24 1.18 1.28 1.41 1.44 1.35 1.10 0.83 0.66 0.51 0.38 0.31 0.28 0.23 0.18 0.19 0.20 0.18 0.11
0.70 0.76 0.74 0.73 0.71 0.74 0.76 0.72 0.79 0.88 0.93 0.99 0.96 0.95 0.93 0.91 0.85 0.85 0.99 0.87 0.87 0.93 1.08 1.19 1.28 1.23 1.33 1.47 1.65 1.78 1.56 1.11 0.80 0.67 0.61 0.52 0.40 0.29 0.24 0.25 0.20 0.16 0.14
0.61 0.60 0.57 0.54 0.50 0.52 0.55 0.59 0.67 0.76 0.78 0.83 0.78 0.78 0.77 0.69 0.67 0.69 0.67 0.68 0.73 0.72 0.84 1.02 1.15 1.00 1.17 1.38 1.59 1.79 1.80 1.59 1.20 0.89 0.80 0.72 0.61 0.42 0.25 0.22 0.22 0.20 0.17
0.52 0.47 0.41 0.40 0.37 0.36 0.38 0.40 0.47 0.55 0.59 0.67 0.74 0.71 0.64 0.59 0.58 0.57 0.54 0.52 0.54 0.66 0.78 0.92 0.98 0.96 0.86 0.92 0.96 1.17 1.50 1.77 1.63 1.25 0.99 0.84 0.77 0.57 0.33 0.24 0.22 0.23 0.20
0.40 0.39 0.37 0.36 0.35 0.34 0.34 0.36 0.41 0.45 0.47 0.54 0.60 0.59 0.53 0.50 0.52 0.45 0.51 0.51 0.51 0.66 0.76 0.76 0.82 0.88 0.74 0.80 0.65 0.73 1.05 1.36 1.64 1.61 1.31 1.00 0.86 0.70 0.51 0.38 0.28 0.24 0.22
0.26 0.29 0.33 0.36 0.35 0.31 0.30 0.32 0.34 0.35 0.35 0.38 0.48 0.53 0.48 0.42 0.39 0.39 0.43 0.47 0.53 0.61 0.63 0.72 0.69 0.66 0.70 0.70 0.66 0.63 0.86 0.97 1.31 1.66 1.63 1.35 1.07 0.86 0.72 0.60 0.47 0.32 0.25
0.16 0.18 0.24 0.29 0.30 0.31 0.31 0.25 0.26 0.31 0.32 0.28 0.32 0.40 0.37 0.38 0.42 0.40 0.39 0.45 0.53 0.52 0.51 0.55 0.56 0.58 0.61 0.64 0.63 0.57 0.55 0.68 1.02 1.43 1.65 1.60 1.39 1.09 0.94 0.90 0.99 0.85 0.56
0.20 0.17 0.17 0.22 0.27 0.33 0.38 0.34 0.32 0.30 0.29 0.26 0.26 0.33 0.34 0.30 0.35 0.41 0.39 0.40 0.44 0.38 0.36 0.37 0.38 0.44 0.48 0.54 0.62 0.59 0.51 0.59 0.75 1.02 1.26 1.43 1.44 1.34 1.20 1.18 1.43 1.55 1.34
0.28 0.27 0.27 0.30 0.33 0.33 0.34 0.36 0.39 0.38 0.36 0.33 0.26 0.29 0.42 0.39 0.29 0.34 0.35 0.38 0.39 0.28 0.30 0.34 0.36 0.39 0.46 0.56 0.57 0.52 0.60 0.68 0.69 0.73 0.86 1.01 1.15 1.24 1.29 1.38 1.53 1.73 1.76
0.27 0.29 0.29 0.33 0.37 0.37 0.34 0.32 0.33 0.39 0.45 0.45 0.35 0.27 0.30 0.42 0.37 0.31 0.31 0.30 0.33 0.33 0.36 0.39 0.43 0.50 0.59 0.79 0.70 0.63 0.62 0.67 0.68 0.67 0.67 0.69 0.77 0.87 0.97 1.13 1.33 1.54 1.73
0.29 0.27 0.25 0.25 0.28 0.31 0.32 0.30 0.26 0.27 0.34 0.43 0.45 0.46 0.41 0.35 0.42 0.37 0.31 0.33 0.38 0.43 0.50 0.51 0.60 0.69 0.81 0.90 0.90 0.73 0.56 0.48 0.43 0.44 0.44 0.45 0.49 0.55 0.65 0.75 0.88 1.05 1.18
0.26 0.24 0.22 0.20 0.20 0.23 0.26 0.28 0.26 0.27 0.27 0.28 0.36 0.49 0.51 0.41 0.38 0.39 0.38 0.43 0.56 0.54 0.56 0.68 0.84 0.90 0.84 0.85 0.77 0.65 0.48 0.43 0.38 0.34 0.33 0.34 0.35 0.38 0.43 0.47 0.52 0.62 0.73
0.21 0.20 0.17 0.14 0.14 0.15 0.17 0.22 0.25 0.28 0.33 0.36 0.37 0.43 0.54 0.58 0.51 0.48 0.48 0.53 0.66 0.66 0.66 0.72 0.85 0.88 0.77 0.62 0.57 0.58 0.49 0.47 0.42 0.34 0.29 0.29 0.31 0.32 0.31 0.34 0.33 0.34 0.38
0.20 0.20 0.17 0.15 0.12 0.12 0.15 0.18 0.21 0.27 0.33 0.42 0.51 0.51 0.50 0.62 0.70 0.65 0.63 0.64 0.68 0.74 0.73 0.70 0.83 0.87 0.76 0.57 0.49 0.51 0.52 0.53 0.44 0.39 0.32 0.28 0.29 0.30 0.30 0.31 0.32 0.30 0.28
0.21 0.21 0.20 0.17 0.12 0.10 0.12 0.14 0.16 0.21 0.29 0.39 0.55 0.71 0.72 0.67 0.65 0.64 0.63 0.64 0.70 0.81 0.82 0.73 0.78 0.86 0.82 0.72 0.60 0.52 0.45 0.46 0.49 0.49 0.42 0.36 0.32 0.31 0.29 0.29 0.29 0.29 0.30
0.16 0.19 0.19 0.18 0.16 0.14 0.13 0.11 0.12 0.15 0.19 0.25 0.38 0.61 0.80 0.93 0.85 0.67 0.58 0.56 0.64 0.78 0.87 0.83 0.83 0.95 0.98 0.88 0.72 0.56 0.46 0.43 0.42 0.45 0.46 0.41 0.36 0.34 0.32 0.29 0.28 0.27 0.24
0.09 0.14 0.18 0.20 0.18 0.16 0.14 0.13 0.14 0.15 0.16 0.19 0.26 0.36 0.49 0.69 0.86 0.91 0.78 0.65 0.64 0.71 0.80 0.84 0.96 1.18 1.21 1.09 0.83 0.66 0.58 0.49 0.44 0.38 0.37 0.37 0.36 0.33 0.31 0.31 0.28 0.25 0.24
0.08 0.13 0.19 0.21 0.20 0.18 0.13 0.14 0.17 0.15 0.17 0.18 0.20 0.25 0.28 0.36 0.49 0.65 0.76 0.81 0.78 0.73 0.78 0.86 1.09 1.51 1.54 1.29 0.92 0.73 0.67 0.64 0.54 0.46 0.39 0.32 0.30 0.27 0.26 0.29 0.31 0.29 0.26
0.12 0.15 0.19 0.24 0.24 0.17 0.12 0.11 0.13 0.17 0.21 0.25 0.26 0.26 0.23 0.22 0.25 0.35 0.47 0.61 0.75 0.79 0.80 0.86 1.06 1.38 1.54 1.43 1.18 0.97 0.76 0.63 0.58 0.54 0.47 0.44 0.39 0.34 0.29 0.25 0.27 0.28 0.28
0.17 0.18 0.20 0.27 0.31 0.31 0.21 0.13 0.10 0.15 0.21 0.26 0.32 0.35 0.25 0.15 0.20 0.25 0.31 0.38 0.47 0.57 0.70 0.80 0.94 1.16 1.45 1.58 1.41 1.06 0.89 0.80 0.65 0.58 0.56 0.54 0.51 0.45 0.39 0.34 0.36 0.30 0.29
0.22 0.22 0.23 0.28 0.37 0.38 0.31 0.21 0.15 0.17 0.23 0.27 0.32 0.36 0.34 0.28 0.26 0.28 0.31 0.31 0.32 0.36 0.43 0.55 0.70 0.94 1.23 1.55 1.68 1.44 1.23 1.09 0.90 0.78 0.63 0.58 0.59 0.52 0.45 0.40 0.43 0.37 0.31
0.27 0.26 0.25 0.29 0.37 0.43 0.37 0.26 0.23 0.24 0.27 0.29 0.32 0.36 0.39 0.37 0.27 0.21 0.26 0.27 0.28 0.30 0.32 0.38 0.50 0.69 0.95 1.25 1.57 1.69 1.41 1.08 0.95 0.80 0.67 0.57 0.54 0.58 0.57 0.46 0.44 0.47 0.39
0.34 0.30 0.25 0.29 0.34 0.45 0.45 0.31 0.27 0.28 0.31 0.35 0.46 0.50 0.45 0.39 0.32 0.21 0.23 0.27 0.26 0.26 0.30 0.31 0.34 0.45 0.62 0.87 1.19 1.37 1.38 1.09 0.87 0.77 0.57 0.49 0.49 0.51 0.56 0.50 0.40 0.39 0.39

GEFSMA_prec_meanprecacc_078.txt.gz
Total_Precipitation_Accumulation
1.45 1.55 1.38 1.22 1.08 1.36 1.64 1.68 1.54 1.62 1.61 1.68 1.62 1.58 1.49 1.09 0.87 0.90 0.98 1.28 1.27 1.21 1.28 1.39 1.34 1.23 1.19 1.07 0.95 0.83 0.70 0.66 0.62 0.55 0.48 0.40 0.34 0.27 0.23 0.14 0.08 0.04 0.02
1.34 1.39 1.33 1.22 1.17 1.34 1.53 1.57 1.54 1.72 1.77 1.72 1.40 1.29 1.24 1.19 1.07 0.92 1.05 1.26 1.30 1.15 1.18 1.37 1.45 1.43 1.46 1.35 1.17 1.05 0.89 0.76 0.63 0.50 0.45 0.44 0.36 0.28 0.30 0.33 0.37 0.12 0.02
1.05 1.16 1.17 1.15 1.19 1.24 1.29 1.27 1.29 1.48 1.44 1.32 1.16 1.09 1.09 1.06 1.06 1.02 0.94 1.00 1.15 1.17 1.09 1.19 1.30 1.32 1.41 1.47 1.40 1.21 1.02 0.84 0.67 0.47 0.38 0.37 0.34 0.24 0.21 0.29 0.35 0.18 0.07
0.80 0.87 0.85 0.89 0.94 1.00 1.01 0.97 1.00 1.11 1.17 1.25 1.24 1.07 1.12 1.11 1.03 1.09 1.10 0.99 1.06 1.05 1.26 1.34 1.31 1.24 1.34 1.50 1.56 1.47 1.21 0.92 0.73 0.56 0.43 0.33 0.31 0.25 0.20 0.20 0.20 0.18 0.11
0.71 0.76 0.74 0.74 0.71 0.74 0.76 0.73 0.80 0.90 0.96 1.02 0.98 0.99 0.95 0.93 0.88 0.89 1.02 0.90 0.94 1.03 1.16 1.26 1.33 1.28 1.40 1.59 1.78 1.90 1.66 1.19 0.87 0.73 0.67 0.56 0.44 0.32 0.26 0.26 0.21 0.16 0.14
0.61 0.60 0.58 0.54 0.51 0.52 0.55 0.59 0.69 0.78 0.80 0.85 0.79 0.80 0.78 0.70 0.69 0.71 0.69 0.71 0.77 0.76 0.90 1.09 1.24 1.06 1.25 1.49 1.70 1.89 1.90 1.68 1.28 0.96 0.85 0.76 0.65 0.46 0.28 0.23 0.24 0.21 0.17
0.52 0.47 0.41 0.40 0.37 0.36 0.39 0.41 0.48 0.56 0.59 0.67 0.74 0.72 0.64 0.59 0.58 0.58 0.55 0.54 0.56 0.68 0.82 0.97 1.04 1.03 0.94 0.98 1.02 1.23 1.58 1.87 1.74 1.34 1.06 0.90 0.83 0.63 0.37 0.27 0.24 0.24 0.21
0.40 0.39 0.37 0.36 0.35 0.34 0.34 0.36 0.42 0.45 0.47 0.54 0.60 0.59 0.54 0.51 0.52 0.45 0.52 0.52 0.52 0.68 0.77 0.77 0.85 0.94 0.79 0.92 0.73 0.82 1.15 1.47 1.77 1.72 1.40 1.08 0.92 0.75 0.55 0.41 0.31 0.27 0.24
0.26 0.29 0.33 0.36 0.35 0.31 0.30 0.32 0.34 0.35 0.36 0.38 0.48 0.53 0.49 0.44 0.40 0.39 0.43 0.47 0.53 0.61 0.63 0.73 0.70 0.68 0.74 0.78 0.77 0.72 0.93 1.05 1.41 1.77 1.74 1.43 1.14 0.90 0.76 0.65 0.51 0.35 0.28
0.16 0.18 0.24 0.29 0.30 0.31 0.31 0.25 0.26 0.31 0.32 0.28 0.32 0.40 0.38 0.39 0.44 0.42 0.39 0.45 0.53 0.52 0.51 0.55 0.57 0.59 0.63 0.67 0.69 0.61 0.59 0.73 1.08 1.53 1.76 1.70 1.45 1.14 0.99 0.96 1.06 0.92 0.60
0.20 0.17 0.17 0.22 0.27 0.33 0.38 0.34 0.32 0.30 0.29 0.26 0.26 0.34 0.34 0.30 0.35 0.42 0.40 0.40 0.44 0.38 0.36 0.37 0.38 0.45 0.49 0.57 0.66 0.61 0.52 0.60 0.77 1.06 1.32 1.50 1.51 1.40 1.25 1.24 1.52 1.65 1.44
0.29 0.27 0.27 0.30 0.33 0.33 0.34 0.36 0.39 0.38 0.36 0.33 0.26 0.29 0.42 0.39 0.29 0.35 0.35 0.39 0.39 0.28 0.30 0.34 0.36 0.40 0.47 0.57 0.58 0.52 0.60 0.68 0.69 0.74 0.88 1.03 1.20 1.29 1.35 1.44 1.61 1.83 1.88
0.27 0.29 0.29 0.33 0.37 0.37 0.34 0.32 0.33 0.39 0.45 0.45 0.35 0.27 0.30 0.42 0.37 0.31 0.31 0.30 0.33 0.33 0.36 0.39 0.43 0.50 0.59 0.79 0.70 0.63 0.62 0.67 0.68 0.68 0.68 0.71 0.78 0.88 1.00 1.17 1.39 1.62 1.83
0.29 0.27 0.25 0.25 0.28 0.31 0.32 0.30 0.26 0.27 0.34 0.43 0.45 0.46 0.41 0.35 0.42 0.37 0.31 0.33 0.38 0.43 0.50 0.51 0.60 0.69 0.81 0.90 0.90 0.73 0.56 0.48 0.43 0.44 0.44 0.45 0.49 0.56 0.66 0.76 0.90 1.08 1.23
0.26 0.24 0.22 0.20 0.20 0.23 0.26 0.28 0.26 0.27 0.27 0.29 0.36 0.49 0.51 0.41 0.38 0.39 0.38 0.43 0.56 0.54 0.56 0.68 0.84 0.90 0.84 0.85 0.77 0.65 0.48 0.43 0.38 0.34 0.33 0.34 0.35 0.38 0.43 0.47 0.52 0.63 0.74
0.21 0.20 0.17 0.14 0.14 0.15 0.17 0.22 0.25 0.28 0.33 0.36 0.37 0.43 0.54 0.58 0.51 0.48 0.48 0.53 0.66 0.66 0.66 0.72 0.85 0.88 0.77 0.62 0.57 0.58 0.49 0.47 0.42 0.34 0.29 0.29 0.31 0.32 0.31 0.34 0.33 0.34 0.38
0.21 0.20 0.18 0.15 0.12 0.12 0.15 0.18 0.21 0.27 0.33 0.42 0.51 0.51 0.50 0.62 0.70 0.65 0.63 0.64 0.68 0.74 0.73 0.70 0.83 0.87 0.76 0.57 0.50 0.51 0.52 0.53 0.44 0.39 0.32 0.28 0.29 0.30 0.30 0.31 0.32 0.30 0.28
0.22 0.21 0.20 0.17 0.12 0.10 0.12 0.14 0.16 0.21 0.29 0.39 0.55 0.71 0.72 0.67 0.65 0.64 0.63 0.64 0.70 0.81 0.82 0.73 0.78 0.86 0.82 0.72 0.61 0.52 0.45 0.46 0.49 0.49 0.42 0.36 0.32 0.31 0.29 0.29 0.29 0.29 0.30
0.17 0.19 0.19 0.18 0.16 0.14 0.13 0.11 0.12 0.15 0.20 0.25 0.38 0.61 0.80 0.93 0.86 0.67 0.58 0.56 0.64 0.78 0.88 0.83 0.83 0.95 0.98 0.88 0.72 0.56 0.46 0.43 0.42 0.45 0.46 0.41 0.36 0.34 0.32 0.29 0.28 0.27 0.24
0.10 0.15 0.19 0.20 0.19 0.17 0.15 0.13 0.14 0.15 0.16 0.19 0.26 0.36 0.49 0.70 0.86 0.91 0.78 0.65 0.64 0.72 0.81 0.84 0.96 1.18 1.21 1.09 0.83 0.66 0.58 0.49 0.44 0.38 0.37 0.37 0.36 0.33 0.31 0.31 0.28 0.25 0.24
0.11 0.15 0.21 0.22 0.22 0.19 0.13 0.14 0.17 0.15 0.17 0.18 0.21 0.26 0.28 0.36 0.49 0.65 0.77 0.82 0.80 0.74 0.79 0.86 1.10 1.51 1.55 1.29 0.92 0.73 0.67 0.64 0.54 0.46 0.39 0.32 0.30 0.27 0.26 0.29 0.31 0.29 0.26
0.16 0.19 0.22 0.25 0.25 0.18 0.14 0.12 0.14 0.17 0.22 0.26 0.27 0.28 0.25 0.23 0.26 0.36 0.47 0.61 0.76 0.80 0.80 0.86 1.07 1.38 1.55 1.44 1.18 0.98 0.76 0.63 0.58 0.54 0.48 0.44 0.39 0.34 0.29 0.25 0.27 0.28 0.28
0.24 0.25 0.25 0.32 0.35 0.33 0.23 0.15 0.12 0.16 0.22 0.28 0.34 0.38 0.26 0.16 0.23 0.29 0.34 0.40 0.48 0.58 0.71 0.80 0.95 1.17 1.46 1.59 1.43 1.07 0.90 0.81 0.65 0.59 0.57 0.54 0.51 0.45 0.39 0.34 0.36 0.30 0.29
0.31 0.31 0.30 0.35 0.43 0.41 0.35 0.25 0.19 0.20 0.24 0.28 0.33 0.38 0.37 0.30 0.29 0.33 0.37 0.36 0.36 0.38 0.44 0.56 0.70 0.94 1.23 1.55 1.69 1.45 1.25 1.10 0.91 0.78 0.64 0.59 0.59 0.52 0.45 0.40 0.43 0.37 0.31
0.32 0.31 0.30 0.33 0.42 0.47 0.41 0.30 0.27 0.26 0.28 0.31 0.34 0.39 0.43 0.40 0.31 0.26 0.32 0.34 0.34 0.34 0.34 0.39 0.51 0.70 0.95 1.25 1.58 1.70 1.42 1.09 0.95 0.80 0.67 0.58 0.54 0.58 0.57 0.46 0.44 0.47 0.39
0.39 0.35 0.31 0.34 0.39 0.50 0.50 0.35 0.31 0.30 0.33 0.37 0.49 0.54 0.49 0.43 0.36 0.25 0.28 0.33 0.32 0.30 0.36 0.37 0.39 0.48 0.63 0.87 1.20 1.38 1.39 1.10 0.87 0.77 0.57 0.50 0.49 0.51 0.56 0.50 0.40 0.39 0.39

GEFSMA_prec_meanprecacc_084.txt.gz
Total_Precipitation_Accumulation
1.46 1.55 1.39 1.23 1.09 1.36 1.64 1.69 1.55 1.64 1.64 1.72 1.69 1.67 1.65 1.31 1.12 1.09 1.14 1.37 1.35 1.28 1.34 1.42 1.37 1.25 1.21 1.08 0.96 0.84 0.71 0.67 0.63 0.56 0.49 0.40 0.35 0.28 0.23 0.15 0.09 0.04 0.03
1.34 1.39 1.33 1.23 1.18 1.34 1.53 1.57 1.55 1.73 1.79 1.75 1.45 1.37 1.35 1.36 1.24 1.03 1.14 1.33 1.37 1.22 1.25 1.43 1.50 1.46 1.49 1.38 1.19 1.06 0.91 0.77 0.64 0.50 0.45 0.44 0.36 0.29 0.31 0.34 0.38 0.13 0.03
1.05 1.16 1.18 1.15 1.19 1.25 1.30 1.28 1.29 1.48 1.45 1.33 1.18 1.13 1.16 1.15 1.15 1.14 1.02 1.05 1.19 1.25 1.16 1.26 1.36 1.38 1.47 1.52 1.43 1.24 1.05 0.86 0.68 0.48 0.38 0.37 0.34 0.24 0.21 0.29 0.35 0.18 0.07
0.80 0.87 0.85 0.89 0.95 1.00 1.01 0.98 1.01 1.11 1.17 1.26 1.25 1.10 1.16 1.16 1.08 1.20 1.21 1.05 1.10 1.09 1.31 1.41 1.38 1.31 1.41 1.56 1.61 1.53 1.25 0.95 0.75 0.58 0.44 0.34 0.32 0.25 0.20 0.20 0.21 0.18 0.11
0.71 0.76 0.74 0.74 0.72 0.74 0.76 0.73 0.81 0.91 0.96 1.03 0.99 1.01 0.98 0.96 0.90 0.92 1.07 0.95 0.99 1.08 1.21 1.31 1.38 1.34 1.48 1.68 1.87 1.99 1.74 1.25 0.91 0.76 0.69 0.58 0.46 0.33 0.27 0.26 0.21 0.17 0.14
0.61 0.60 0.58 0.54 0.51 0.52 0.55 0.59 0.69 0.78 0.80 0.85 0.80 0.81 0.79 0.71 0.71 0.74 0.72 0.75 0.82 0.81 0.95 1.13 1.27 1.09 1.31 1.58 1.79 1.99 2.02 1.78 1.35 1.01 0.90 0.80 0.67 0.47 0.29 0.24 0.24 0.21 0.17
0.52 0.47 0.41 0.40 0.37 0.36 0.39 0.41 0.48 0.56 0.59 0.67 0.75 0.72 0.65 0.60 0.59 0.58 0.56 0.55 0.58 0.70 0.86 1.00 1.07 1.05 0.96 1.03 1.08 1.30 1.68 1.98 1.82 1.40 1.11 0.95 0.88 0.66 0.39 0.28 0.24 0.25 0.21
0.40 0.39 0.37 0.36 0.35 0.34 0.34 0.36 0.42 0.45 0.47 0.54 0.60 0.59 0.54 0.52 0.53 0.46 0.52 0.52 0.52 0.68 0.78 0.79 0.87 0.95 0.80 0.93 0.74 0.85 1.21 1.55 1.85 1.79 1.47 1.14 0.98 0.79 0.59 0.44 0.32 0.27 0.25
0.26 0.29 0.33 0.36 0.35 0.31 0.30 0.32 0.34 0.36 0.36 0.38 0.48 0.53 0.49 0.45 0.41 0.39 0.43 0.47 0.53 0.61 0.64 0.73 0.70 0.69 0.75 0.79 0.77 0.74 0.97 1.10 1.48 1.85 1.82 1.49 1.18 0.95 0.82 0.70 0.55 0.38 0.30
0.16 0.18 0.24 0.29 0.30 0.31 0.31 0.25 0.26 0.31 0.32 0.28 0.32 0.40 0.38 0.39 0.44 0.42 0.40 0.45 0.53 0.52 0.51 0.55 0.58 0.60 0.63 0.68 0.70 0.62 0.60 0.75 1.13 1.60 1.84 1.76 1.51 1.17 1.02 1.02 1.13 0.99 0.66
0.20 0.17 0.17 0.22 0.27 0.33 0.38 0.35 0.32 0.30 0.29 0.26 0.26 0.34 0.34 0.30 0.35 0.42 0.41 0.40 0.44 0.38 0.36 0.37 0.38 0.45 0.49 0.57 0.66 0.62 0.52 0.61 0.78 1.08 1.35 1.55 1.57 1.46 1.31 1.29 1.58 1.73 1.53
0.29 0.27 0.27 0.30 0.33 0.33 0.34 0.36 0.39 0.38 0.36 0.33 0.26 0.29 0.42 0.39 0.29 0.35 0.35 0.39 0.39 0.28 0.30 0.34 0.36 0.40 0.47 0.57 0.58 0.52 0.60 0.68 0.70 0.75 0.89 1.05 1.22 1.32 1.39 1.49 1.66 1.90 1.96
0.27 0.29 0.29 0.33 0.37 0.37 0.34 0.32 0.33 0.39 0.45 0.45 0.35 0.27 0.30 0.42 0.37 0.31 0.31 0.30 0.33 0.33 0.36 0.39 0.43 0.50 0.59 0.79 0.70 0.63 0.62 0.67 0.68 0.68 0.68 0.71 0.78 0.89 1.01 1.19 1.42 1.66 1.88
0.29 0.27 0.25 0.25 0.28 0.31 0.32 0.30 0.26 0.27 0.34 0.43 0.45 0.46 0.41 0.35 0.42 0.37 0.31 0.33 0.38 0.43 0.50 0.51 0.60 0.69 0.81 0.90 0.90 0.73 0.56 0.48 0.43 0.44 0.44 0.45 0.49 0.56 0.67 0.77 0.90 1.09 1.24
0.26 0.24 0.22 0.20 0.20 0.23 0.26 0.28 0.26 0.27 0.27 0.29 0.36 0.49 0.51 0.41 0.38 0.39 0.38 0.43 0.56 0.54 0.57 0.68 0.84 0.90 0.84 0.85 0.77 0.65 0.48 0.43 0.38 0.34 0.33 0.34 0.35 0.38 0.43 0.48 0.53 0.64 0.75
0.22 0.20 0.17 0.14 0.14 0.15 0.17 0.22 0.25 0.28 0.33 0.36 0.37 0.43 0.54 0.58 0.51 0.48 0.48 0.53 0.66 0.66 0.66 0.72 0.85 0.88 0.77 0.62 0.57 0.58 0.49 0.47 0.42 0.34 0.29 0.29 0.31 0.32 0.31 0.34 0.33 0.34 0.38
0.21 0.20 0.18 0.15 0.12 0.12 0.15 0.18 0.21 0.27 0.33 0.42 0.51 0.51 0.50 0.62 0.70 0.65 0.63 0.64 0.68 0.74 0.73 0.70 0.83 0.87 0.76 0.57 0.50 0.51 0.52 0.53 0.44 0.39 0.32 0.28 0.29 0.30 0.30 0.31 0.32 0.30 0.28
0.23 0.22 0.20 0.17 0.12 0.10 0.12 0.14 0.16 0.21 0.29 0.39 0.55 0.71 0.72 0.67 0.65 0.64 0.63 0.64 0.70 0.81 0.82 0.73 0.78 0.86 0.82 0.72 0.61 0.52 0.45 0.46 0.49 0.49 0.42 0.36 0.32 0.31 0.29 0.29 0.29 0.29 0.30
0.19 0.21 0.20 0.19 0.16 0.14 0.13 0.12 0.12 0.15 0.20 0.25 0.38 0.61 0.80 0.93 0.86 0.67 0.58 0.56 0.64 0.79 0.88 0.83 0.83 0.95 0.98 0.88 0.72 0.56 0.46 0.43 0.42 0.45 0.46 0.41 0.36 0.34 0.32 0.29 0.28 0.27 0.24
0.13 0.18 0.22 0.23 0.21 0.19 0.16 0.14 0.14 0.15 0.16 0.19 0.26 0.36 0.49 0.70 0.86 0.92 0.79 0.66 0.65 0.73 0.81 0.85 0.96 1.18 1.21 1.09 0.84 0.66 0.58 0.49 0.44 0.38 0.37 0.37 0.36 0.33 0.31 0.31 0.28 0.25 0.24
0.17 0.23 0.29 0.29 0.27 0.24 0.18 0.17 0.20 0.17 0.18 0.18 0.21 0.26 0.29 0.37 0.50 0.68 0.79 0.84 0.82 0.76 0.80 0.87 1.10 1.52 1.55 1.29 0.92 0.74 0.67 0.64 0.54 0.46 0.39 0.32 0.30 0.27 0.26 0.29 0.31 0.29 0.26
0.33 0.34 0.38 0.40 0.38 0.30 0.24 0.20 0.19 0.20 0.24 0.28 0.29 0.29 0.26 0.25 0.29 0.39 0.52 0.66 0.81 0.84 0.83 0.88 1.08 1.39 1.55 1.44 1.19 0.99 0.77 0.64 0.58 0.54 0.48 0.44 0.39 0.34 0.29 0.25 0.27 0.28 0.28
0.47 0.47 0.49 0.53 0.52 0.50 0.40 0.29 0.22 0.23 0.27 0.32 0.38 0.42 0.29 0.19 0.26 0.32 0.39 0.45 0.52 0.63 0.76 0.84 0.98 1.18 1.47 1.60 1.45 1.09 0.92 0.82 0.65 0.59 0.57 0.54 0.51 0.45 0.39 0.34 0.36 0.30 0.29
0.53 0.53 0.52 0.54 0.60 0.58 0.50 0.38 0.30 0.29 0.32 0.34 0.39 0.43 0.41 0.33 0.33 0.37 0.41 0.40 0.39 0.40 0.47 0.60 0.73 0.96 1.25 1.57 1.72 1.48 1.27 1.12 0.91 0.78 0.64 0.59 0.59 0.52 0.45 0.40 0.43 0.37 0.31
0.46 0.43 0.42 0.44 0.52 0.56 0.51 0.40 0.37 0.34 0.34 0.36 0.39 0.43 0.47 0.44 0.34 0.29 0.34 0.35 0.36 0.36 0.35 0.41 0.53 0.71 0.97 1.27 1.62 1.74 1.45 1.11 0.96 0.80 0.67 0.58 0.54 0.58 0.57 0.46 0.44 0.47 0.39
0.50 0.45 0.41 0.44 0.48 0.60 0.59 0.46 0.42 0.38 0.40 0.43 0.54 0.57 0.52 0.45 0.38 0.26 0.29 0.34 0.32 0.31 0.37 0.39 0.41 0.49 0.64 0.89 1.23 1.43 1.42 1.13 0.89 0.78 0.57 0.51 0.49 0.52 0.57 0.50 0.40 0.39 0.39

GEFSMA_prec_meanprecacc_090.txt.gz
Total_Precipitation_Accumulation
1.48 1.57 1.41 1.24 1.10 1.38 1.66 1.71 1.56 1.66 1.67 1.76 1.73 1.70 1.68 1.34 1.15 1.11 1.15 1.42 1.40 1.34 1.41 1.48 1.42 1.30 1.26 1.13 1.00 0.87 0.74 0.69 0.64 0.56 0.49 0.41 0.35 0.28 0.24 0.15 0.09 0.05 0.03
1.35 1.40 1.34 1.23 1.19 1.36 1.55 1.59 1.56 1.75 1.82 1.80 1.50 1.42 1.38 1.38 1.28 1.07 1.16 1.37 1.43 1.31 1.35 1.53 1.59 1.55 1.58 1.46 1.25 1.11 0.94 0.80 0.66 0.51 0.46 0.45 0.37 0.29 0.31 0.34 0.38 0.13 0.03
1.06 1.17 1.18 1.16 1.20 1.26 1.31 1.29 1.30 1.50 1.46 1.35 1.21 1.16 1.18 1.18 1.19 1.17 1.05 1.08 1.23 1.33 1.27 1.39 1.48 1.49 1.58 1.61 1.51 1.32 1.11 0.91 0.72 0.50 0.39 0.38 0.35 0.25 0.22 0.30 0.36 0.18 0.07
0.80 0.87 0.85 0.89 0.95 1.00 1.02 0.99 1.02 1.12 1.18 1.26 1.27 1.12 1.19 1.20 1.13 1.23 1.24 1.09 1.14 1.13 1.39 1.54 1.51 1.43 1.56 1.72 1.77 1.64 1.34 1.02 0.81 0.62 0.47 0.37 0.34 0.26 0.21 0.21 0.22 0.19 0.12
0.71 0.76 0.74 0.74 0.72 0.75 0.77 0.73 0.81 0.91 0.97 1.03 1.00 1.02 0.99 0.99 0.94 0.95 1.11 0.99 1.02 1.11 1.26 1.39 1.49 1.44 1.62 1.86 2.07 2.16 1.89 1.35 0.99 0.82 0.74 0.62 0.49 0.36 0.29 0.28 0.23 0.18 0.15
0.62 0.60 0.58 0.55 0.51 0.52 0.56 0.60 0.69 0.78 0.80 0.85 0.80 0.82 0.80 0.73 0.72 0.76 0.74 0.77 0.84 0.83 0.97 1.17 1.32 1.15 1.42 1.73 1.96 2.17 2.22 1.95 1.48 1.12 0.98 0.89 0.75 0.52 0.33 0.27 0.26 0.23 0.18
0.52 0.47 0.41 0.41 0.37 0.37 0.39 0.41 0.48 0.56 0.59 0.67 0.75 0.73 0.65 0.61 0.60 0.59 0.57 0.57 0.59 0.71 0.87 1.03 1.10 1.07 0.99 1.09 1.16 1.41 1.83 2.12 1.95 1.52 1.21 1.06 0.97 0.73 0.44 0.32 0.28 0.27 0.23
0.40 0.39 0.37 0.36 0.35 0.35 0.34 0.36 0.42 0.45 0.47 0.54 0.60 0.59 0.54 0.52 0.53 0.46 0.52 0.53 0.53 0.69 0.79 0.80 0.88 0.96 0.82 0.95 0.77 0.91 1.29 1.65 1.98 1.93 1.57 1.22 1.06 0.87 0.65 0.49 0.36 0.30 0.28
0.26 0.29 0.33 0.36 0.35 0.31 0.30 0.33 0.34 0.36 0.36 0.38 0.48 0.53 0.49 0.45 0.41 0.39 0.43 0.47 0.54 0.62 0.64 0.74 0.71 0.69 0.76 0.80 0.78 0.76 1.01 1.15 1.56 1.97 1.93 1.58 1.24 1.00 0.86 0.75 0.60 0.42 0.33
0.16 0.18 0.24 0.29 0.30 0.31 0.31 0.25 0.26 0.31 0.32 0.28 0.32 0.40 0.38 0.39 0.44 0.42 0.40 0.45 0.53 0.52 0.51 0.56 0.58 0.60 0.63 0.68 0.70 0.63 0.61 0.77 1.18 1.67 1.93 1.85 1.58 1.22 1.07 1.07 1.19 1.05 0.71
0.20 0.17 0.17 0.22 0.27 0.33 0.38 0.35 0.32 0.30 0.29 0.26 0.26 0.34 0.34 0.30 0.35 0.42 0.41 0.40 0.44 0.38 0.36 0.37 0.38 0.45 0.49 0.57 0.67 0.62 0.53 0.63 0.80 1.11 1.39 1.60 1.62 1.52 1.36 1.35 1.65 1.80 1.60
0.29 0.27 0.27 0.30 0.33 0.33 0.34 0.36 0.39 0.38 0.36 0.33 0.26 0.29 0.42 0.39 0.29 0.35 0.35 0.39 0.39 0.28 0.30 0.34 0.36 0.40 0.47 0.57 0.58 0.53 0.61 0.69 0.70 0.75 0.90 1.06 1.24 1.35 1.43 1.54 1.72 1.97 2.04
0.27 0.29 0.29 0.33 0.37 0.37 0.34 0.32 0.33 0.39 0.45 0.45 0.35 0.27 0.30 0.42 0.37 0.31 0.31 0.30 0.33 0.33 0.36 0.39 0.43 0.50 0.59 0.79 0.70 0.63 0.62 0.68 0.68 0.68 0.68 0.71 0.79 0.90 1.03 1.22 1.46 1.71 1.94
0.29 0.27 0.25 0.25 0.28 0.31 0.32 0.30 0.26 0.27 0.34 0.43 0.45 0.46 0.41 0.35 0.42 0.37 0.31 0.33 0.38 0.43 0.50 0.51 0.60 0.69 0.81 0.90 0.90 0.73 0.56 0.48 0.43 0.44 0.44 0.45 0.49 0.57 0.67 0.77 0.91 1.10 1.26
0.26 0.24 0.22 0.20 0.20 0.23 0.26 0.28 0.26 0.27 0.27 0.29 0.36 0.49 0.51 0.41 0.38 0.39 0.38 0.43 0.56 0.54 0.57 0.68 0.84 0.90 0.84 0.85 0.77 0.65 0.48 0.43 0.38 0.34 0.33 0.34 0.35 0.38 0.43 0.48 0.53 0.64 0.75
0.22 0.20 0.17 0.14 0.14 0.15 0.17 0.22 0.25 0.28 0.33 0.36 0.37 0.43 0.54 0.58 0.51 0.48 0.48 0.53 0.66 0.66 0.66 0.72 0.85 0.88 0.77 0.62 0.57 0.58 0.49 0.47 0.42 0.34 0.29 0.29 0.31 0.32 0.31 0.34 0.33 0.34 0.38
0.21 0.20 0.18 0.15 0.12 0.12 0.15 0.18 0.21 0.27 0.33 0.42 0.51 0.51 0.50 0.62 0.70 0.65 0.63 0.64 0.68 0.74 0.73 0.70 0.83 0.87 0.76 0.57 0.50 0.51 0.52 0.53 0.44 0.39 0.32 0.28 0.29 0.30 0.30 0.31 0.32 0.30 0.28
0.23 0.22 0.20 0.17 0.13 0.10 0.12 0.14 0.16 0.21 0.29 0.39 0.55 0.71 0.72 0.67 0.65 0.64 0.63 0.64 0.70 0.81 0.82 0.73 0.78 0.86 0.82 0.72 0.61 0.52 0.45 0.46 0.49 0.49 0.42 0.36 0.32 0.31 0.29 0.29 0.29 0.29 0.30
0.20 0.22 0.21 0.20 0.17 0.14 0.13 0.12 0.13 0.15 0.20 0.25 0.38 0.62 0.80 0.94 0.86 0.67 0.58 0.56 0.64 0.79 0.88 0.83 0.83 0.95 0.98 0.88 0.72 0.56 0.46 0.43 0.42 0.45 0.46 0.41 0.36 0.34 0.32 0.29 0.28 0.27 0.24
0.16 0.19 0.23 0.24 0.22 0.20 0.17 0.15 0.15 0.15 0.16 0.19 0.26 0.36 0.49 0.70 0.87 0.92 0.79 0.66 0.66 0.73 0.82 0.85 0.96 1.18 1.21 1.09 0.84 0.66 0.58 0.49 0.44 0.38 0.37 0.37 0.36 0.33 0.31 0.31 0.28 0.25 0.24
0.25 0.30 0.34 0.33 0.31 0.28 0.20 0.20 0.22 0.19 0.21 0.20 0.22 0.27 0.29 0.38 0.51 0.69 0.80 0.86 0.84 0.77 0.80 0.87 1.10 1.52 1.55 1.29 0.93 0.74 0.67 0.64 0.54 0.46 0.39 0.32 0.30 0.27 0.26 0.29 0.31 0.29 0.26
0.48 0.52 0.53 0.54 0.50 0.40 0.33 0.28 0.26 0.25 0.28 0.31 0.32 0.32 0.29 0.27 0.31 0.41 0.54 0.68 0.83 0.86 0.85 0.90 1.09 1.40 1.55 1.44 1.20 0.99 0.77 0.64 0.58 0.54 0.48 0.44 0.39 0.34 0.29 0.25 0.27 0.28 0.28
0.62 0.64 0.64 0.66 0.64 0.63 0.52 0.40 0.31 0.30 0.32 0.36 0.42 0.46 0.33 0.22 0.29 0.34 0.41 0.48 0.55 0.66 0.78 0.87 0.99 1.19 1.47 1.61 1.46 1.09 0.92 0.82 0.66 0.59 0.57 0.54 0.51 0.45 0.39 0.34 0.36 0.30 0.29
0.60 0.60 0.60 0.61 0.67 0.65 0.58 0.45 0.36 0.34 0.37 0.39 0.43 0.47 0.45 0.36 0.35 0.39 0.44 0.42 0.41 0.42 0.49 0.62 0.74 0.97 1.26 1.58 1.73 1.49 1.28 1.12 0.92 0.79 0.64 0.59 0.59 0.52 0.45 0.40 0.43 0.37 0.31
0.53 0.49 0.47 0.50 0.58 0.63 0.58 0.47 0.44 0.40 0.40 0.41 0.43 0.47 0.50 0.46 0.37 0.31 0.36 0.37 0.37 0.37 0.37 0.43 0.54 0.72 0.97 1.28 1.63 1.75 1.46 1.12 0.96 0.80 0.68 0.58 0.54 0.58 0.57 0.46 0.44 0.47 0.39
0.58 0.53 0.48 0.50 0.53 0.64 0.64 0.50 0.47 0.44 0.45 0.48 0.59 0.63 0.57 0.49 0.41 0.28 0.30 0.35 0.33 0.32 0.38 0.40 0.42 0.49 0.65 0.90 1.24 1.43 1.43 1.13 0.89 0.78 0.58 0.51 0.50 0.52 0.57 0.50 0.40 0.39 0.39

GEFSMA_prec_meanprecacc_096.txt.gz
Total_Precipitation_Accumulation
1.54 1.63 1.46 1.30 1.16 1.43 1.72 1.75 1.59 1.70 1.72 1.79 1.75 1.73 1.72 1.38 1.18 1.15 1.20 1.48 1.47 1.41 1.49 1.56 1.49 1.37 1.32 1.19 1.04 0.90 0.77 0.72 0.65 0.58 0.51 0.43 0.36 0.28 0.24 0.15 0.09 0.05 0.03
1.42 1.47 1.40 1.29 1.23 1.39 1.59 1.62 1.60 1.79 1.88 1.85 1.55 1.47 1.43 1.44 1.34 1.13 1.22 1.43 1.51 1.38 1.42 1.62 1.69 1.65 1.66 1.53 1.32 1.16 0.97 0.83 0.68 0.52 0.47 0.46 0.38 0.30 0.32 0.35 0.38 0.13 0.03
1.11 1.22 1.23 1.19 1.23 1.28 1.34 1.32 1.33 1.53 1.50 1.40 1.26 1.21 1.23 1.24 1.26 1.24 1.13 1.17 1.32 1.40 1.34 1.46 1.56 1.59 1.70 1.72 1.60 1.41 1.18 0.96 0.75 0.53 0.41 0.40 0.36 0.26 0.23 0.31 0.36 0.19 0.08
0.85 0.92 0.89 0.92 0.97 1.03 1.04 1.01 1.03 1.14 1.22 1.31 1.30 1.16 1.25 1.28 1.21 1.32 1.34 1.19 1.24 1.22 1.46 1.59 1.56 1.49 1.64 1.82 1.88 1.74 1.43 1.09 0.86 0.66 0.50 0.39 0.35 0.28 0.22 0.22 0.23 0.20 0.12
0.74 0.81 0.78 0.77 0.74 0.77 0.78 0.75 0.82 0.93 1.00 1.07 1.02 1.06 1.03 1.04 1.00 1.02 1.18 1.06 1.08 1.19 1.35 1.47 1.54 1.49 1.68 1.94 2.18 2.28 2.01 1.46 1.06 0.88 0.78 0.65 0.52 0.38 0.30 0.29 0.24 0.19 0.15
0.65 0.63 0.60 0.56 0.52 0.53 0.58 0.62 0.71 0.80 0.82 0.87 0.81 0.84 0.81 0.76 0.77 0.80 0.80 0.83 0.90 0.88 1.02 1.21 1.39 1.20 1.46 1.79 2.02 2.25 2.33 2.06 1.58 1.19 1.04 0.93 0.79 0.56 0.35 0.29 0.28 0.24 0.19
0.54 0.49 0.42 0.42 0.38 0.38 0.41 0.43 0.50 0.58 0.61 0.68 0.76 0.74 0.67 0.63 0.62 0.61 0.60 0.60 0.62 0.75 0.92 1.08 1.16 1.14 1.04 1.12 1.18 1.45 1.88 2.19 2.05 1.61 1.30 1.12 1.03 0.78 0.47 0.34 0.29 0.29 0.24
0.42 0.40 0.39 0.37 0.36 0.35 0.34 0.37 0.43 0.46 0.48 0.55 0.62 0.61 0.56 0.54 0.55 0.47 0.53 0.54 0.55 0.72 0.83 0.83 0.92 1.02 0.87 1.00 0.79 0.93 1.33 1.71 2.07 2.04 1.67 1.30 1.12 0.92 0.69 0.52 0.38 0.32 0.29
0.27 0.30 0.33 0.36 0.35 0.32 0.30 0.33 0.35 0.36 0.36 0.39 0.48 0.55 0.51 0.47 0.42 0.40 0.44 0.48 0.54 0.63 0.66 0.75 0.72 0.72 0.80 0.85 0.82 0.79 1.03 1.17 1.62 2.07 2.02 1.63 1.29 1.04 0.90 0.79 0.63 0.44 0.35
0.17 0.19 0.24 0.30 0.31 0.31 0.31 0.25 0.26 0.31 0.32 0.28 0.32 0.40 0.38 0.40 0.45 0.44 0.40 0.45 0.53 0.52 0.52 0.57 0.58 0.60 0.65 0.71 0.74 0.65 0.62 0.78 1.20 1.71 1.99 1.90 1.62 1.25 1.09 1.10 1.24 1.11 0.76
0.20 0.18 0.18 0.22 0.27 0.34 0.38 0.35 0.33 0.31 0.30 0.26 0.27 0.34 0.35 0.30 0.36 0.43 0.42 0.41 0.44 0.38 0.37 0.38 0.39 0.46 0.51 0.59 0.69 0.63 0.53 0.63 0.80 1.12 1.42 1.63 1.66 1.56 1.40 1.40 1.72 1.90 1.69
0.29 0.28 0.27 0.30 0.33 0.33 0.34 0.37 0.40 0.38 0.36 0.33 0.26 0.29 0.43 0.40 0.30 0.35 0.36 0.40 0.40 0.28 0.30 0.35 0.37 0.40 0.48 0.58 0.59 0.53 0.61 0.69 0.70 0.75 0.90 1.07 1.26 1.38 1.46 1.58 1.78 2.04 2.11
0.27 0.29 0.29 0.34 0.37 0.37 0.34 0.32 0.34 0.39 0.45 0.45 0.35 0.28 0.31 0.42 0.37 0.31 0.31 0.30 0.33 0.33 0.37 0.39 0.43 0.50 0.59 0.79 0.71 0.63 0.62 0.68 0.68 0.68 0.68 0.71 0.80 0.91 1.04 1.23 1.48 1.73 1.97
0.30 0.27 0.25 0.25 0.28 0.31 0.32 0.30 0.26 0.28 0.34 0.43 0.46 0.46 0.41 0.35 0.42 0.37 0.31 0.33 0.38 0.43 0.50 0.51 0.60 0.69 0.81 0.90 0.90 0.73 0.56 0.48 0.43 0.44 0.44 0.45 0.50 0.57 0.67 0.77 0.91 1.10 1.26
0.27 0.25 0.22 0.20 0.20 0.23 0.26 0.28 0.26 0.27 0.27 0.29 0.36 0.49 0.51 0.41 0.38 0.39 0.38 0.43 0.57 0.54 0.57 0.69 0.84 0.90 0.84 0.85 0.77 0.65 0.48 0.43 0.38 0.34 0.33 0.34 0.36 0.38 0.43 0.48 0.53 0.64 0.75
0.22 0.20 0.17 0.15 0.14 0.15 0.17 0.22 0.25 0.28 0.33 0.36 0.37 0.43 0.54 0.58 0.51 0.48 0.48 0.53 0.66 0.66 0.66 0.72 0.85 0.88 0.77 0.62 0.57 0.58 0.49 0.47 0.42 0.34 0.29 0.29 0.31 0.32 0.31 0.34 0.33 0.34 0.38
0.23 0.21 0.19 0.16 0.13 0.13 0.15 0.19 0.22 0.27 0.34 0.42 0.51 0.51 0.51 0.62 0.70 0.65 0.63 0.64 0.68 0.74 0.73 0.70 0.83 0.87 0.76 0.57 0.50 0.52 0.52 0.53 0.44 0.39 0.32 0.28 0.29 0.30 0.30 0.31 0.32 0.30 0.28
0.27 0.25 0.23 0.20 0.15 0.11 0.13 0.16 0.17 0.21 0.30 0.40 0.55 0.71 0.72 0.67 0.65 0.64 0.64 0.65 0.70 0.82 0.82 0.74 0.79 0.87 0.83 0.72 0.61 0.52 0.45 0.46 0.49 0.49 0.42 0.36 0.32 0.31 0.29 0.29 0.29 0.29 0.30
0.25 0.26 0.25 0.24 0.21 0.18 0.16 0.14 0.14 0.17 0.21 0.27 0.40 0.63 0.81 0.95 0.87 0.69 0.60 0.58 0.65 0.80 0.90 0.84 0.83 0.96 0.99 0.89 0.72 0.57 0.46 0.43 0.42 0.45 0.46 0.41 0.36 0.34 0.32 0.29 0.28 0.27 0.24
0.21 0.24 0.27 0.28 0.26 0.23 0.20 0.18 0.19 0.19 0.19 0.21 0.28 0.38 0.51 0.72 0.89 0.95 0.82 0.69 0.68 0.76 0.85 0.87 0.98 1.20 1.23 1.11 0.85 0.67 0.58 0.50 0.44 0.38 0.37 0.37 0.36 0.33 0.31 0.31 0.28 0.25 0.24
0.29 0.34 0.38 0.36 0.34 0.30 0.24 0.24 0.28 0.24 0.26 0.24 0.26 0.29 0.31 0.39 0.53 0.71 0.82 0.89 0.87 0.80 0.84 0.91 1.13 1.55 1.58 1.33 0.96 0.76 0.69 0.65 0.56 0.46 0.40 0.32 0.30 0.27 0.26 0.29 0.31 0.29 0.26
0.54 0.57 0.58 0.58 0.54 0.42 0.37 0.34 0.32 0.31 0.34 0.36 0.36 0.36 0.32 0.30 0.34 0.44 0.56 0.70 0.85 0.89 0.89 0.94 1.13 1.43 1.59 1.49 1.24 1.03 0.80 0.66 0.60 0.56 0.50 0.45 0.40 0.35 0.29 0.25 0.27 0.28 0.28
0.70 0.72 0.72 0.73 0.70 0.67 0.56 0.43 0.36 0.36 0.38 0.41 0.47 0.51 0.37 0.26 0.33 0.38 0.45 0.51 0.58 0.68 0.80 0.89 1.02 1.22 1.50 1.64 1.48 1.11 0.94 0.84 0.67 0.60 0.59 0.55 0.52 0.46 0.39 0.35 0.36 0.30 0.29
0.66 0.65 0.65 0.66 0.72 0.69 0.62 0.47 0.40 0.39 0.42 0.43 0.48 0.52 0.49 0.39 0.38 0.42 0.46 0.44 0.43 0.44 0.51 0.63 0.76 0.98 1.27 1.59 1.74 1.50 1.29 1.13 0.92 0.79 0.65 0.60 0.59 0.53 0.45 0.40 0.43 0.37 0.32
0.57 0.52 0.50 0.54 0.62 0.67 0.63 0.51 0.48 0.45 0.45 0.45 0.47 0.50 0.52 0.48 0.39 0.32 0.37 0.38 0.38 0.38 0.38 0.43 0.54 0.73 0.98 1.29 1.63 1.76 1.47 1.12 0.97 0.81 0.68 0.59 0.54 0.58 0.57 0.46 0.44 0.47 0.40
0.63 0.58 0.54 0.56 0.59 0.70 0.69 0.55 0.52 0.48 0.50 0.52 0.62 0.65 0.59 0.51 0.42 0.30 0.31 0.36 0.35 0.33 0.38 0.40 0.42 0.50 0.65 0.90 1.24 1.44 1.44 1.14 0.91 0.79 0.58 0.52 0.50 0.53 0.58 0.51 0.40 0.39 0.40

GEFSMA_prec_meanprecacc_102.txt.gz
Total_Precipitation_Accumulation
1.60 1.71 1.55 1.39 1.23 1.50 1.77 1.78 1.61 1.73 1.75 1.82 1.79 1.76 1.74 1.42 1.25 1.20 1.27 1.50 1.48 1.43 1.51 1.58 1.53 1.42 1.37 1.23 1.08 0.93 0.79 0.74 0.67 0.60 0.53 0.45 0.37 0.29 0.25 0.16 0.10 0.05 0.04
1.48 1.53 1.46 1.35 1.28 1.45 1.64 1.66 1.62 1.82 1.91 1.89 1.59 1.49 1.44 1.46 1.36 1.18 1.32 1.48 1.53 1.40 1.45 1.65 1.72 1.69 1.69 1.56 1.36 1.19 1.00 0.85 0.70 0.54 0.49 0.48 0.39 0.30 0.33 0.36 0.39 0.14 0.04
1.16 1.27 1.29 1.25 1.27 1.33 1.37 1.34 1.36 1.55 1.53 1.43 1.28 1.22 1.25 1.26 1.29 1.28 1.19 1.25 1.38 1.43 1.36 1.49 1.60 1.63 1.74 1.75 1.64 1.44 1.21 0.98 0.76 0.54 0.43 0.41 0.38 0.27 0.25 0.32 0.37 0.20 0.08
0.87 0.96 0.94 0.97 1.01 1.05 1.06 1.04 1.06 1.16 1.25 1.34 1.34 1.20 1.29 1.31 1.25 1.36 1.37 1.26 1.37 1.33 1.52 1.62 1.60 1.54 1.69 1.86 1.91 1.77 1.46 1.12 0.88 0.68 0.51 0.40 0.36 0.29 0.23 0.23 0.24 0.21 0.13
0.77 0.82 0.81 0.82 0.77 0.78 0.80 0.76 0.84 0.96 1.05 1.11 1.05 1.10 1.06 1.07 1.05 1.05 1.21 1.09 1.14 1.28 1.44 1.53 1.58 1.52 1.72 1.99 2.24 2.34 2.06 1.50 1.09 0.90 0.80 0.67 0.53 0.39 0.31 0.30 0.25 0.19 0.16
0.69 0.66 0.63 0.59 0.53 0.55 0.61 0.66 0.75 0.83 0.85 0.91 0.83 0.88 0.84 0.78 0.80 0.84 0.82 0.85 0.94 0.92 1.12 1.31 1.45 1.23 1.50 1.85 2.08 2.32 2.40 2.12 1.62 1.23 1.08 0.96 0.81 0.57 0.36 0.29 0.29 0.25 0.20
0.59 0.53 0.45 0.45 0.40 0.40 0.43 0.45 0.53 0.61 0.64 0.71 0.81 0.80 0.70 0.65 0.64 0.63 0.61 0.62 0.66 0.79 0.99 1.16 1.23 1.22 1.10 1.15 1.21 1.49 1.94 2.26 2.11 1.66 1.34 1.16 1.07 0.81 0.49 0.35 0.30 0.29 0.25
0.46 0.42 0.41 0.39 0.36 0.37 0.36 0.39 0.45 0.49 0.52 0.57 0.66 0.68 0.63 0.61 0.60 0.49 0.55 0.55 0.58 0.76 0.87 0.87 0.97 1.09 0.92 1.06 0.82 0.94 1.37 1.75 2.12 2.08 1.71 1.34 1.16 0.96 0.72 0.54 0.40 0.33 0.30
0.31 0.33 0.35 0.37 0.36 0.32 0.32 0.34 0.35 0.38 0.40 0.42 0.50 0.58 0.59 0.57 0.52 0.46 0.46 0.48 0.56 0.65 0.68 0.77 0.74 0.75 0.83 0.91 0.89 0.82 1.06 1.20 1.66 2.12 2.06 1.68 1.33 1.08 0.93 0.82 0.67 0.47 0.38
0.22 0.22 0.25 0.30 0.31 0.32 0.32 0.25 0.26 0.32 0.34 0.31 0.34 0.42 0.41 0.46 0.52 0.51 0.45 0.47 0.54 0.54 0.54 0.58 0.59 0.62 0.67 0.75 0.78 0.67 0.63 0.79 1.21 1.74 2.03 1.95 1.65 1.28 1.13 1.14 1.29 1.17 0.80
0.24 0.20 0.19 0.23 0.28 0.34 0.39 0.35 0.33 0.31 0.30 0.27 0.28 0.35 0.36 0.31 0.37 0.46 0.47 0.45 0.46 0.39 0.38 0.39 0.40 0.48 0.52 0.61 0.71 0.64 0.53 0.63 0.81 1.13 1.43 1.65 1.68 1.58 1.43 1.43 1.76 1.94 1.73
0.33 0.30 0.28 0.31 0.35 0.34 0.35 0.37 0.40 0.39 0.37 0.34 0.27 0.29 0.43 0.40 0.30 0.36 0.38 0.42 0.41 0.29 0.30 0.35 0.37 0.41 0.48 0.58 0.59 0.53 0.61 0.69 0.70 0.75 0.90 1.08 1.27 1.39 1.48 1.60 1.80 2.08 2.15
0.30 0.31 0.30 0.36 0.39 0.38 0.35 0.33 0.34 0.39 0.46 0.46 0.36 0.28 0.31 0.42 0.37 0.31 0.31 0.31 0.34 0.33 0.37 0.39 0.43 0.50 0.59 0.80 0.71 0.63 0.62 0.68 0.68 0.68 0.68 0.71 0.80 0.91 1.04 1.24 1.49 1.75 1.99
0.33 0.30 0.27 0.27 0.29 0.32 0.33 0.30 0.26 0.28 0.35 0.44 0.46 0.46 0.42 0.35 0.42 0.37 0.31 0.33 0.38 0.44 0.51 0.51 0.60 0.69 0.81 0.90 0.90 0.73 0.56 0.48 0.43 0.44 0.44 0.45 0.50 0.57 0.67 0.77 0.91 1.10 1.27
0.30 0.27 0.24 0.22 0.21 0.24 0.27 0.28 0.27 0.27 0.28 0.29 0.36 0.49 0.51 0.41 0.38 0.39 0.38 0.43 0.57 0.55 0.57 0.69 0.84 0.90 0.84 0.85 0.77 0.65 0.49 0.43 0.38 0.34 0.33 0.34 0.36 0.38 0.43 0.48 0.53 0.64 0.75
0.26 0.24 0.20 0.18 0.16 0.16 0.19 0.24 0.26 0.29 0.34 0.36 0.38 0.43 0.54 0.58 0.51 0.48 0.48 0.53 0.66 0.66 0.67 0.72 0.85 0.88 0.77 0.62 0.57 0.58 0.49 0.48 0.42 0.34 0.29 0.29 0.31 0.32 0.31 0.34 0.34 0.34 0.38
0.26 0.24 0.22 0.19 0.16 0.15 0.18 0.22 0.24 0.29 0.35 0.44 0.52 0.52 0.51 0.63 0.71 0.65 0.63 0.64 0.68 0.74 0.73 0.70 0.84 0.87 0.76 0.58 0.51 0.52 0.53 0.54 0.45 0.40 0.33 0.29 0.29 0.30 0.30 0.31 0.32 0.31 0.29
0.32 0.30 0.27 0.25 0.18 0.15 0.18 0.20 0.20 0.24 0.34 0.43 0.58 0.74 0.75 0.70 0.69 0.66 0.66 0.67 0.72 0.84 0.85 0.76 0.82 0.90 0.86 0.76 0.66 0.55 0.46 0.47 0.50 0.51 0.43 0.36 0.32 0.31 0.29 0.29 0.29 0.29 0.30
0.33 0.35 0.34 0.32 0.27 0.24 0.23 0.21 0.20 0.23 0.28 0.33 0.45 0.69 0.88 1.01 0.93 0.75 0.66 0.63 0.71 0.85 0.96 0.89 0.88 1.03 1.04 0.95 0.80 0.62 0.49 0.46 0.43 0.46 0.48 0.42 0.37 0.34 0.32 0.29 0.28 0.27 0.25
0.33 0.37 0.40 0.41 0.37 0.33 0.30 0.27 0.29 0.30 0.29 0.30 0.36 0.46 0.58 0.79 0.95 1.01 0.88 0.76 0.75 0.82 0.92 0.94 1.04 1.27 1.31 1.19 0.93 0.74 0.64 0.55 0.48 0.40 0.41 0.42 0.39 0.34 0.32 0.31 0.28 0.25 0.24
0.43 0.50 0.54 0.53 0.49 0.43 0.34 0.34 0.40 0.35 0.38 0.36 0.36 0.38 0.38 0.45 0.58 0.75 0.86 0.94 0.92 0.85 0.90 0.97 1.20 1.62 1.65 1.41 1.03 0.84 0.76 0.71 0.62 0.50 0.44 0.36 0.34 0.31 0.30 0.31 0.32 0.31 0.26
0.73 0.76 0.75 0.72 0.65 0.50 0.43 0.39 0.38 0.38 0.43 0.46 0.45 0.43 0.39 0.35 0.37 0.47 0.59 0.73 0.88 0.92 0.93 1.00 1.19 1.50 1.66 1.55 1.30 1.08 0.85 0.71 0.64 0.59 0.55 0.48 0.41 0.37 0.31 0.27 0.32 0.32 0.30
0.86 0.87 0.85 0.85 0.80 0.76 0.63 0.48 0.40 0.40 0.43 0.48 0.54 0.58 0.43 0.30 0.37 0.42 0.49 0.53 0.60 0.70 0.82 0.91 1.05 1.25 1.53 1.67 1.50 1.13 0.96 0.87 0.69 0.62 0.62 0.57 0.53 0.47 0.39 0.35 0.38 0.31 0.30
0.76 0.74 0.74 0.75 0.81 0.77 0.69 0.53 0.43 0.42 0.46 0.49 0.54 0.57 0.54 0.43 0.42 0.46 0.49 0.47 0.46 0.46 0.53 0.65 0.77 1.00 1.28 1.60 1.75 1.51 1.30 1.14 0.93 0.79 0.66 0.61 0.60 0.54 0.45 0.40 0.44 0.38 0.32
0.65 0.61 0.57 0.60 0.68 0.73 0.67 0.55 0.51 0.48 0.49 0.49 0.50 0.53 0.56 0.51 0.43 0.35 0.40 0.41 0.40 0.41 0.40 0.45 0.55 0.73 0.98 1.29 1.64 1.76 1.48 1.14 0.98 0.81 0.69 0.60 0.55 0.59 0.57 0.46 0.45 0.47 0.40
0.72 0.66 0.60 0.61 0.63 0.72 0.71 0.57 0.54 0.51 0.54 0.56 0.66 0.69 0.63 0.54 0.45 0.33 0.34 0.38 0.37 0.34 0.40 0.41 0.43 0.50 0.65 0.90 1.25 1.44 1.44 1.15 0.91 0.80 0.59 0.53 0.51 0.53 0.58 0.51 0.40 0.39 0.40

GEFSMA_prec_meanprecacc_108.txt.gz
Total_Precipitation_Accumulation
1.62 1.72 1.56 1.41 1.25 1.52 1.78 1.80 1.64 1.77 1.80 1.89 1.86 1.85 1.86 1.58 1.38 1.28 1.32 1.54 1.51 1.46 1.53 1.59 1.54 1.44 1.39 1.26 1.10 0.94 0.80 0.75 0.68 0.61 0.54 0.46 0.37 0.29 0.25 0.16 0.10 0.06 0.04
1.48 1.54 1.48 1.37 1.30 1.46 1.65 1.67 1.64 1.84 1.94 1.94 1.66 1.59 1.58 1.62 1.48 1.27 1.38 1.53 1.58 1.44 1.48 1.67 1.73 1.70 1.71 1.59 1.38 1.21 1.01 0.86 0.70 0.55 0.50 0.49 0.40 0.31 0.33 0.36 0.39 0.14 0.04
1.17 1.28 1.30 1.25 1.28 1.34 1.38 1.35 1.38 1.57 1.55 1.48 1.35 1.31 1.36 1.39 1.40 1.38 1.25 1.28 1.42 1.48 1.41 1.54 1.64 1.67 1.78 1.79 1.66 1.45 1.23 1.00 0.78 0.55 0.43 0.42 0.38 0.28 0.25 0.32 0.38 0.20 0.08
0.89 0.98 0.95 0.97 1.02 1.06 1.06 1.04 1.06 1.18 1.27 1.38 1.38 1.27 1.39 1.43 1.37 1.45 1.44 1.31 1.41 1.36 1.56 1.69 1.66 1.60 1.77 1.95 1.97 1.81 1.49 1.13 0.89 0.69 0.52 0.41 0.37 0.29 0.24 0.24 0.24 0.22 0.13
0.80 0.84 0.81 0.83 0.78 0.79 0.81 0.77 0.85 0.97 1.06 1.13 1.08 1.15 1.13 1.17 1.15 1.15 1.30 1.17 1.22 1.32 1.48 1.57 1.65 1.58 1.79 2.10 2.34 2.42 2.13 1.54 1.12 0.92 0.81 0.68 0.54 0.40 0.32 0.31 0.25 0.20 0.16
0.71 0.69 0.64 0.61 0.55 0.57 0.62 0.66 0.76 0.83 0.86 0.91 0.85 0.91 0.89 0.84 0.88 0.93 0.90 0.94 1.00 0.97 1.16 1.35 1.49 1.27 1.55 1.94 2.18 2.40 2.48 2.18 1.68 1.27 1.10 0.99 0.84 0.59 0.37 0.30 0.29 0.26 0.21
0.62 0.56 0.48 0.47 0.42 0.41 0.44 0.45 0.53 0.61 0.64 0.71 0.82 0.82 0.73 0.69 0.70 0.69 0.66 0.69 0.73 0.85 1.07 1.22 1.27 1.23 1.11 1.19 1.27 1.55 2.01 2.34 2.20 1.74 1.40 1.21 1.11 0.84 0.51 0.36 0.31 0.29 0.25
0.48 0.44 0.43 0.40 0.38 0.38 0.37 0.39 0.45 0.50 0.52 0.58 0.66 0.68 0.64 0.64 0.64 0.53 0.60 0.61 0.65 0.81 0.93 0.93 1.01 1.10 0.93 1.07 0.83 0.99 1.43 1.83 2.21 2.17 1.77 1.39 1.21 1.01 0.75 0.56 0.41 0.34 0.31
0.33 0.36 0.38 0.39 0.39 0.34 0.33 0.35 0.36 0.38 0.40 0.42 0.51 0.59 0.60 0.58 0.53 0.49 0.51 0.53 0.59 0.68 0.71 0.80 0.76 0.76 0.84 0.92 0.89 0.83 1.09 1.24 1.71 2.19 2.13 1.72 1.36 1.11 0.97 0.86 0.70 0.50 0.39
0.26 0.26 0.28 0.33 0.33 0.33 0.33 0.26 0.27 0.32 0.34 0.31 0.35 0.43 0.42 0.46 0.52 0.53 0.48 0.50 0.57 0.55 0.54 0.58 0.60 0.63 0.68 0.76 0.79 0.68 0.64 0.81 1.24 1.79 2.09 2.00 1.69 1.31 1.16 1.17 1.32 1.20 0.83
0.31 0.24 0.22 0.26 0.30 0.36 0.40 0.35 0.33 0.31 0.30 0.28 0.28 0.36 0.36 0.31 0.37 0.47 0.48 0.46 0.48 0.40 0.38 0.39 0.40 0.48 0.52 0.61 0.73 0.65 0.54 0.63 0.82 1.14 1.45 1.67 1.71 1.60 1.44 1.45 1.78 1.98 1.77
0.38 0.34 0.32 0.35 0.37 0.35 0.36 0.37 0.40 0.39 0.37 0.34 0.27 0.30 0.43 0.40 0.31 0.36 0.38 0.42 0.41 0.29 0.30 0.35 0.37 0.41 0.48 0.59 0.60 0.53 0.61 0.69 0.70 0.76 0.91 1.08 1.28 1.40 1.49 1.61 1.82 2.10 2.18
0.34 0.34 0.34 0.38 0.40 0.39 0.36 0.34 0.34 0.40 0.46 0.46 0.36 0.28 0.31 0.42 0.37 0.32 0.32 0.31 0.34 0.33 0.37 0.39 0.43 0.50 0.59 0.80 0.71 0.63 0.62 0.68 0.68 0.68 0.68 0.71 0.80 0.92 1.05 1.24 1.49 1.76 2.01
0.38 0.34 0.30 0.30 0.31 0.33 0.34 0.31 0.27 0.28 0.35 0.44 0.46 0.46 0.42 0.35 0.42 0.37 0.31 0.34 0.39 0.44 0.51 0.51 0.60 0.69 0.81 0.90 0.90 0.73 0.56 0.48 0.43 0.44 0.44 0.45 0.50 0.57 0.67 0.78 0.91 1.11 1.27
0.37 0.34 0.30 0.26 0.25 0.26 0.29 0.29 0.27 0.27 0.28 0.29 0.36 0.50 0.51 0.41 0.38 0.39 0.38 0.43 0.57 0.55 0.58 0.69 0.85 0.91 0.85 0.87 0.78 0.65 0.49 0.43 0.38 0.34 0.33 0.34 0.36 0.38 0.43 0.48 0.53 0.64 0.75
0.32 0.31 0.27 0.24 0.21 0.20 0.21 0.25 0.27 0.30 0.34 0.37 0.38 0.44 0.54 0.58 0.51 0.48 0.48 0.53 0.66 0.66 0.67 0.72 0.86 0.89 0.78 0.63 0.58 0.59 0.51 0.49 0.43 0.35 0.29 0.30 0.32 0.33 0.32 0.34 0.34 0.34 0.38
0.33 0.31 0.29 0.26 0.20 0.19 0.21 0.24 0.25 0.30 0.35 0.44 0.52 0.52 0.52 0.63 0.71 0.65 0.64 0.64 0.69 0.74 0.73 0.71 0.84 0.88 0.77 0.58 0.52 0.54 0.55 0.56 0.47 0.42 0.34 0.30 0.30 0.31 0.30 0.31 0.33 0.31 0.29
0.40 0.37 0.34 0.32 0.26 0.22 0.24 0.26 0.25 0.28 0.36 0.45 0.60 0.75 0.76 0.71 0.69 0.67 0.66 0.67 0.73 0.85 0.85 0.77 0.83 0.90 0.87 0.77 0.67 0.57 0.48 0.49 0.53 0.54 0.46 0.38 0.33 0.32 0.30 0.29 0.30 0.30 0.30
0.41 0.44 0.42 0.40 0.36 0.35 0.35 0.32 0.29 0.30 0.33 0.37 0.48 0.71 0.90 1.03 0.94 0.77 0.68 0.65 0.72 0.86 0.97 0.90 0.89 1.04 1.05 0.97 0.82 0.64 0.51 0.49 0.45 0.48 0.49 0.44 0.39 0.36 0.33 0.30 0.29 0.28 0.25
0.43 0.49 0.52 0.52 0.49 0.45 0.41 0.38 0.41 0.40 0.36 0.35 0.41 0.50 0.61 0.82 0.98 1.04 0.92 0.79 0.77 0.84 0.94 0.95 1.05 1.28 1.33 1.21 0.96 0.77 0.66 0.56 0.49 0.41 0.42 0.43 0.40 0.36 0.34 0.32 0.29 0.26 0.25
0.54 0.63 0.66 0.65 0.62 0.58 0.48 0.48 0.53 0.48 0.48 0.45 0.44 0.44 0.41 0.49 0.62 0.79 0.89 0.96 0.94 0.88 0.92 0.99 1.21 1.63 1.67 1.43 1.05 0.86 0.78 0.73 0.63 0.51 0.45 0.38 0.35 0.32 0.31 0.33 0.34 0.32 0.28
0.87 0.88 0.85 0.83 0.77 0.64 0.59 0.55 0.53 0.51 0.54 0.55 0.54 0.51 0.43 0.39 0.41 0.50 0.61 0.75 0.90 0.94 0.94 1.01 1.21 1.51 1.67 1.57 1.31 1.09 0.86 0.73 0.66 0.61 0.56 0.48 0.42 0.38 0.32 0.28 0.33 0.33 0.32
1.01 1.00 0.98 0.95 0.91 0.87 0.74 0.58 0.50 0.50 0.52 0.55 0.62 0.64 0.48 0.34 0.40 0.44 0.51 0.55 0.61 0.71 0.83 0.92 1.06 1.26 1.54 1.68 1.51 1.14 0.97 0.88 0.70 0.63 0.63 0.57 0.53 0.48 0.40 0.36 0.39 0.32 0.31
0.88 0.85 0.84 0.84 0.87 0.82 0.73 0.56 0.47 0.46 0.51 0.54 0.58 0.61 0.57 0.46 0.44 0.47 0.50 0.48 0.46 0.47 0.53 0.65 0.78 1.00 1.28 1.60 1.76 1.51 1.31 1.14 0.93 0.80 0.67 0.61 0.61 0.54 0.46 0.41 0.44 0.38 0.32
0.74 0.68 0.65 0.68 0.73 0.76 0.70 0.57 0.54 0.51 0.52 0.52 0.53 0.56 0.58 0.52 0.45 0.37 0.41 0.42 0.41 0.42 0.41 0.46 0.56 0.74 0.98 1.29 1.64 1.76 1.48 1.14 0.98 0.81 0.69 0.60 0.55 0.59 0.57 0.47 0.45 0.48 0.40
0.83 0.79 0.72 0.69 0.68 0.75 0.73 0.59 0.55 0.53 0.56 0.58 0.68 0.71 0.65 0.56 0.47 0.34 0.35 0.40 0.39 0.36 0.41 0.43 0.44 0.52 0.66 0.91 1.25 1.44 1.44 1.15 0.92 0.80 0.59 0.53 0.51 0.53 0.58 0.51 0.40 0.40 0.40

GEFSMA_prec_meanprecacc_114.txt.gz
Total_Precipitation_Accumulation
1.63 1.73 1.56 1.42 1.26 1.52 1.79 1.82 1.66 1.79 1.82 1.91 1.88 1.87 1.89 1.60 1.40 1.29 1.34 1.58 1.55 1.50 1.57 1.62 1.57 1.48 1.42 1.29 1.13 0.97 0.84 0.78 0.71 0.63 0.55 0.47 0.38 0.30 0.26 0.17 0.11 0.06 0.05
1.49 1.54 1.48 1.38 1.31 1.47 1.67 1.69 1.68 1.88 1.97 1.97 1.70 1.63 1.61 1.64 1.50 1.28 1.40 1.56 1.62 1.48 1.53 1.72 1.77 1.74 1.75 1.62 1.41 1.24 1.05 0.90 0.74 0.57 0.52 0.50 0.41 0.32 0.34 0.37 0.40 0.14 0.05
1.18 1.29 1.31 1.27 1.30 1.36 1.40 1.38 1.41 1.60 1.59 1.52 1.39 1.34 1.40 1.43 1.43 1.40 1.27 1.31 1.46 1.53 1.48 1.61 1.71 1.74 1.86 1.84 1.70 1.50 1.27 1.04 0.81 0.58 0.45 0.44 0.40 0.29 0.26 0.33 0.38 0.21 0.09
0.90 0.99 0.96 0.98 1.03 1.08 1.08 1.07 1.10 1.21 1.30 1.41 1.41 1.31 1.43 1.47 1.41 1.48 1.45 1.33 1.44 1.40 1.63 1.77 1.75 1.68 1.86 2.04 2.04 1.86 1.54 1.17 0.92 0.72 0.55 0.43 0.39 0.31 0.25 0.25 0.25 0.23 0.13
0.81 0.85 0.82 0.84 0.79 0.80 0.82 0.79 0.87 0.99 1.08 1.16 1.11 1.17 1.16 1.20 1.20 1.18 1.31 1.19 1.26 1.35 1.51 1.62 1.73 1.66 1.89 2.23 2.49 2.55 2.20 1.59 1.16 0.96 0.85 0.71 0.57 0.43 0.34 0.33 0.27 0.22 0.18
0.73 0.71 0.66 0.62 0.56 0.58 0.63 0.67 0.77 0.84 0.87 0.93 0.87 0.93 0.91 0.86 0.91 0.96 0.92 0.97 1.03 1.00 1.20 1.38 1.52 1.31 1.63 2.07 2.38 2.62 2.65 2.29 1.77 1.34 1.16 1.04 0.89 0.64 0.40 0.33 0.32 0.28 0.23
0.64 0.58 0.49 0.48 0.43 0.42 0.44 0.47 0.55 0.62 0.65 0.72 0.83 0.83 0.74 0.71 0.72 0.72 0.68 0.73 0.77 0.88 1.11 1.26 1.29 1.24 1.14 1.24 1.39 1.76 2.21 2.51 2.35 1.84 1.48 1.29 1.19 0.90 0.56 0.40 0.34 0.33 0.28
0.52 0.47 0.45 0.41 0.40 0.40 0.39 0.41 0.46 0.50 0.53 0.59 0.67 0.69 0.65 0.65 0.65 0.54 0.61 0.63 0.67 0.83 0.95 0.95 1.03 1.11 0.94 1.08 0.86 1.06 1.55 1.95 2.35 2.29 1.87 1.46 1.28 1.08 0.81 0.61 0.45 0.37 0.33
0.38 0.40 0.41 0.41 0.40 0.36 0.35 0.37 0.37 0.39 0.41 0.43 0.51 0.59 0.60 0.59 0.53 0.49 0.51 0.54 0.61 0.70 0.73 0.82 0.77 0.77 0.85 0.93 0.90 0.85 1.13 1.30 1.78 2.28 2.23 1.79 1.41 1.16 1.02 0.91 0.75 0.55 0.44
0.31 0.31 0.33 0.36 0.35 0.34 0.35 0.28 0.28 0.33 0.35 0.32 0.35 0.43 0.42 0.46 0.53 0.53 0.48 0.50 0.57 0.56 0.55 0.59 0.62 0.64 0.69 0.77 0.80 0.69 0.66 0.83 1.28 1.85 2.16 2.05 1.73 1.35 1.19 1.22 1.37 1.25 0.88
0.39 0.30 0.27 0.29 0.33 0.37 0.42 0.37 0.34 0.32 0.31 0.28 0.29 0.36 0.36 0.31 0.37 0.47 0.48 0.46 0.48 0.40 0.38 0.40 0.41 0.48 0.53 0.62 0.74 0.66 0.55 0.64 0.83 1.17 1.48 1.71 1.74 1.64 1.48 1.48 1.82 2.02 1.82
0.45 0.40 0.37 0.39 0.41 0.38 0.38 0.38 0.40 0.39 0.37 0.34 0.28 0.30 0.43 0.40 0.31 0.37 0.38 0.42 0.42 0.29 0.31 0.35 0.37 0.41 0.48 0.60 0.61 0.54 0.62 0.70 0.71 0.77 0.92 1.11 1.30 1.42 1.51 1.63 1.84 2.13 2.22
0.38 0.38 0.39 0.44 0.45 0.43 0.39 0.35 0.36 0.40 0.46 0.47 0.36 0.28 0.31 0.42 0.37 0.32 0.32 0.31 0.34 0.33 0.37 0.39 0.43 0.50 0.59 0.80 0.71 0.63 0.63 0.69 0.69 0.69 0.68 0.72 0.81 0.93 1.06 1.25 1.50 1.77 2.03
0.43 0.40 0.37 0.36 0.36 0.37 0.38 0.34 0.29 0.30 0.36 0.45 0.47 0.47 0.42 0.35 0.42 0.37 0.31 0.34 0.39 0.44 0.51 0.51 0.60 0.69 0.81 0.90 0.91 0.74 0.57 0.49 0.44 0.44 0.45 0.46 0.50 0.57 0.68 0.78 0.92 1.11 1.28
0.44 0.40 0.35 0.31 0.29 0.30 0.32 0.34 0.31 0.30 0.30 0.30 0.37 0.50 0.52 0.41 0.38 0.39 0.38 0.43 0.57 0.55 0.58 0.69 0.85 0.91 0.85 0.87 0.80 0.67 0.50 0.45 0.40 0.35 0.34 0.34 0.36 0.39 0.43 0.48 0.53 0.64 0.75
0.40 0.38 0.33 0.28 0.25 0.24 0.25 0.29 0.30 0.33 0.37 0.38 0.39 0.44 0.54 0.58 0.51 0.48 0.48 0.53 0.66 0.66 0.67 0.72 0.86 0.89 0.78 0.64 0.59 0.60 0.52 0.50 0.44 0.36 0.30 0.30 0.33 0.33 0.32 0.35 0.34 0.35 0.39
0.42 0.40 0.36 0.32 0.26 0.23 0.24 0.27 0.29 0.33 0.38 0.46 0.54 0.53 0.53 0.63 0.71 0.66 0.64 0.64 0.69 0.75 0.74 0.71 0.84 0.88 0.77 0.59 0.53 0.55 0.56 0.57 0.47 0.43 0.35 0.32 0.31 0.32 0.31 0.32 0.34 0.32 0.30
0.49 0.45 0.40 0.38 0.31 0.27 0.28 0.30 0.29 0.32 0.39 0.48 0.62 0.77 0.78 0.73 0.71 0.69 0.68 0.68 0.73 0.85 0.85 0.77 0.83 0.91 0.87 0.77 0.68 0.57 0.48 0.50 0.54 0.55 0.47 0.39 0.34 0.32 0.31 0.30 0.30 0.30 0.31
0.51 0.54 0.50 0.46 0.41 0.40 0.40 0.37 0.35 0.36 0.37 0.41 0.52 0.74 0.93 1.07 0.98 0.80 0.70 0.67 0.73 0.87 0.98 0.91 0.90 1.04 1.06 0.97 0.83 0.64 0.52 0.50 0.46 0.49 0.50 0.45 0.39 0.36 0.33 0.31 0.29 0.28 0.25
0.54 0.61 0.62 0.61 0.56 0.51 0.47 0.44 0.48 0.48 0.44 0.42 0.46 0.54 0.65 0.86 1.02 1.07 0.94 0.80 0.78 0.85 0.95 0.96 1.05 1.28 1.33 1.21 0.96 0.77 0.67 0.57 0.50 0.42 0.43 0.44 0.41 0.36 0.34 0.32 0.29 0.27 0.25
0.64 0.73 0.76 0.74 0.71 0.66 0.56 0.55 0.61 0.54 0.56 0.54 0.52 0.52 0.48 0.54 0.67 0.82 0.91 0.97 0.95 0.88 0.93 0.99 1.22 1.63 1.67 1.43 1.05 0.86 0.78 0.74 0.64 0.52 0.46 0.38 0.36 0.33 0.31 0.33 0.34 0.32 0.28
0.97 0.98 0.95 0.92 0.87 0.73 0.68 0.64 0.62 0.59 0.61 0.62 0.61 0.58 0.51 0.46 0.47 0.55 0.65 0.78 0.92 0.95 0.95 1.02 1.22 1.52 1.68 1.57 1.31 1.10 0.87 0.73 0.66 0.61 0.56 0.49 0.42 0.38 0.33 0.29 0.33 0.34 0.32
1.11 1.12 1.11 1.08 1.02 0.98 0.85 0.67 0.59 0.58 0.58 0.62 0.68 0.71 0.54 0.40 0.46 0.49 0.56 0.59 0.65 0.75 0.86 0.94 1.08 1.28 1.56 1.69 1.53 1.15 0.98 0.88 0.70 0.63 0.63 0.57 0.54 0.48 0.40 0.36 0.39 0.32 0.32
0.98 0.95 0.93 0.92 0.96 0.91 0.81 0.63 0.54 0.51 0.55 0.58 0.62 0.64 0.61 0.49 0.48 0.51 0.54 0.53 0.50 0.50 0.56 0.67 0.79 1.01 1.29 1.61 1.77 1.52 1.32 1.15 0.94 0.80 0.67 0.62 0.61 0.55 0.47 0.42 0.45 0.39 0.33
0.82 0.74 0.70 0.72 0.78 0.81 0.77 0.62 0.59 0.54 0.55 0.55 0.55 0.58 0.60 0.54 0.47 0.39 0.43 0.44 0.43 0.43 0.42 0.47 0.57 0.75 1.00 1.31 1.65 1.77 1.48 1.14 0.99 0.82 0.70 0.61 0.56 0.60 0.58 0.48 0.46 0.48 0.41
0.92 0.86 0.78 0.75 0.75 0.83 0.82 0.65 0.60 0.56 0.59 0.61 0.71 0.73 0.67 0.57 0.49 0.36 0.37 0.42 0.40 0.37 0.43 0.44 0.45 0.53 0.67 0.92 1.26 1.45 1.45 1.16 0.92 0.81 0.60 0.53 0.51 0.54 0.59 0.51 0.41 0.40 0.40

GEFSMA_prec_meanprecacc_120.txt.gz
Total_Precipitation_Accumulation
1.64 1.74 1.59 1.45 1.28 1.54 1.81 1.84 1.68 1.83 1.86 1.94 1.91 1.89 1.92 1.64 1.43 1.32 1.39 1.62 1.58 1.54 1.61 1.66 1.61 1.52 1.47 1.33 1.18 1.02 0.88 0.83 0.74 0.65 0.57 0.48 0.40 0.31 0.26 0.17 0.12 0.07 0.05
1.50 1.55 1.50 1.40 1.33 1.49 1.69 1.72 1.71 1.93 2.03 2.03 1.75 1.67 1.66 1.68 1.54 1.32 1.44 1.62 1.66 1.51 1.58 1.77 1.83 1.79 1.79 1.65 1.45 1.28 1.10 0.94 0.78 0.60 0.54 0.52 0.43 0.33 0.35 0.37 0.40 0.15 0.05
1.19 1.31 1.33 1.28 1.32 1.39 1.42 1.41 1.47 1.65 1.64 1.58 1.44 1.40 1.45 1.48 1.50 1.46 1.31 1.36 1.51 1.58 1.53 1.66 1.77 1.80 1.92 1.90 1.75 1.53 1.31 1.08 0.84 0.60 0.47 0.46 0.42 0.30 0.27 0.34 0.39 0.21 0.09
0.92 1.01 0.99 1.01 1.06 1.11 1.11 1.12 1.18 1.28 1.36 1.48 1.48 1.36 1.48 1.53 1.48 1.55 1.51 1.38 1.51 1.46 1.68 1.81 1.79 1.73 1.92 2.11 2.12 1.92 1.59 1.22 0.95 0.75 0.58 0.46 0.42 0.34 0.26 0.25 0.26 0.23 0.14
0.84 0.89 0.87 0.89 0.82 0.84 0.87 0.82 0.93 1.06 1.17 1.23 1.18 1.23 1.21 1.25 1.25 1.23 1.36 1.24 1.32 1.41 1.58 1.67 1.77 1.71 1.95 2.32 2.59 2.66 2.30 1.66 1.21 1.00 0.88 0.74 0.60 0.46 0.36 0.34 0.28 0.23 0.18
0.79 0.76 0.71 0.67 0.59 0.62 0.69 0.74 0.86 0.92 0.93 0.99 0.91 0.97 0.94 0.89 0.95 1.01 0.96 1.02 1.08 1.04 1.25 1.43 1.58 1.36 1.69 2.14 2.44 2.69 2.76 2.41 1.87 1.42 1.23 1.10 0.95 0.69 0.43 0.35 0.34 0.29 0.24
0.72 0.66 0.55 0.55 0.48 0.47 0.52 0.53 0.60 0.67 0.69 0.75 0.88 0.89 0.78 0.73 0.76 0.76 0.72 0.78 0.80 0.92 1.17 1.33 1.37 1.32 1.20 1.27 1.42 1.82 2.32 2.67 2.51 1.96 1.57 1.36 1.25 0.96 0.59 0.42 0.36 0.34 0.30
0.60 0.54 0.53 0.49 0.47 0.48 0.44 0.45 0.51 0.55 0.57 0.61 0.71 0.74 0.69 0.69 0.69 0.56 0.64 0.66 0.70 0.87 1.00 1.00 1.08 1.19 1.02 1.17 0.90 1.09 1.62 2.08 2.49 2.41 1.96 1.53 1.34 1.14 0.86 0.66 0.48 0.39 0.35
0.45 0.48 0.50 0.51 0.49 0.43 0.40 0.43 0.42 0.44 0.45 0.47 0.54 0.62 0.63 0.62 0.56 0.51 0.53 0.55 0.63 0.75 0.79 0.88 0.82 0.83 0.91 1.01 0.99 0.90 1.17 1.36 1.86 2.38 2.32 1.86 1.45 1.19 1.05 0.95 0.80 0.58 0.47
0.39 0.39 0.42 0.47 0.44 0.40 0.42 0.33 0.32 0.38 0.40 0.36 0.38 0.45 0.44 0.49 0.56 0.56 0.51 0.52 0.59 0.59 0.59 0.64 0.65 0.69 0.73 0.82 0.86 0.71 0.67 0.85 1.32 1.91 2.23 2.11 1.76 1.37 1.21 1.24 1.42 1.30 0.92
0.46 0.37 0.33 0.37 0.41 0.44 0.49 0.41 0.38 0.36 0.34 0.31 0.31 0.38 0.39 0.34 0.39 0.50 0.53 0.50 0.50 0.42 0.41 0.43 0.44 0.51 0.56 0.65 0.78 0.68 0.56 0.65 0.85 1.21 1.53 1.76 1.79 1.67 1.51 1.50 1.85 2.06 1.86
0.52 0.48 0.44 0.47 0.49 0.45 0.45 0.44 0.46 0.43 0.41 0.37 0.30 0.32 0.46 0.43 0.33 0.39 0.41 0.46 0.45 0.32 0.33 0.37 0.38 0.43 0.51 0.62 0.62 0.55 0.62 0.71 0.72 0.78 0.94 1.13 1.35 1.46 1.54 1.66 1.87 2.16 2.25
0.45 0.45 0.45 0.50 0.52 0.51 0.47 0.42 0.41 0.44 0.50 0.50 0.39 0.31 0.33 0.44 0.39 0.34 0.34 0.33 0.37 0.36 0.39 0.41 0.43 0.52 0.60 0.81 0.74 0.64 0.63 0.69 0.69 0.69 0.69 0.73 0.82 0.95 1.08 1.26 1.52 1.79 2.05
0.50 0.47 0.43 0.42 0.43 0.44 0.43 0.39 0.33 0.34 0.40 0.49 0.50 0.51 0.45 0.36 0.43 0.37 0.32 0.36 0.42 0.47 0.53 0.54 0.61 0.70 0.81 0.91 0.92 0.74 0.58 0.50 0.44 0.45 0.45 0.46 0.50 0.57 0.68 0.78 0.92 1.12 1.29
0.51 0.47 0.41 0.37 0.35 0.37 0.39 0.40 0.36 0.35 0.35 0.34 0.40 0.53 0.54 0.43 0.39 0.39 0.38 0.43 0.59 0.57 0.60 0.72 0.87 0.92 0.86 0.88 0.80 0.69 0.53 0.46 0.40 0.36 0.35 0.35 0.36 0.39 0.43 0.48 0.53 0.64 0.75
0.49 0.46 0.41 0.36 0.32 0.31 0.33 0.38 0.37 0.40 0.44 0.43 0.42 0.47 0.58 0.60 0.54 0.50 0.49 0.54 0.67 0.68 0.69 0.75 0.88 0.90 0.79 0.65 0.60 0.61 0.54 0.52 0.45 0.37 0.31 0.31 0.33 0.34 0.33 0.35 0.34 0.35 0.39
0.50 0.47 0.45 0.43 0.36 0.31 0.32 0.35 0.37 0.40 0.46 0.53 0.59 0.57 0.57 0.67 0.74 0.68 0.65 0.66 0.71 0.77 0.77 0.74 0.87 0.89 0.79 0.61 0.55 0.56 0.57 0.58 0.49 0.44 0.37 0.33 0.32 0.33 0.32 0.33 0.34 0.32 0.30
0.57 0.53 0.48 0.46 0.38 0.33 0.34 0.35 0.35 0.38 0.47 0.57 0.69 0.83 0.83 0.77 0.75 0.73 0.72 0.73 0.78 0.91 0.91 0.84 0.87 0.93 0.90 0.79 0.70 0.60 0.50 0.51 0.54 0.56 0.48 0.40 0.36 0.33 0.32 0.30 0.31 0.31 0.31
0.62 0.65 0.60 0.55 0.48 0.45 0.45 0.43 0.40 0.41 0.43 0.48 0.60 0.83 1.02 1.16 1.06 0.88 0.78 0.74 0.80 0.92 1.03 0.97 0.95 1.09 1.10 1.00 0.85 0.67 0.53 0.51 0.47 0.49 0.51 0.45 0.39 0.37 0.34 0.31 0.30 0.29 0.26
0.67 0.74 0.75 0.71 0.65 0.59 0.55 0.53 0.57 0.57 0.53 0.51 0.55 0.63 0.73 0.94 1.11 1.14 1.01 0.86 0.84 0.92 1.01 1.03 1.12 1.34 1.37 1.24 0.99 0.80 0.69 0.58 0.51 0.42 0.44 0.45 0.42 0.37 0.35 0.33 0.30 0.27 0.26
0.76 0.86 0.89 0.86 0.82 0.77 0.67 0.67 0.73 0.66 0.67 0.65 0.62 0.61 0.57 0.63 0.76 0.92 1.00 1.07 1.04 0.98 1.02 1.08 1.29 1.69 1.72 1.48 1.09 0.89 0.81 0.76 0.66 0.54 0.48 0.40 0.37 0.34 0.32 0.34 0.35 0.33 0.29
1.07 1.09 1.07 1.04 0.99 0.86 0.83 0.78 0.77 0.75 0.77 0.75 0.71 0.66 0.58 0.52 0.53 0.61 0.71 0.84 0.99 1.02 1.02 1.09 1.27 1.57 1.73 1.61 1.35 1.13 0.90 0.77 0.69 0.63 0.59 0.51 0.44 0.40 0.34 0.31 0.35 0.36 0.34
1.20 1.22 1.22 1.19 1.14 1.12 1.01 0.83 0.75 0.73 0.73 0.75 0.81 0.83 0.64 0.47 0.51 0.54 0.60 0.64 0.69 0.78 0.89 0.98 1.13 1.33 1.61 1.73 1.56 1.18 1.01 0.91 0.73 0.65 0.65 0.60 0.56 0.50 0.42 0.38 0.42 0.35 0.34
1.06 1.04 1.03 1.01 1.05 1.01 0.93 0.74 0.66 0.63 0.68 0.71 0.73 0.74 0.69 0.56 0.53 0.56 0.59 0.57 0.55 0.54 0.60 0.70 0.83 1.04 1.32 1.63 1.78 1.54 1.34 1.17 0.96 0.82 0.69 0.64 0.64 0.57 0.49 0.44 0.47 0.41 0.35
0.90 0.83 0.79 0.82 0.86 0.90 0.85 0.69 0.65 0.60 0.62 0.62 0.62 0.65 0.67 0.60 0.53 0.44 0.47 0.48 0.48 0.47 0.47 0.52 0.61 0.78 1.03 1.33 1.67 1.79 1.50 1.16 1.01 0.84 0.71 0.63 0.58 0.62 0.60 0.49 0.47 0.49 0.42
1.02 0.95 0.88 0.87 0.86 0.92 0.91 0.73 0.67 0.63 0.66 0.68 0.78 0.80 0.74 0.63 0.54 0.40 0.41 0.46 0.45 0.43 0.47 0.49 0.50 0.56 0.70 0.94 1.28 1.47 1.47 1.18 0.95 0.83 0.61 0.55 0.52 0.55 0.60 0.53 0.42 0.41 0.41

GEFSMA_prec_meanprecacc_126.txt.gz
Total_Precipitation_Accumulation
1.70 1.82 1.66 1.53 1.35 1.60 1.85 1.89 1.73 1.88 1.91 1.96 1.92 1.90 1.93 1.67 1.48 1.38 1.45 1.64 1.59 1.55 1.63 1.67 1.63 1.55 1.50 1.36 1.22 1.04 0.91 0.86 0.77 0.67 0.58 0.49 0.41 0.32 0.27 0.18 0.13 0.08 0.06
1.55 1.61 1.55 1.46 1.39 1.55 1.74 1.76 1.74 1.97 2.06 2.05 1.78 1.68 1.68 1.72 1.62 1.41 1.52 1.66 1.67 1.53 1.59 1.78 1.84 1.81 1.82 1.68 1.47 1.30 1.13 0.98 0.79 0.61 0.55 0.53 0.45 0.35 0.36 0.38 0.41 0.15 0.06
1.24 1.36 1.39 1.34 1.37 1.43 1.46 1.44 1.50 1.69 1.67 1.60 1.46 1.42 1.48 1.52 1.58 1.54 1.37 1.43 1.57 1.62 1.55 1.67 1.78 1.82 1.95 1.93 1.78 1.55 1.34 1.11 0.87 0.62 0.48 0.47 0.43 0.32 0.28 0.35 0.39 0.22 0.09
0.96 1.06 1.04 1.05 1.10 1.13 1.13 1.16 1.21 1.32 1.40 1.50 1.50 1.39 1.52 1.58 1.51 1.58 1.54 1.43 1.61 1.52 1.70 1.83 1.80 1.74 1.93 2.13 2.14 1.95 1.63 1.25 0.98 0.76 0.58 0.47 0.43 0.35 0.28 0.26 0.27 0.24 0.14
0.86 0.92 0.93 0.95 0.84 0.86 0.89 0.84 0.98 1.11 1.21 1.27 1.21 1.26 1.23 1.29 1.29 1.25 1.39 1.27 1.36 1.47 1.62 1.69 1.78 1.72 1.96 2.33 2.61 2.68 2.33 1.70 1.24 1.02 0.90 0.76 0.61 0.47 0.38 0.36 0.30 0.24 0.19
0.82 0.80 0.75 0.70 0.62 0.67 0.75 0.79 0.93 0.97 0.98 1.03 0.94 1.01 0.97 0.91 0.98 1.03 0.99 1.04 1.10 1.06 1.29 1.49 1.62 1.38 1.70 2.16 2.46 2.71 2.79 2.45 1.91 1.45 1.24 1.11 0.97 0.71 0.45 0.37 0.35 0.30 0.25
0.76 0.71 0.61 0.63 0.53 0.54 0.58 0.57 0.65 0.72 0.74 0.79 0.93 0.97 0.83 0.75 0.78 0.79 0.74 0.80 0.84 0.95 1.22 1.40 1.45 1.40 1.25 1.29 1.43 1.85 2.36 2.71 2.55 2.00 1.60 1.39 1.28 0.99 0.62 0.44 0.37 0.35 0.31
0.63 0.57 0.62 0.56 0.53 0.56 0.51 0.51 0.57 0.63 0.65 0.66 0.76 0.84 0.80 0.80 0.76 0.59 0.67 0.68 0.73 0.90 1.04 1.03 1.13 1.28 1.11 1.25 0.94 1.11 1.65 2.11 2.54 2.47 2.02 1.59 1.39 1.18 0.91 0.69 0.51 0.40 0.37
0.49 0.55 0.58 0.59 0.57 0.49 0.48 0.51 0.48 0.52 0.53 0.52 0.57 0.68 0.74 0.75 0.68 0.59 0.58 0.58 0.66 0.78 0.82 0.92 0.85 0.87 0.97 1.13 1.10 0.94 1.19 1.39 1.90 2.44 2.38 1.91 1.50 1.24 1.10 0.99 0.84 0.61 0.49
0.44 0.44 0.48 0.57 0.54 0.47 0.52 0.39 0.38 0.44 0.49 0.43 0.42 0.48 0.48 0.56 0.65 0.69 0.60 0.57 0.61 0.61 0.62 0.67 0.69 0.73 0.77 0.91 0.96 0.74 0.68 0.86 1.34 1.95 2.28 2.15 1.80 1.40 1.25 1.28 1.45 1.34 0.96
0.52 0.41 0.39 0.46 0.50 0.51 0.58 0.48 0.47 0.42 0.41 0.37 0.36 0.42 0.41 0.38 0.43 0.57 0.65 0.61 0.57 0.46 0.45 0.46 0.48 0.55 0.60 0.71 0.85 0.70 0.56 0.66 0.85 1.23 1.56 1.80 1.82 1.70 1.53 1.53 1.88 2.10 1.90
0.58 0.53 0.50 0.55 0.56 0.52 0.54 0.51 0.52 0.49 0.47 0.44 0.35 0.36 0.50 0.46 0.36 0.43 0.47 0.54 0.52 0.36 0.35 0.39 0.41 0.47 0.54 0.67 0.67 0.57 0.63 0.71 0.72 0.78 0.95 1.16 1.38 1.50 1.57 1.69 1.90 2.19 2.28
0.50 0.51 0.53 0.59 0.60 0.59 0.54 0.49 0.48 0.51 0.56 0.57 0.44 0.34 0.36 0.46 0.41 0.36 0.37 0.36 0.42 0.39 0.42 0.43 0.45 0.55 0.63 0.87 0.80 0.68 0.67 0.71 0.70 0.70 0.70 0.74 0.84 0.98 1.09 1.28 1.54 1.81 2.08
0.57 0.57 0.53 0.51 0.53 0.53 0.51 0.48 0.41 0.41 0.48 0.55 0.55 0.56 0.50 0.38 0.45 0.40 0.34 0.39 0.47 0.53 0.59 0.59 0.65 0.75 0.86 0.97 0.98 0.78 0.62 0.53 0.45 0.45 0.45 0.47 0.51 0.58 0.69 0.79 0.93 1.13 1.30
0.60 0.58 0.51 0.46 0.44 0.47 0.50 0.50 0.44 0.43 0.43 0.40 0.45 0.59 0.60 0.46 0.42 0.42 0.40 0.46 0.64 0.65 0.69 0.82 0.97 1.04 0.96 0.95 0.88 0.78 0.61 0.50 0.42 0.36 0.35 0.36 0.37 0.39 0.44 0.48 0.53 0.65 0.76
0.58 0.57 0.51 0.46 0.43 0.42 0.44 0.47 0.46 0.49 0.53 0.51 0.48 0.55 0.66 0.66 0.59 0.55 0.53 0.57 0.70 0.72 0.76 0.82 0.98 1.01 0.90 0.72 0.69 0.72 0.61 0.56 0.47 0.38 0.32 0.32 0.34 0.34 0.33 0.35 0.35 0.35 0.39
0.60 0.57 0.55 0.55 0.48 0.42 0.43 0.46 0.47 0.50 0.55 0.62 0.66 0.65 0.65 0.75 0.83 0.76 0.71 0.71 0.75 0.82 0.84 0.83 0.96 1.00 0.88 0.69 0.62 0.65 0.64 0.64 0.52 0.48 0.39 0.34 0.33 0.33 0.33 0.34 0.35 0.33 0.31
0.67 0.63 0.59 0.57 0.48 0.43 0.45 0.44 0.42 0.46 0.56 0.67 0.80 0.93 0.93 0.86 0.85 0.81 0.79 0.80 0.86 1.00 1.01 0.96 0.99 1.05 0.98 0.86 0.76 0.67 0.56 0.56 0.59 0.61 0.52 0.43 0.37 0.35 0.33 0.32 0.32 0.32 0.32
0.75 0.76 0.68 0.63 0.57 0.55 0.56 0.53 0.48 0.48 0.50 0.55 0.67 0.92 1.11 1.27 1.19 0.99 0.88 0.83 0.89 1.00 1.13 1.08 1.05 1.19 1.18 1.07 0.92 0.73 0.59 0.56 0.50 0.53 0.53 0.48 0.41 0.38 0.35 0.33 0.31 0.30 0.27
0.78 0.83 0.82 0.79 0.73 0.67 0.64 0.62 0.65 0.65 0.61 0.58 0.63 0.71 0.82 1.03 1.21 1.25 1.11 0.96 0.92 1.00 1.11 1.13 1.21 1.43 1.45 1.30 1.07 0.86 0.75 0.64 0.55 0.45 0.46 0.47 0.44 0.39 0.36 0.34 0.31 0.28 0.27
0.84 0.95 0.99 0.97 0.92 0.86 0.74 0.76 0.84 0.76 0.77 0.73 0.69 0.67 0.62 0.68 0.82 0.98 1.06 1.14 1.11 1.06 1.10 1.17 1.38 1.78 1.79 1.54 1.17 0.96 0.90 0.84 0.71 0.58 0.52 0.43 0.41 0.38 0.36 0.38 0.38 0.35 0.30
1.16 1.19 1.16 1.15 1.11 0.94 0.90 0.85 0.86 0.85 0.89 0.88 0.83 0.76 0.65 0.58 0.58 0.66 0.77 0.90 1.05 1.09 1.09 1.15 1.34 1.63 1.79 1.67 1.41 1.20 0.99 0.85 0.76 0.68 0.62 0.54 0.47 0.43 0.37 0.33 0.37 0.37 0.35
1.30 1.31 1.32 1.31 1.27 1.23 1.11 0.91 0.84 0.83 0.85 0.89 0.94 0.94 0.73 0.55 0.58 0.60 0.66 0.68 0.73 0.82 0.93 1.02 1.16 1.37 1.66 1.78 1.61 1.23 1.07 0.97 0.79 0.69 0.68 0.64 0.59 0.53 0.44 0.40 0.43 0.36 0.36
1.18 1.15 1.11 1.09 1.14 1.10 1.01 0.81 0.73 0.70 0.75 0.78 0.81 0.81 0.76 0.63 0.59 0.60 0.63 0.61 0.59 0.58 0.63 0.72 0.85 1.07 1.34 1.66 1.81 1.56 1.37 1.21 1.00 0.85 0.72 0.67 0.67 0.60 0.51 0.45 0.49 0.43 0.36
1.01 0.94 0.90 0.90 0.94 0.97 0.92 0.76 0.71 0.66 0.69 0.68 0.68 0.71 0.73 0.66 0.59 0.48 0.50 0.51 0.51 0.50 0.49 0.53 0.62 0.79 1.04 1.34 1.68 1.80 1.51 1.18 1.03 0.86 0.73 0.65 0.60 0.64 0.62 0.51 0.49 0.52 0.43
1.11 1.05 1.00 0.97 0.95 1.00 1.00 0.82 0.74 0.69 0.73 0.74 0.83 0.85 0.79 0.69 0.59 0.44 0.44 0.49 0.48 0.45 0.49 0.50 0.50 0.57 0.70 0.94 1.29 1.47 1.48 1.20 0.96 0.84 0.63 0.56 0.54 0.57 0.61 0.54 0.43 0.42 0.42

GEFSMA_prec_meanprecacc_132.txt.gz
Total_Precipitation_Accumulation
1.72 1.83 1.67 1.54 1.37 1.61 1.86 1.91 1.76 1.93 1.94 1.99 1.98 1.97 2.00 1.75 1.57 1.45 1.50 1.68 1.62 1.58 1.65 1.68 1.64 1.56 1.51 1.37 1.23 1.06 0.92 0.86 0.78 0.68 0.59 0.50 0.41 0.33 0.28 0.19 0.13 0.08 0.06
1.57 1.62 1.57 1.48 1.42 1.57 1.76 1.78 1.77 1.99 2.09 2.08 1.82 1.72 1.72 1.76 1.67 1.46 1.58 1.69 1.70 1.54 1.61 1.80 1.86 1.82 1.83 1.69 1.48 1.32 1.15 0.99 0.80 0.62 0.55 0.53 0.45 0.35 0.37 0.39 0.42 0.15 0.06
1.27 1.38 1.41 1.36 1.40 1.46 1.47 1.46 1.52 1.71 1.69 1.63 1.50 1.46 1.52 1.55 1.62 1.58 1.44 1.46 1.58 1.64 1.56 1.69 1.80 1.84 1.96 1.94 1.78 1.57 1.36 1.13 0.88 0.62 0.49 0.47 0.44 0.32 0.29 0.36 0.40 0.22 0.10
0.99 1.08 1.06 1.08 1.12 1.15 1.14 1.17 1.23 1.34 1.43 1.53 1.53 1.42 1.55 1.62 1.55 1.62 1.57 1.45 1.63 1.53 1.72 1.85 1.82 1.77 1.96 2.15 2.15 1.98 1.65 1.27 0.99 0.77 0.59 0.48 0.44 0.36 0.28 0.27 0.27 0.24 0.15
0.89 0.95 0.95 0.97 0.86 0.88 0.90 0.85 0.99 1.13 1.24 1.30 1.24 1.30 1.27 1.32 1.32 1.29 1.43 1.31 1.39 1.48 1.63 1.71 1.80 1.74 1.99 2.35 2.63 2.71 2.36 1.73 1.26 1.03 0.90 0.77 0.63 0.49 0.39 0.37 0.31 0.25 0.20
0.84 0.82 0.77 0.73 0.64 0.69 0.77 0.81 0.96 0.99 0.99 1.05 0.98 1.07 1.03 0.96 1.03 1.09 1.06 1.09 1.14 1.09 1.33 1.52 1.64 1.40 1.73 2.20 2.50 2.75 2.83 2.50 1.95 1.48 1.27 1.14 1.00 0.73 0.46 0.38 0.36 0.33 0.27
0.80 0.75 0.65 0.67 0.56 0.56 0.60 0.58 0.68 0.74 0.76 0.82 0.99 1.03 0.90 0.83 0.85 0.86 0.82 0.87 0.91 1.00 1.30 1.48 1.49 1.42 1.27 1.32 1.47 1.88 2.41 2.77 2.61 2.06 1.66 1.44 1.31 1.01 0.64 0.46 0.39 0.37 0.33
0.68 0.62 0.66 0.60 0.55 0.57 0.53 0.53 0.60 0.66 0.67 0.68 0.81 0.88 0.85 0.86 0.83 0.66 0.73 0.75 0.81 1.01 1.15 1.13 1.21 1.34 1.15 1.28 0.97 1.15 1.69 2.16 2.60 2.54 2.10 1.65 1.43 1.22 0.94 0.72 0.53 0.43 0.40
0.54 0.58 0.62 0.62 0.61 0.51 0.50 0.53 0.51 0.55 0.56 0.54 0.61 0.72 0.76 0.77 0.71 0.64 0.64 0.67 0.75 0.87 0.91 1.02 0.95 0.95 1.03 1.19 1.15 0.98 1.24 1.44 1.96 2.51 2.46 1.96 1.54 1.27 1.13 1.03 0.88 0.66 0.54
0.51 0.48 0.51 0.60 0.58 0.49 0.54 0.41 0.41 0.48 0.52 0.45 0.45 0.50 0.51 0.59 0.68 0.72 0.66 0.64 0.67 0.67 0.70 0.76 0.79 0.83 0.86 1.00 1.04 0.80 0.72 0.90 1.39 2.03 2.36 2.21 1.84 1.44 1.28 1.31 1.49 1.38 1.00
0.66 0.49 0.43 0.50 0.55 0.55 0.61 0.51 0.49 0.44 0.43 0.40 0.39 0.44 0.44 0.41 0.46 0.60 0.67 0.66 0.64 0.53 0.52 0.55 0.57 0.63 0.69 0.79 0.93 0.78 0.62 0.69 0.89 1.28 1.62 1.86 1.89 1.76 1.58 1.57 1.93 2.15 1.95
0.72 0.63 0.56 0.61 0.62 0.58 0.59 0.54 0.54 0.51 0.49 0.46 0.37 0.38 0.53 0.49 0.39 0.44 0.49 0.55 0.55 0.41 0.41 0.46 0.48 0.53 0.62 0.76 0.73 0.64 0.70 0.76 0.76 0.81 0.98 1.20 1.43 1.56 1.63 1.74 1.95 2.24 2.33
0.61 0.62 0.65 0.67 0.67 0.65 0.59 0.53 0.51 0.54 0.59 0.60 0.47 0.36 0.39 0.48 0.43 0.39 0.40 0.39 0.44 0.43 0.47 0.49 0.51 0.62 0.70 0.93 0.85 0.75 0.74 0.80 0.76 0.73 0.71 0.75 0.86 1.01 1.13 1.32 1.58 1.86 2.14
0.68 0.68 0.69 0.63 0.61 0.60 0.57 0.55 0.49 0.47 0.52 0.59 0.58 0.59 0.53 0.41 0.47 0.43 0.40 0.46 0.54 0.58 0.64 0.65 0.73 0.84 0.96 1.05 1.08 0.88 0.70 0.60 0.50 0.48 0.47 0.48 0.52 0.59 0.70 0.81 0.96 1.16 1.33
0.69 0.69 0.62 0.56 0.55 0.55 0.57 0.57 0.55 0.54 0.52 0.48 0.51 0.64 0.64 0.49 0.45 0.45 0.45 0.52 0.72 0.73 0.74 0.87 1.05 1.15 1.06 1.04 0.98 0.86 0.67 0.54 0.46 0.40 0.38 0.37 0.38 0.40 0.45 0.49 0.54 0.66 0.77
0.68 0.69 0.62 0.57 0.55 0.51 0.52 0.56 0.56 0.60 0.64 0.60 0.55 0.61 0.70 0.70 0.63 0.59 0.58 0.61 0.75 0.79 0.82 0.88 1.06 1.15 1.02 0.82 0.80 0.83 0.71 0.65 0.55 0.46 0.39 0.37 0.38 0.37 0.35 0.37 0.36 0.36 0.40
0.68 0.67 0.64 0.66 0.61 0.55 0.56 0.56 0.55 0.59 0.63 0.70 0.73 0.71 0.71 0.81 0.88 0.81 0.79 0.78 0.82 0.89 0.91 0.90 1.04 1.08 0.96 0.77 0.70 0.74 0.74 0.75 0.63 0.58 0.47 0.40 0.37 0.37 0.35 0.36 0.37 0.35 0.33
0.76 0.71 0.68 0.70 0.62 0.55 0.55 0.53 0.51 0.55 0.65 0.76 0.88 1.00 1.01 0.94 0.90 0.86 0.86 0.88 0.94 1.07 1.09 1.04 1.07 1.12 1.05 0.92 0.82 0.73 0.63 0.62 0.67 0.69 0.58 0.49 0.43 0.40 0.37 0.35 0.35 0.35 0.35
0.90 0.89 0.82 0.76 0.71 0.67 0.65 0.60 0.58 0.59 0.60 0.64 0.76 1.00 1.19 1.33 1.24 1.04 0.92 0.87 0.93 1.04 1.18 1.14 1.12 1.25 1.23 1.11 0.97 0.78 0.63 0.61 0.56 0.60 0.61 0.54 0.47 0.43 0.40 0.37 0.34 0.32 0.29
0.90 0.95 0.94 0.90 0.84 0.77 0.71 0.69 0.74 0.73 0.70 0.68 0.72 0.80 0.90 1.09 1.26 1.29 1.15 1.00 0.97 1.05 1.16 1.19 1.27 1.49 1.51 1.36 1.11 0.90 0.78 0.67 0.59 0.49 0.52 0.55 0.51 0.45 0.41 0.39 0.35 0.32 0.30
0.94 1.05 1.09 1.07 1.02 0.95 0.81 0.82 0.90 0.83 0.84 0.80 0.76 0.75 0.70 0.75 0.87 1.02 1.10 1.18 1.16 1.11 1.17 1.24 1.45 1.85 1.86 1.60 1.22 1.01 0.94 0.88 0.74 0.62 0.58 0.49 0.45 0.42 0.40 0.41 0.42 0.40 0.36
1.29 1.30 1.27 1.23 1.18 1.01 0.98 0.92 0.93 0.93 0.96 0.96 0.92 0.85 0.75 0.66 0.65 0.72 0.81 0.94 1.09 1.13 1.13 1.20 1.39 1.68 1.84 1.73 1.46 1.25 1.03 0.90 0.81 0.73 0.68 0.60 0.51 0.46 0.40 0.36 0.40 0.40 0.39
1.37 1.39 1.41 1.39 1.34 1.32 1.21 0.98 0.92 0.92 0.96 1.03 1.08 1.07 0.83 0.62 0.65 0.65 0.70 0.72 0.76 0.86 0.97 1.05 1.20 1.40 1.69 1.80 1.64 1.26 1.10 1.00 0.83 0.74 0.73 0.69 0.64 0.56 0.47 0.43 0.47 0.39 0.38
1.22 1.20 1.19 1.16 1.21 1.18 1.10 0.92 0.84 0.80 0.87 0.91 0.93 0.92 0.86 0.71 0.66 0.66 0.68 0.65 0.62 0.61 0.65 0.74 0.86 1.08 1.35 1.67 1.82 1.58 1.38 1.23 1.02 0.87 0.74 0.71 0.70 0.63 0.54 0.48 0.53 0.46 0.39
1.06 0.99 0.96 0.98 1.02 1.06 1.02 0.85 0.79 0.73 0.76 0.75 0.74 0.76 0.79 0.71 0.64 0.53 0.54 0.56 0.55 0.54 0.52 0.56 0.64 0.80 1.05 1.35 1.68 1.80 1.52 1.19 1.04 0.87 0.74 0.66 0.62 0.66 0.65 0.54 0.53 0.55 0.46
1.16 1.10 1.05 1.02 1.01 1.08 1.12 0.93 0.83 0.76 0.78 0.78 0.87 0.88 0.83 0.72 0.62 0.47 0.47 0.52 0.51 0.48 0.51 0.52 0.52 0.57 0.71 0.95 1.29 1.48 1.48 1.20 0.97 0.85 0.63 0.57 0.55 0.57 0.62 0.55 0.44 0.43 0.43

GEFSMA_prec_meanprecacc_138.txt.gz
Total_Precipitation_Accumulation
1.72 1.83 1.67 1.55 1.37 1.61 1.86 1.91 1.77 1.94 1.96 2.02 2.00 1.99 2.01 1.76 1.59 1.45 1.50 1.71 1.65 1.60 1.68 1.72 1.67 1.59 1.54 1.39 1.25 1.07 0.93 0.87 0.78 0.69 0.60 0.50 0.42 0.33 0.29 0.20 0.14 0.08 0.06
1.57 1.63 1.57 1.48 1.43 1.58 1.76 1.79 1.79 2.01 2.11 2.10 1.83 1.74 1.74 1.78 1.68 1.47 1.58 1.71 1.74 1.58 1.65 1.85 1.91 1.87 1.86 1.72 1.51 1.35 1.17 1.00 0.81 0.62 0.56 0.54 0.46 0.37 0.38 0.40 0.42 0.16 0.06
1.27 1.38 1.41 1.36 1.40 1.47 1.48 1.47 1.54 1.73 1.71 1.65 1.52 1.48 1.54 1.57 1.63 1.59 1.45 1.47 1.61 1.68 1.61 1.73 1.85 1.90 2.02 1.99 1.83 1.60 1.39 1.15 0.89 0.63 0.50 0.49 0.45 0.34 0.31 0.37 0.41 0.23 0.10
1.00 1.09 1.06 1.08 1.12 1.15 1.15 1.18 1.24 1.36 1.45 1.55 1.55 1.45 1.58 1.64 1.56 1.63 1.59 1.46 1.64 1.55 1.76 1.91 1.88 1.82 2.02 2.22 2.23 2.03 1.70 1.30 1.01 0.78 0.60 0.49 0.45 0.38 0.30 0.29 0.30 0.26 0.16
0.90 0.96 0.96 0.98 0.87 0.89 0.91 0.87 1.00 1.15 1.26 1.32 1.26 1.32 1.31 1.34 1.34 1.31 1.45 1.34 1.41 1.50 1.66 1.77 1.87 1.79 2.04 2.43 2.72 2.79 2.43 1.79 1.31 1.06 0.92 0.79 0.65 0.50 0.41 0.39 0.33 0.27 0.23
0.87 0.84 0.79 0.74 0.67 0.71 0.78 0.83 0.98 1.02 1.02 1.08 1.02 1.10 1.06 0.99 1.06 1.13 1.09 1.13 1.18 1.13 1.35 1.55 1.68 1.44 1.79 2.27 2.59 2.85 2.94 2.61 2.03 1.55 1.33 1.19 1.03 0.75 0.48 0.40 0.38 0.35 0.30
0.86 0.79 0.69 0.71 0.61 0.60 0.62 0.61 0.71 0.77 0.80 0.85 1.03 1.06 0.93 0.85 0.88 0.90 0.86 0.92 0.96 1.04 1.34 1.52 1.53 1.45 1.30 1.37 1.53 1.96 2.51 2.89 2.71 2.15 1.74 1.50 1.37 1.05 0.66 0.48 0.42 0.40 0.36
0.75 0.68 0.71 0.65 0.61 0.61 0.56 0.57 0.64 0.69 0.70 0.73 0.85 0.92 0.87 0.88 0.85 0.69 0.77 0.79 0.86 1.05 1.20 1.19 1.26 1.38 1.17 1.31 0.99 1.21 1.78 2.26 2.71 2.66 2.21 1.74 1.51 1.28 0.98 0.77 0.58 0.47 0.43
0.64 0.65 0.67 0.68 0.66 0.55 0.53 0.57 0.55 0.58 0.58 0.58 0.65 0.75 0.78 0.78 0.72 0.65 0.66 0.71 0.80 0.92 0.96 1.07 0.99 0.98 1.06 1.21 1.17 1.02 1.30 1.51 2.05 2.63 2.59 2.07 1.62 1.34 1.19 1.08 0.94 0.72 0.58
0.63 0.58 0.58 0.66 0.63 0.54 0.59 0.46 0.45 0.51 0.54 0.47 0.47 0.52 0.52 0.60 0.69 0.73 0.67 0.66 0.70 0.70 0.73 0.79 0.82 0.86 0.90 1.04 1.07 0.82 0.75 0.96 1.46 2.13 2.49 2.32 1.93 1.52 1.34 1.37 1.55 1.45 1.05
0.82 0.63 0.53 0.59 0.61 0.61 0.67 0.57 0.55 0.47 0.45 0.42 0.41 0.46 0.46 0.42 0.47 0.61 0.68 0.68 0.66 0.54 0.54 0.58 0.61 0.67 0.73 0.82 0.96 0.80 0.64 0.73 0.93 1.34 1.70 1.95 1.97 1.84 1.66 1.66 2.01 2.24 2.03
0.84 0.75 0.66 0.71 0.70 0.64 0.64 0.59 0.59 0.54 0.51 0.48 0.39 0.41 0.55 0.51 0.40 0.46 0.50 0.56 0.56 0.42 0.43 0.48 0.50 0.56 0.66 0.79 0.76 0.67 0.74 0.82 0.81 0.87 1.04 1.26 1.50 1.62 1.70 1.82 2.04 2.34 2.42
0.69 0.70 0.74 0.75 0.73 0.70 0.64 0.58 0.56 0.58 0.63 0.63 0.49 0.38 0.40 0.50 0.46 0.41 0.41 0.40 0.45 0.44 0.48 0.50 0.53 0.65 0.73 0.96 0.90 0.79 0.81 0.88 0.83 0.80 0.78 0.80 0.90 1.05 1.18 1.38 1.65 1.94 2.22
0.74 0.76 0.77 0.71 0.68 0.66 0.62 0.60 0.53 0.51 0.57 0.64 0.63 0.63 0.56 0.44 0.50 0.46 0.42 0.48 0.55 0.59 0.66 0.66 0.75 0.87 0.99 1.09 1.14 0.95 0.77 0.69 0.58 0.55 0.53 0.52 0.56 0.63 0.74 0.85 1.00 1.20 1.38
0.74 0.75 0.69 0.66 0.64 0.63 0.64 0.64 0.62 0.60 0.58 0.53 0.57 0.69 0.68 0.54 0.49 0.48 0.47 0.54 0.74 0.74 0.75 0.89 1.07 1.18 1.09 1.09 1.05 0.95 0.77 0.64 0.55 0.47 0.44 0.43 0.44 0.46 0.50 0.54 0.58 0.69 0.80
0.75 0.75 0.70 0.65 0.64 0.60 0.60 0.64 0.62 0.66 0.70 0.66 0.62 0.67 0.75 0.75 0.67 0.63 0.62 0.65 0.79 0.82 0.86 0.93 1.11 1.21 1.07 0.89 0.90 0.93 0.81 0.74 0.62 0.52 0.45 0.45 0.46 0.45 0.43 0.44 0.42 0.41 0.44
0.77 0.74 0.72 0.75 0.73 0.65 0.64 0.64 0.63 0.67 0.71 0.77 0.81 0.80 0.79 0.87 0.93 0.85 0.83 0.84 0.87 0.95 0.98 0.97 1.11 1.15 1.03 0.83 0.78 0.82 0.81 0.82 0.69 0.63 0.53 0.47 0.45 0.44 0.42 0.42 0.42 0.40 0.37
0.83 0.77 0.75 0.80 0.75 0.68 0.67 0.65 0.62 0.64 0.72 0.83 0.95 1.08 1.09 1.02 0.97 0.91 0.92 0.94 1.00 1.13 1.14 1.10 1.13 1.18 1.11 0.98 0.88 0.78 0.67 0.66 0.70 0.73 0.62 0.52 0.47 0.44 0.42 0.40 0.40 0.38 0.38
0.95 0.95 0.87 0.83 0.80 0.78 0.75 0.69 0.67 0.67 0.69 0.72 0.83 1.07 1.27 1.41 1.31 1.10 0.98 0.94 1.00 1.11 1.24 1.19 1.17 1.30 1.29 1.17 1.02 0.83 0.68 0.66 0.60 0.64 0.64 0.57 0.50 0.47 0.45 0.42 0.40 0.37 0.33
0.95 1.00 0.99 0.96 0.92 0.87 0.81 0.78 0.82 0.81 0.76 0.72 0.77 0.86 0.97 1.16 1.32 1.36 1.22 1.08 1.05 1.14 1.25 1.27 1.35 1.56 1.58 1.42 1.17 0.95 0.84 0.73 0.65 0.54 0.56 0.59 0.56 0.49 0.46 0.44 0.41 0.37 0.36
1.01 1.12 1.16 1.15 1.11 1.05 0.93 0.93 1.00 0.92 0.91 0.85 0.81 0.80 0.76 0.83 0.95 1.09 1.17 1.25 1.23 1.19 1.25 1.32 1.52 1.91 1.91 1.65 1.28 1.07 1.01 0.95 0.82 0.70 0.65 0.56 0.51 0.47 0.45 0.46 0.45 0.43 0.39
1.34 1.37 1.35 1.32 1.28 1.14 1.13 1.05 1.04 1.02 1.04 1.01 0.96 0.91 0.83 0.76 0.75 0.82 0.90 1.01 1.15 1.18 1.18 1.24 1.42 1.72 1.89 1.78 1.52 1.31 1.10 0.98 0.90 0.83 0.78 0.71 0.60 0.53 0.46 0.41 0.44 0.43 0.41
1.41 1.44 1.48 1.48 1.44 1.44 1.34 1.10 1.02 1.00 1.03 1.10 1.15 1.16 0.94 0.75 0.79 0.78 0.84 0.84 0.86 0.94 1.03 1.11 1.26 1.46 1.75 1.87 1.70 1.33 1.16 1.06 0.88 0.79 0.78 0.74 0.68 0.60 0.51 0.47 0.51 0.42 0.41
1.25 1.23 1.21 1.19 1.25 1.23 1.17 0.98 0.91 0.87 0.93 0.98 1.00 1.01 0.97 0.84 0.79 0.78 0.79 0.75 0.70 0.69 0.73 0.80 0.92 1.13 1.40 1.71 1.86 1.62 1.43 1.27 1.06 0.91 0.76 0.73 0.73 0.66 0.56 0.51 0.56 0.48 0.41
1.07 1.01 0.98 1.01 1.05 1.09 1.07 0.92 0.88 0.83 0.86 0.85 0.83 0.85 0.87 0.79 0.73 0.62 0.62 0.63 0.62 0.60 0.57 0.60 0.67 0.83 1.08 1.38 1.72 1.84 1.56 1.23 1.08 0.90 0.77 0.69 0.65 0.69 0.67 0.56 0.55 0.57 0.48
1.18 1.12 1.07 1.05 1.05 1.13 1.19 1.00 0.92 0.84 0.86 0.87 0.96 0.98 0.94 0.81 0.70 0.54 0.52 0.56 0.56 0.53 0.56 0.56 0.55 0.60 0.73 0.97 1.32 1.50 1.51 1.23 1.00 0.88 0.65 0.59 0.56 0.59 0.64 0.56 0.45 0.44 0.45

GEFSMA_prec_meanprecacc_144.txt.gz
Total_Precipitation_Accumulation
1.74 1.86 1.70 1.58 1.38 1.62 1.88 1.94 1.80 1.99 1.99 2.04 2.02 2.01 2.04 1.78 1.61 1.48 1.53 1.72 1.67 1.63 1.72 1.77 1.72 1.66 1.60 1.44 1.28 1.09 0.95 0.89 0.79 0.70 0.61 0.52 0.44 0.36 0.32 0.22 0.15 0.09 0.07
1.59 1.65 1.60 1.51 1.45 1.59 1.78 1.81 1.82 2.06 2.15 2.13 1.85 1.75 1.75 1.78 1.69 1.49 1.61 1.74 1.77 1.62 1.69 1.90 1.96 1.93 1.92 1.77 1.56 1.38 1.19 1.03 0.83 0.64 0.58 0.56 0.48 0.39 0.41 0.43 0.45 0.18 0.08
1.31 1.41 1.44 1.39 1.44 1.50 1.51 1.49 1.57 1.77 1.76 1.69 1.56 1.50 1.55 1.59 1.65 1.61 1.47 1.51 1.66 1.72 1.65 1.78 1.90 1.95 2.09 2.06 1.90 1.66 1.44 1.19 0.93 0.65 0.52 0.50 0.46 0.36 0.33 0.39 0.44 0.26 0.13
1.03 1.12 1.08 1.11 1.16 1.19 1.19 1.23 1.29 1.42 1.52 1.61 1.61 1.49 1.61 1.69 1.60 1.67 1.63 1.51 1.70 1.60 1.81 1.95 1.92 1.87 2.09 2.30 2.34 2.13 1.78 1.37 1.07 0.82 0.63 0.52 0.48 0.39 0.32 0.30 0.31 0.28 0.18
0.94 1.00 0.99 1.01 0.91 0.94 0.96 0.91 1.05 1.21 1.34 1.41 1.31 1.37 1.35 1.37 1.39 1.34 1.49 1.38 1.47 1.56 1.71 1.81 1.91 1.83 2.09 2.50 2.84 2.91 2.51 1.87 1.38 1.11 0.97 0.83 0.68 0.53 0.42 0.40 0.35 0.29 0.24
0.91 0.89 0.84 0.78 0.71 0.77 0.85 0.90 1.06 1.10 1.11 1.17 1.07 1.15 1.11 1.01 1.09 1.16 1.13 1.16 1.22 1.16 1.38 1.59 1.76 1.50 1.82 2.32 2.68 2.95 3.03 2.69 2.11 1.62 1.38 1.24 1.08 0.79 0.51 0.42 0.40 0.37 0.31
0.92 0.86 0.76 0.78 0.67 0.67 0.70 0.69 0.77 0.84 0.87 0.93 1.11 1.14 0.98 0.88 0.91 0.93 0.89 0.96 0.99 1.06 1.37 1.59 1.62 1.53 1.36 1.40 1.57 2.03 2.61 2.98 2.80 2.24 1.81 1.55 1.41 1.09 0.70 0.50 0.44 0.42 0.38
0.83 0.74 0.79 0.74 0.68 0.69 0.65 0.66 0.72 0.77 0.78 0.81 0.94 1.01 0.93 0.94 0.90 0.70 0.79 0.84 0.89 1.09 1.24 1.24 1.32 1.48 1.27 1.39 1.05 1.25 1.86 2.35 2.80 2.76 2.31 1.81 1.57 1.34 1.03 0.80 0.61 0.50 0.46
0.75 0.75 0.75 0.77 0.75 0.62 0.61 0.66 0.64 0.66 0.67 0.67 0.73 0.84 0.84 0.85 0.79 0.69 0.68 0.72 0.83 1.00 1.03 1.11 1.02 1.06 1.15 1.33 1.30 1.09 1.34 1.57 2.14 2.75 2.71 2.18 1.72 1.42 1.25 1.13 0.99 0.77 0.64
0.76 0.70 0.68 0.77 0.74 0.62 0.68 0.54 0.52 0.60 0.64 0.56 0.54 0.58 0.57 0.66 0.75 0.80 0.72 0.68 0.74 0.76 0.80 0.86 0.88 0.94 0.96 1.14 1.18 0.89 0.80 0.99 1.49 2.20 2.60 2.45 2.03 1.60 1.41 1.44 1.64 1.55 1.14
0.95 0.76 0.64 0.71 0.73 0.71 0.76 0.66 0.65 0.57 0.54 0.50 0.48 0.53 0.53 0.49 0.52 0.68 0.76 0.73 0.71 0.57 0.58 0.63 0.67 0.74 0.79 0.90 1.07 0.85 0.67 0.74 0.95 1.37 1.76 2.04 2.06 1.92 1.74 1.74 2.12 2.35 2.13
0.95 0.85 0.77 0.82 0.81 0.74 0.75 0.70 0.71 0.66 0.62 0.58 0.47 0.46 0.62 0.58 0.46 0.53 0.56 0.62 0.63 0.46 0.45 0.52 0.56 0.63 0.72 0.85 0.80 0.70 0.76 0.84 0.84 0.89 1.08 1.31 1.56 1.70 1.78 1.90 2.13 2.43 2.51
0.79 0.79 0.82 0.86 0.82 0.81 0.74 0.68 0.66 0.69 0.74 0.74 0.59 0.44 0.45 0.55 0.50 0.46 0.47 0.47 0.52 0.48 0.52 0.53 0.56 0.69 0.77 1.02 0.98 0.83 0.83 0.90 0.86 0.83 0.81 0.84 0.95 1.09 1.23 1.43 1.71 2.00 2.29
0.82 0.85 0.87 0.80 0.76 0.75 0.71 0.70 0.62 0.59 0.66 0.74 0.71 0.71 0.65 0.50 0.55 0.51 0.48 0.56 0.62 0.67 0.73 0.71 0.79 0.91 1.05 1.16 1.22 1.00 0.83 0.73 0.61 0.59 0.57 0.56 0.60 0.67 0.78 0.88 1.03 1.24 1.41
0.82 0.81 0.76 0.74 0.72 0.72 0.74 0.76 0.73 0.69 0.68 0.62 0.65 0.78 0.77 0.63 0.57 0.55 0.52 0.60 0.82 0.83 0.83 0.94 1.14 1.26 1.19 1.18 1.14 1.05 0.87 0.71 0.60 0.52 0.49 0.47 0.48 0.50 0.54 0.57 0.61 0.73 0.84
0.81 0.82 0.76 0.71 0.71 0.66 0.66 0.71 0.70 0.73 0.77 0.74 0.71 0.76 0.83 0.82 0.74 0.70 0.67 0.71 0.87 0.92 0.96 1.00 1.20 1.29 1.14 0.96 0.98 1.02 0.89 0.81 0.68 0.57 0.50 0.50 0.50 0.50 0.47 0.47 0.46 0.46 0.50
0.83 0.81 0.78 0.82 0.79 0.72 0.70 0.71 0.69 0.73 0.77 0.85 0.88 0.87 0.86 0.95 1.00 0.92 0.90 0.91 0.96 1.05 1.09 1.07 1.20 1.23 1.10 0.90 0.85 0.89 0.88 0.88 0.76 0.69 0.57 0.51 0.49 0.48 0.46 0.46 0.46 0.45 0.43
0.87 0.82 0.80 0.86 0.81 0.73 0.73 0.70 0.68 0.70 0.79 0.89 1.01 1.15 1.15 1.09 1.05 0.99 1.00 1.02 1.09 1.24 1.27 1.23 1.27 1.31 1.21 1.06 0.96 0.87 0.75 0.73 0.75 0.78 0.66 0.56 0.51 0.48 0.46 0.44 0.44 0.43 0.43
0.98 0.98 0.90 0.87 0.86 0.85 0.83 0.75 0.73 0.73 0.75 0.78 0.90 1.15 1.34 1.49 1.40 1.21 1.09 1.05 1.11 1.21 1.35 1.31 1.30 1.43 1.40 1.26 1.11 0.91 0.77 0.73 0.66 0.69 0.70 0.62 0.54 0.50 0.49 0.48 0.47 0.46 0.43
0.98 1.04 1.04 1.01 0.97 0.94 0.89 0.86 0.89 0.89 0.85 0.80 0.84 0.93 1.04 1.23 1.40 1.44 1.30 1.16 1.14 1.23 1.36 1.39 1.48 1.69 1.69 1.51 1.25 1.03 0.92 0.80 0.71 0.59 0.62 0.64 0.60 0.53 0.51 0.49 0.47 0.45 0.44
1.06 1.18 1.22 1.20 1.16 1.11 1.00 1.01 1.08 1.01 1.00 0.95 0.90 0.88 0.84 0.90 1.03 1.16 1.23 1.30 1.30 1.27 1.35 1.42 1.61 2.00 1.99 1.71 1.33 1.12 1.06 1.00 0.87 0.74 0.68 0.59 0.55 0.51 0.50 0.52 0.51 0.47 0.43
1.39 1.43 1.41 1.37 1.34 1.21 1.23 1.17 1.14 1.12 1.13 1.10 1.05 0.98 0.89 0.81 0.82 0.88 0.96 1.07 1.22 1.26 1.26 1.32 1.49 1.79 1.96 1.85 1.58 1.36 1.15 1.02 0.94 0.87 0.83 0.76 0.65 0.59 0.51 0.46 0.49 0.47 0.44
1.44 1.47 1.52 1.54 1.51 1.54 1.46 1.21 1.15 1.12 1.15 1.20 1.25 1.23 1.00 0.82 0.86 0.84 0.92 0.94 0.97 1.07 1.16 1.22 1.36 1.55 1.84 1.97 1.80 1.42 1.24 1.13 0.94 0.84 0.83 0.79 0.72 0.63 0.54 0.50 0.54 0.45 0.44
1.29 1.27 1.25 1.23 1.29 1.30 1.26 1.07 1.01 0.95 1.04 1.08 1.09 1.10 1.05 0.92 0.86 0.85 0.87 0.85 0.82 0.82 0.87 0.93 1.03 1.24 1.51 1.82 1.96 1.71 1.50 1.34 1.13 0.97 0.82 0.79 0.78 0.70 0.60 0.54 0.58 0.50 0.42
1.11 1.06 1.04 1.06 1.08 1.13 1.11 0.97 0.93 0.87 0.91 0.92 0.90 0.92 0.94 0.87 0.81 0.69 0.69 0.71 0.71 0.71 0.69 0.71 0.78 0.93 1.16 1.46 1.78 1.89 1.61 1.28 1.12 0.94 0.81 0.73 0.69 0.73 0.71 0.59 0.57 0.59 0.50
1.21 1.16 1.11 1.09 1.09 1.18 1.23 1.04 0.96 0.89 0.92 0.93 1.01 1.03 1.00 0.88 0.78 0.62 0.61 0.67 0.66 0.63 0.65 0.64 0.62 0.66 0.78 1.02 1.37 1.54 1.55 1.27 1.03 0.92 0.69 0.62 0.59 0.61 0.66 0.58 0.46 0.46 0.46

GEFSMA_prec_meanprecacc_150.txt.gz
Total_Precipitation_Accumulation
1.81 1.93 1.78 1.66 1.44 1.66 1.92 2.01 1.84 2.03 2.03 2.07 2.04 2.03 2.06 1.80 1.63 1.51 1.56 1.73 1.67 1.64 1.74 1.78 1.73 1.67 1.61 1.45 1.30 1.11 0.97 0.90 0.81 0.72 0.63 0.54 0.46 0.38 0.34 0.23 0.16 0.10 0.09
1.64 1.71 1.65 1.58 1.52 1.64 1.81 1.84 1.85 2.10 2.19 2.16 1.87 1.76 1.76 1.80 1.71 1.53 1.66 1.77 1.78 1.62 1.70 1.92 1.98 1.95 1.94 1.79 1.58 1.39 1.21 1.05 0.85 0.66 0.60 0.57 0.49 0.42 0.44 0.45 0.46 0.19 0.09
1.35 1.46 1.49 1.44 1.50 1.54 1.54 1.52 1.59 1.80 1.79 1.73 1.59 1.52 1.57 1.60 1.67 1.64 1.52 1.56 1.69 1.74 1.66 1.80 1.92 1.97 2.10 2.07 1.93 1.68 1.46 1.22 0.96 0.68 0.54 0.52 0.48 0.37 0.34 0.41 0.45 0.27 0.14
1.08 1.17 1.12 1.15 1.19 1.21 1.21 1.26 1.31 1.44 1.56 1.66 1.65 1.52 1.63 1.71 1.61 1.68 1.65 1.55 1.75 1.65 1.85 1.97 1.94 1.88 2.10 2.32 2.37 2.17 1.82 1.40 1.09 0.84 0.65 0.54 0.49 0.41 0.33 0.32 0.33 0.29 0.19
0.97 1.03 1.04 1.06 0.93 0.96 0.98 0.93 1.08 1.24 1.40 1.47 1.34 1.41 1.37 1.40 1.41 1.35 1.51 1.40 1.51 1.62 1.78 1.86 1.93 1.85 2.11 2.53 2.87 2.96 2.56 1.91 1.41 1.14 0.99 0.85 0.71 0.55 0.44 0.42 0.36 0.31 0.26
0.95 0.94 0.89 0.82 0.74 0.81 0.89 0.95 1.12 1.15 1.16 1.22 1.10 1.22 1.15 1.04 1.11 1.17 1.15 1.20 1.26 1.20 1.44 1.65 1.82 1.54 1.85 2.36 2.72 3.01 3.08 2.74 2.15 1.65 1.42 1.27 1.12 0.83 0.53 0.43 0.41 0.38 0.33
0.98 0.93 0.83 0.86 0.73 0.73 0.74 0.72 0.82 0.91 0.93 0.97 1.17 1.21 1.02 0.90 0.94 0.95 0.91 1.00 1.02 1.09 1.41 1.66 1.70 1.63 1.46 1.47 1.60 2.07 2.67 3.04 2.86 2.29 1.85 1.59 1.45 1.12 0.72 0.53 0.45 0.44 0.39
0.93 0.83 0.85 0.81 0.75 0.76 0.71 0.72 0.79 0.85 0.87 0.88 1.01 1.14 1.07 1.09 0.99 0.74 0.89 0.92 0.94 1.13 1.29 1.31 1.42 1.61 1.40 1.52 1.12 1.30 1.92 2.44 2.88 2.83 2.37 1.87 1.63 1.39 1.08 0.84 0.64 0.53 0.49
0.81 0.81 0.82 0.83 0.83 0.68 0.69 0.74 0.71 0.74 0.76 0.75 0.78 0.94 1.00 1.06 0.94 0.79 0.79 0.80 0.89 1.08 1.12 1.24 1.13 1.23 1.35 1.51 1.44 1.16 1.40 1.63 2.22 2.84 2.81 2.27 1.80 1.49 1.32 1.20 1.06 0.84 0.70
0.80 0.75 0.75 0.85 0.82 0.71 0.78 0.60 0.59 0.68 0.73 0.63 0.60 0.63 0.65 0.79 0.91 0.98 0.86 0.78 0.83 0.87 0.92 0.98 0.98 1.06 1.12 1.33 1.39 0.99 0.86 1.03 1.55 2.29 2.73 2.56 2.12 1.67 1.48 1.52 1.73 1.63 1.23
1.02 0.80 0.70 0.79 0.82 0.80 0.86 0.75 0.78 0.67 0.62 0.58 0.55 0.59 0.61 0.57 0.60 0.81 0.95 0.89 0.84 0.69 0.69 0.73 0.77 0.84 0.91 1.04 1.20 0.93 0.72 0.78 0.99 1.42 1.83 2.12 2.14 2.01 1.83 1.85 2.24 2.47 2.26
1.04 0.93 0.85 0.92 0.91 0.84 0.85 0.80 0.81 0.75 0.70 0.68 0.57 0.54 0.73 0.67 0.54 0.64 0.70 0.75 0.75 0.57 0.59 0.67 0.66 0.73 0.82 0.92 0.87 0.79 0.84 0.90 0.87 0.92 1.10 1.34 1.60 1.75 1.85 1.98 2.23 2.55 2.65
0.88 0.89 0.94 0.98 0.93 0.93 0.85 0.79 0.79 0.81 0.88 0.88 0.70 0.55 0.56 0.65 0.57 0.55 0.59 0.59 0.63 0.59 0.63 0.62 0.63 0.76 0.85 1.10 1.09 0.96 0.95 0.98 0.90 0.86 0.83 0.86 0.97 1.13 1.28 1.48 1.78 2.09 2.39
0.92 0.96 0.99 0.90 0.86 0.85 0.81 0.84 0.75 0.73 0.81 0.89 0.81 0.85 0.76 0.59 0.63 0.60 0.61 0.71 0.77 0.79 0.83 0.79 0.85 0.97 1.13 1.25 1.33 1.11 0.94 0.82 0.67 0.63 0.60 0.58 0.62 0.70 0.81 0.91 1.06 1.28 1.45
0.92 0.92 0.84 0.81 0.80 0.80 0.84 0.89 0.86 0.82 0.82 0.75 0.75 0.91 0.87 0.71 0.64 0.63 0.63 0.74 0.98 0.99 0.97 1.06 1.22 1.34 1.28 1.26 1.25 1.14 0.95 0.79 0.66 0.57 0.53 0.51 0.52 0.54 0.57 0.60 0.64 0.75 0.87
0.91 0.90 0.83 0.79 0.79 0.73 0.74 0.82 0.81 0.83 0.88 0.85 0.81 0.88 0.93 0.91 0.83 0.79 0.77 0.82 0.99 1.06 1.11 1.14 1.32 1.38 1.23 1.05 1.08 1.11 0.98 0.89 0.73 0.61 0.54 0.53 0.54 0.53 0.50 0.51 0.48 0.49 0.52
0.92 0.90 0.86 0.89 0.86 0.80 0.78 0.80 0.79 0.83 0.88 0.96 0.99 0.98 0.98 1.05 1.11 1.03 1.00 1.01 1.07 1.19 1.25 1.23 1.34 1.35 1.22 1.02 0.97 1.00 0.97 0.97 0.83 0.75 0.62 0.56 0.54 0.52 0.50 0.49 0.50 0.48 0.46
0.95 0.89 0.87 0.92 0.87 0.82 0.83 0.79 0.78 0.81 0.88 0.98 1.10 1.24 1.25 1.19 1.17 1.10 1.12 1.14 1.23 1.40 1.44 1.40 1.40 1.42 1.33 1.19 1.09 0.98 0.86 0.82 0.82 0.84 0.71 0.61 0.55 0.52 0.49 0.47 0.47 0.45 0.45
1.04 1.04 0.97 0.93 0.92 0.92 0.93 0.85 0.81 0.81 0.82 0.86 0.98 1.24 1.44 1.59 1.49 1.30 1.19 1.15 1.23 1.34 1.50 1.44 1.41 1.53 1.51 1.37 1.23 1.03 0.90 0.86 0.73 0.76 0.77 0.69 0.59 0.54 0.52 0.50 0.49 0.48 0.45
1.04 1.10 1.11 1.08 1.05 1.01 0.95 0.92 0.96 0.96 0.92 0.87 0.91 1.00 1.13 1.33 1.49 1.54 1.39 1.26 1.24 1.35 1.50 1.52 1.60 1.81 1.81 1.63 1.36 1.15 1.04 0.92 0.80 0.65 0.67 0.68 0.63 0.56 0.53 0.52 0.50 0.47 0.46
1.10 1.24 1.29 1.26 1.23 1.17 1.05 1.07 1.15 1.07 1.07 1.02 0.98 0.96 0.92 1.00 1.13 1.27 1.32 1.40 1.39 1.37 1.46 1.53 1.73 2.12 2.10 1.80 1.42 1.21 1.16 1.08 0.92 0.77 0.71 0.61 0.57 0.53 0.52 0.54 0.53 0.50 0.44
1.42 1.48 1.44 1.40 1.38 1.25 1.28 1.23 1.21 1.18 1.20 1.18 1.14 1.07 0.98 0.90 0.91 0.98 1.05 1.14 1.29 1.34 1.36 1.43 1.60 1.90 2.06 1.93 1.66 1.43 1.23 1.10 0.99 0.90 0.84 0.78 0.67 0.62 0.55 0.49 0.52 0.50 0.46
1.48 1.52 1.58 1.58 1.55 1.60 1.51 1.25 1.20 1.19 1.23 1.27 1.32 1.32 1.09 0.90 0.94 0.91 0.98 1.00 1.02 1.12 1.23 1.33 1.48 1.68 1.96 2.08 1.92 1.53 1.35 1.22 1.02 0.90 0.89 0.87 0.78 0.69 0.59 0.55 0.58 0.48 0.46
1.34 1.32 1.29 1.28 1.35 1.35 1.29 1.10 1.04 0.99 1.09 1.14 1.14 1.15 1.11 0.98 0.91 0.90 0.92 0.90 0.86 0.87 0.93 1.01 1.15 1.38 1.67 2.00 2.14 1.87 1.65 1.47 1.24 1.07 0.91 0.89 0.86 0.77 0.64 0.57 0.61 0.53 0.44
1.16 1.10 1.08 1.10 1.12 1.17 1.14 1.01 0.97 0.91 0.94 0.95 0.93 0.96 0.99 0.92 0.87 0.73 0.74 0.77 0.76 0.74 0.73 0.77 0.85 1.01 1.26 1.56 1.88 2.00 1.72 1.38 1.22 1.04 0.89 0.80 0.75 0.78 0.75 0.62 0.59 0.61 0.52
1.26 1.20 1.15 1.14 1.14 1.23 1.28 1.09 1.01 0.93 0.95 0.96 1.04 1.07 1.03 0.91 0.81 0.64 0.64 0.70 0.69 0.66 0.69 0.68 0.67 0.72 0.84 1.08 1.43 1.60 1.61 1.34 1.10 0.98 0.74 0.66 0.63 0.65 0.70 0.61 0.48 0.47 0.47